     2              OBSERVATION DATA    GPS                 RINEX VERSION / TYPE
teqc 1999Jul19 19991123 03:28:10UTC                         PGM / RUN BY / DATE
                                                            COMMENT
Original Marker Name: TORO                                  COMMENT
Campaign Name: HPGN 1991                                    COMMENT
4-Character Station Name: TORO                              COMMENT
6-Character Antenna Code: TRMSST                            COMMENT
Vertical Measurement Point: TGP                             COMMENT
Vertical Offset to Rinex Ref. Point: 0.0629                 COMMENT
Radial Measurement Point: NGP                               COMMENT
Radial Offset to Rinex Ref. Point: 0.2334                   COMMENT
Antenna Height from Field Measurement: 0.7140 m             COMMENT
Original XYZ: -2690004.8076 -4370876.8822 3775876.8894      COMMENT
New XYZ position is based on association with SCEC monument COMMENT
E1F6I2E6+0011. Position of that monument is believed to be  COMMENT
valid to within 1 m horizontally; vertical accuracy         COMMENT
should be no worse than 3-times this value.                 COMMENT
                                                            COMMENT
Revised Rinex header created by UCSD GPS archive for        COMMENT
GSAC on 11-Feb-2000 (2000:042) 01:14:35 GMT                 COMMENT
For assistance contact dagnew@ucsd.edu or hjohnson@ucsd.edu COMMENT
                                                            COMMENT
MOUNT TORO                                                  MARKER NAME
TORO                                                        MARKER NUMBER
-Unknown- CALIF DEPT TRANSPORTATION                         OBSERVER / AGENCY
0282 TRIMBLE 4000 SST NP 4.30 / SP 4.20                     REC # / TYPE / VERS
0136 TR 4000SST L1/L2 GEO                                   ANT # / TYPE
  6378137.0000        0.0000       -0.0000                  APPROX POSITION XYZ
        0.6119        0.0000        0.0000                  ANTENNA: DELTA H/E/N
     1     1     0                                          WAVELENGTH FACT L1/2
     5    C1    L1    L2    S1    S2                        # / TYPES OF OBSERV
     0                                                      INTERVAL
  1991     5    15    18    17   45.000000                  TIME OF FIRST OBS
  1991     5    16     0    16   30.000000                  TIME OF LAST OBS
                                                            END OF HEADER
 91  5 15 18 17 45.0000000  0  4G18G 2G11G19
  20677462.516          -0.87617                        24.000
  24023907.281          -0.08915                        11.250
  24268122.102          -0.84115                         9.000
  20766392.711          -0.78817                        21.000
 91  5 15 18 18  0.0000000  0  4G18G 2G11G19
  20680464.273       15773.548 7        -0.45132        23.750           2.250
  24014059.773      -51750.879 5                        11.000
  24260816.063      -38369.466 5                         8.750
  20765676.516       -3775.242 7        -0.33232        20.250           1.563
 91  5 15 18 18 15.0000000  0  4G18G 2G11G19
  20683473.297       31586.849 7     12321.58322        23.750           2.406
  24004203.953     -103531.375 5        -0.23331        10.750           0.375
  24253520.078      -76730.792 5        -0.33231         9.000           0.313
  20764952.344       -7566.494 7     -2954.55322        21.250           1.563
 91  5 15 18 18 30.0000000  0  4G18G 2G11G19
  20686492.891       47451.133 7     24683.33822        23.750           2.375
  23994349.625     -155329.182 5    -40362.02521        10.750           0.469
  24246222.758     -115072.260 5    -29876.69721         9.250           0.313
  20764237.234      -11362.329 6     -5912.35222        19.000           1.594
 91  5 15 18 18 45.0000000  0  4G18G 2G11G19
  20689523.023       63379.547 7     37095.07122        23.750           2.344
  23984490.008     -207131.081 5    -80727.00721        10.750           0.500
  24238932.734     -153380.498 5    -59727.18621         9.250           0.344
  20763508.711      -15149.978 7     -8863.76722        21.000           1.594
 91  5 15 18 19  0.0000000  0  4G18G 2G11G19
  20692567.453       79380.537 7     49563.35622        23.500           2.406
  23974634.688     -258928.152 5   -121088.22821        11.000           0.344
  24231650.695     -191646.390 5    -89544.65221         9.250           0.344
  20762796.930      -18920.765 7    -11802.04922        20.000           1.531
 91  5 15 18 19 15.0000000  0  4G18G 2G11G19
  20695628.180       95463.307 7     62095.36122        23.500           2.313
  23964780.383     -310711.081 5   -161438.45221        11.500           0.375
  24224381.578     -229860.456 5   -119321.75721         9.500           0.344
  20762079.609      -22665.669 7    -14720.15822        21.000           1.500
 91  5 15 18 19 30.0000000  0  4G18G 2G11G19
  20698705.000      111630.472 7     74693.13222        23.500           2.313
  23954928.641     -362477.142 5   -201775.50121        11.250           0.406
  24217117.758     -268019.652 5   -149056.10221         9.250           0.281
  20761375.828      -26382.073 7    -17616.06522        20.500           1.500
 91  5 15 18 19 45.0000000  0  4G18G 2G11G19
  20701797.977      127888.526 7     87361.72422        23.500           2.406
  23945083.492     -414219.643 5   -242094.20421        11.000           0.313
  24209868.180     -306117.203 5   -178742.41321         9.500           0.344
  20760671.508      -30063.646 7    -20484.82422        21.000           1.563
 91  5 15 18 20  0.0000000  0  4G18G 2G11G19
  20704910.195      144236.182 7    100100.13322        23.500           2.375
  23935240.703     -465939.498 5   -282395.26821        10.250           0.375
  24202630.375     -344153.650 5   -208381.11321         9.250           0.250
  20759980.594      -33711.392 7    -23327.23021        20.500           1.469
 91  5 15 18 20 15.0000000  0  4G18G 2G11G19
  20708036.438      160667.745 7    112903.92522        23.750           2.281
  23925403.117     -517642.503 5   -322683.19421        10.250           0.375
  24195400.102     -382134.619 5   -237976.58821         9.500           0.375
  20759288.789      -37331.556 7    -26148.14122        21.250           1.594
 91  5 15 18 20 30.0000000  0  4G18G 2G11G19
  20711179.750      177190.747 7    125778.96822        23.500           2.406
  23915567.797     -569320.502 5   -362951.62121        10.500           0.438
  24188188.203     -420051.979 5   -267522.47421        10.000           0.406
  20758612.102      -40916.141 6    -28941.32522        19.750           1.531
 91  5 15 18 20 45.0000000  0  4G18G 2G11G19
  20714342.820      193806.659 7    138726.41022        23.750           2.406
  23905738.797     -620972.076 5   -403199.48121        10.750           0.438
  24180984.039     -457903.835 5   -297017.34421         9.500           0.344
  20757932.797      -44463.725 7    -31705.68122        21.000           1.594
 91  5 15 18 21  0.0000000  0  4G18G 2G11G19
  20717522.102      210513.242 7    151744.50522        23.750           2.375
  23895914.664     -672599.091 5   -443428.19521        10.500           0.375
  24173793.711     -495691.864 5   -326462.47521        10.000           0.344
  20757264.859      -47976.618 7    -34443.00322        20.500           1.563
 91  5 15 18 21 15.0000000  0  4G18G 2G11G19
  20720717.813      227309.736 7    164832.65722        23.500           2.375
  23886094.898     -724202.362 5   -483638.40021        10.250           0.375
  24166614.820     -533416.671 5   -355858.33121        10.250           0.344
  20756600.063      -51455.747 7    -37154.01322        21.250           1.625
 91  5 15 18 21 30.0000000  0  4G18G 2G11G19
  20723934.891      244208.155 7    178000.23322        23.750           2.375
  23876281.680     -775769.530 5   -523820.49121        10.000           0.438
  24159450.891     -571065.829 5   -385195.25121        10.250           0.281
  20755949.547      -54889.172 7    -39829.41222        20.750           1.594
 91  5 15 18 21 45.0000000  0  4G18G 2G11G19
  20727169.086      261205.002 7    191244.50722        23.500           2.438
  23866474.867     -827303.759 5   -563976.90121         9.750           0.313
  24152298.930     -608642.273 5   -414475.50721        10.750           0.375
  20755302.852      -58280.140 7    -42471.73022        21.500           1.594
 91  5 15 18 22  0.0000000  0  4G18G 2G11G19
  20730419.039      278291.224 7    204558.42222        23.500           2.469
  23856673.742     -878813.881 5   -604114.52721         9.750           0.375
  24145161.430     -646154.676 5   -443705.87721        11.000           0.250
  20754669.875      -61637.843 6    -45088.12022        19.750           1.625
 91  5 15 18 22 15.0000000  0  4G18G 2G11G19
  20733689.156      295468.852 7    217943.55622        23.500           2.375
  23846876.156     -930297.501 5   -644231.49321         9.750           0.344
  24138037.172     -683600.399 5   -472884.27221        11.750           0.344
  20754030.695      -64960.114 7    -47676.90422        21.250           1.688
 91  5 15 18 22 30.0000000  0  4G18G 2G11G19
  20736976.133      312740.691 7    231402.10722        23.250           2.375
  23837084.258     -981752.054 5   -684325.82421        10.000           0.406
  24130923.500     -720976.445 5   -502008.39521        11.500           0.313
  20753411.656      -68244.382 6    -50236.07622        19.750           1.594
 91  5 15 18 22 45.0000000  0  4G18G 2G11G19
  20740279.188      330104.165 7    244932.06022        23.250           2.438
  23827296.570    -1033179.900 5   -724399.34821        10.500           0.438
  24123825.609     -758284.989 5   -531079.90521        11.750           0.344
  20752788.313      -71493.164 7    -52767.60022        21.250           1.625
 91  5 15 18 23  0.0000000  0  4G18G 2G11G19
  20743601.250      347558.523 7    258532.83522        23.500           2.344
  23817516.289    -1084581.289 5   -764452.26721        10.500           0.375
  24116735.195     -795526.348 5   -560099.07121        11.750           0.281
  20752181.805      -74707.217 6    -55272.05622        19.500           1.563
 91  5 15 18 23 15.0000000  0  4G18G 2G11G19
  20746940.055      365106.248 7    272206.35622        23.500           2.375
  23807740.242    -1135953.426 5   -804482.36821        10.000           0.406
  24109662.695     -832697.630 5   -589063.62721        11.750           0.313
  20751572.438      -77884.048 7    -57747.51322        21.000           1.563
 91  5 15 18 23 30.0000000  0  4G18G 2G11G19
  20750295.383      382733.364 7    285941.74022        23.500           2.344
  23797968.055    -1187310.200 5   -844500.48821         9.750           0.563
  24102599.078     -869812.492 5   -617984.22221        11.750           0.313
  20750973.719      -81037.857 7    -60205.02622        20.000           1.656
 91  5 15 18 23 45.0000000  0  5G18G 2G11G16G19
  20753666.461      400454.797 7    299750.62522        23.500           2.438
  23788200.797    -1238636.208 5   -884494.65521        10.250           0.469
  24095550.820     -906855.429 6   -646848.77421        12.000           0.406
  24290719.867          -0.51315                         7.750
  20750379.445      -84153.627 7    -62632.89922        21.000           1.500
 91  5 15 18 24  0.0000000  0  5G18G 2G11G16G19
  20757058.531      418271.392 7    313633.65722        23.750           2.469
  23778438.445    -1289930.451 5   -924464.06321        10.500           0.500
  24088517.422     -943825.162 6   -675656.29021        12.000           0.375
  24283750.305      -36612.348 5                         8.000
  20749798.508      -87230.476 6    -65030.45122        19.250           1.594
 91  5 15 18 24 15.0000000  0  5G18G 2G11G16G19
  20760465.500      436181.682 7    327589.70123        23.000           2.500
  23768684.039    -1341194.256 5   -964409.77321        11.000           0.531
  24081494.930     -980722.633 6   -704407.47621        12.000           0.375
  24276800.289      -73130.689 5                         8.500
  20749214.867      -90269.742 7    -67398.70822        20.750           1.625
 91  5 15 18 24 30.0000000  0  5G18G 2G11G16G19
  20763891.484      454185.003 7    341618.23622        23.250           2.438
  23758934.609    -1392428.202 5  -1004332.18721        11.000           0.500
  24074487.445    -1017548.216 6   -733102.66121        12.000           0.438
  24269871.945     -109555.893 5                         8.500
  20748646.281      -93272.149 6    -69738.24922        19.750           1.563
 91  5 15 18 24 45.0000000  0  5G18G 2G11G16G19
  20767335.992      472280.405 7    355718.52023        23.500           2.500
  23749189.227    -1443632.893 5  -1044231.82421        10.750           0.594
  24067494.219    -1054302.277 6   -761742.11821        12.000           0.375
  24262955.992     -145888.676 5        -0.36531         8.250           0.281
  20748078.945      -96238.546 7    -72049.72722        21.000           1.625
 91  5 15 18 25  0.0000000  0  5G18G 2G11G16G19
  20770797.094      490469.988 7    369892.19322        23.500           2.469
  23739452.570    -1494805.980 5  -1084106.82121        11.000           0.469
  24060514.320    -1090982.360 6   -790323.91621        12.000           0.375
  24256062.328     -182126.444 5    -28237.55621         8.500           0.219
  20747526.375      -99166.948 6    -74331.59922        19.250           1.531
 91  5 15 18 25 15.0000000  0  5G18G 2G11G16G19
  20774275.070      508752.906 7    384138.59323        23.250           2.531
  23729721.992    -1545948.177 5  -1123957.75921        11.500           0.563
  24053546.414    -1127589.017 5   -818848.53121        11.750           0.469
  24249184.078     -218270.148 5    -56401.42821         8.000           0.188
  20746972.398     -102058.399 7    -76584.67722        20.500           1.625
 91  5 15 18 25 30.0000000  0  5G18G 2G11G16G19
  20777773.305      527128.840 7    398457.47222        23.250           2.406
  23719994.320    -1597059.466 6  -1163784.63021        12.000           0.438
  24046596.445    -1164122.151 6   -847315.81921        12.000           0.406
  24242321.914     -254319.771 5    -84492.02221         8.250           0.219
  20746430.984     -104913.117 6    -78809.13822        19.250           1.500
 91  5 15 18 25 45.0000000  0  5G18G 2G11G16G19
  20781288.617      545601.737 7    412851.90723        23.750           2.500
  23710274.336    -1648135.921 5  -1203584.34921        11.750           0.563
  24039655.969    -1200577.594 5   -875722.57921        11.750           0.406
  24235482.320     -290271.248 5   -112506.14121         8.000           0.281
  20745893.359     -107727.271 7    -81001.98522        20.250           1.594
 91  5 15 18 26  0.0000000  0  5G18G 2G11G16G19
  20784820.969      564168.396 7    427319.40322        23.750           2.469
  23700560.625    -1699180.174 5  -1243358.97021        11.750           0.656
  24032735.797    -1236957.627 5   -904070.60421        11.750           0.406
  24228656.867     -326127.027 5   -140445.65921         8.000           0.219
  20745367.211     -110503.549 6    -83165.32622        19.000           1.594
 91  5 15 18 26 15.0000000  0  5G18G 2G11G16G19
  20788372.156      582829.733 7    441860.67623        23.500           2.531
  23690854.375    -1750191.138 5  -1283107.64021        11.250           0.594
  24025828.609    -1273261.226 6   -932359.04521        12.000           0.469
  24221853.773     -361886.100 5   -168309.88421         8.250           0.281
  20744843.336     -113241.472 7    -85298.76822        20.000           1.594
 91  5 15 18 26 30.0000000  0  5G18G 2G11G16G19
  20791940.430      601583.235 7    456473.76823        23.750           2.531
  23681153.117    -1801170.955 6  -1322832.04121        12.000           0.563
  24018932.023    -1309490.213 5   -960589.35921        11.750           0.438
  24215068.891     -397550.744 5   -196100.48821         8.250           0.313
  20744334.766     -115943.221 6    -87404.03922        18.500           1.594
 91  5 15 18 26 45.0000000  0  5G18G 2G11G16G19
  20795527.422      620427.668 7    471157.71223        23.500           2.563
  23671457.070    -1852120.839 6  -1362533.13521        12.000           0.594
  24012053.094    -1345645.729 5   -988762.41421        11.750           0.313
  24208297.461     -433121.930 5   -223818.26321         8.250           0.250
  20743821.484     -118610.377 7    -89482.34422        20.000           1.531
 91  5 15 18 27  0.0000000  0  5G18G 2G11G16G19
  20799130.883      639366.771 7    485915.42822        23.500           2.438
  23661768.586    -1903036.725 6  -1402207.71621        12.000           0.531
  24005186.016    -1381723.594 5  -1016874.98021        11.500           0.438
  24201547.656     -468595.570 5   -251460.03421         8.250           0.156
  20743324.969     -121239.197 6    -91530.78022        19.000           1.500
 91  5 15 18 27 15.0000000  0  5G18G 2G11G16G19
  20802752.789      658398.995 7    500745.70023        23.500           2.500
  23652086.711    -1953920.107 5  -1441856.99421        11.750           0.563
  23998337.656    -1417724.842 5  -1044927.82521        11.750           0.406
  24194817.000     -503972.666 5   -279026.55321         8.500           0.219
  20742828.438     -123831.090 6    -93550.43822        19.750           1.625
 91  5 15 18 27 30.0000000  0  5G18G 2G11G16G19
  20806393.430      677526.296 7    515650.06023        24.000           2.563
  23642409.328    -2004768.962 5  -1481479.34921        11.500           0.625
  23991497.039    -1453647.187 5  -1072919.18821        11.000           0.438
  24188102.898     -539251.085 5   -306516.19021         8.000           0.188
  20742344.500     -126384.242 6    -95539.91622        19.000           1.625
 91  5 15 18 27 45.0000000  0  5G18G 2G11G16G19
  20810050.227      696746.854 7    530627.09022        23.500           2.313
  23632738.320    -2055584.706 5  -1521075.90021        11.750           0.656
  23984679.805    -1489491.799 5  -1100849.97921        11.250           0.375
  24181408.891     -574432.613 5   -333930.36121         8.250           0.281
  20741863.867     -128900.240 7    -97500.43522        20.000           1.625
 91  5 15 18 28  0.0000000  0  5G18G 2G11G16G19
  20813726.297      716063.686 7    545679.13622        24.000           2.406
  23623076.805    -2106364.142 6  -1560644.15821        12.250           0.625
  23977874.023    -1525255.267 5  -1128717.54521        11.000           0.375
  24174730.586     -609514.047 5   -361266.52021         8.000           0.281
  20741397.563     -131375.941 6    -99429.55422        18.250           1.563
 91  5 15 18 28 15.0000000  0  5G18G 2G11G16G19
  20817419.797      735476.924 7    560806.30823        23.750           2.500
  23613420.773    -2157106.771 6  -1600183.74321        12.250           0.563
  23971081.945    -1560937.007 5  -1156521.43121        11.250           0.500
  24168075.750     -644494.705 5   -388524.16721         8.000           0.281
  20740928.570     -133811.245 6   -101327.19922        19.750           1.531
 91  5 15 18 28 30.0000000  0  5G18G 2G11G16G19
  20821133.609      754987.988 7    576009.70422        24.000           2.438
  23603770.195    -2207810.899 6  -1639693.34321        12.000           0.594
  23964310.414    -1596535.187 5  -1184260.19021        11.250           0.406
  24161437.789     -679372.927 5   -415702.00521         7.750           0.406
  20740476.320     -136204.724 6   -103192.24522        19.000           1.688
 91  5 15 18 28 45.0000000  0  5G18G 2G11G16G19
  20824865.203      774598.420 7    591290.53423        23.750           2.531
  23594128.656    -2258474.771 5  -1679171.55721        11.750           0.594
  23957552.375    -1632048.014 5  -1211932.45421        11.250           0.438
  24154824.031     -714146.730 5   -442798.45721         8.500           0.281
  20740026.695     -138554.955 6   -105023.59722        19.750           1.656
 91  5 15 18 29  0.0000000  0  5G18G 2G11G16G19
  20828615.414      794306.397 7    606647.37322        23.750           2.406
  23584495.086    -2309100.155 5  -1718619.79621        11.750           0.656
  23950808.227    -1667476.932 5  -1239539.32021        11.250           0.406
  24148220.336     -748817.937 5   -469814.95521         8.000           0.250
  20739589.531     -140863.876 6   -106822.76222        19.250           1.625
 91  5 15 18 29 15.0000000  0  5G18G 2G11G16G19
  20832385.219      814119.045 7    622085.77023        23.750           2.500
  23574870.805    -2359679.460 5  -1758032.11521        11.750           0.688
  23944084.398    -1702814.175 5  -1267074.76121        11.500           0.344
  24141648.086     -783378.688 5   -496745.38521         8.250           0.281
  20739157.039     -143124.119 6   -108583.99822        19.750           1.563
 91  5 15 18 29 30.0000000  0  5G18G 2G11G16G19
  20836176.664      834039.417 7    637608.10822        23.750           2.406
  23565255.359    -2410209.221 6  -1797405.82921        12.250           0.688
  23937378.852    -1738056.201 5  -1294536.01321        11.250           0.438
  24135089.297     -817825.850 5   -523587.29221         8.250           0.313
  20738739.500     -145332.660 6   -110304.94022        19.250           1.625
 91  5 15 18 29 45.0000000  0  5G18G 2G11G16G19
  20839988.719      854073.706 7    653219.21522        23.500           2.406
  23555648.938    -2460683.344 6  -1836736.19321        12.250           0.656
  23930693.141    -1773196.502 5  -1321917.99721        11.250           0.313
  24128559.539     -852153.086 5   -550335.74521         8.250           0.313
  20738326.195     -147483.424 7   -111980.87122        20.000           1.594
 91  5 15 18 30  0.0000000  0  5G18G 2G11G16G19
  20843824.688      874230.160 7    668925.51222        23.750           2.438
  23546058.422    -2511093.167 5  -1876016.46821        11.750           0.531
  23924025.805    -1808226.397 5  -1349213.93921        11.000           0.375
  24122048.445     -886351.708 5   -576983.97421         8.250           0.250
  20737934.688     -149568.074 6   -113605.27922        19.500           1.656
 91  5 15 18 30 15.0000000  0  5G18G 2G11G16G19
  20847686.000      894519.622 7    684735.45423        23.500           2.500
  23536479.695    -2561427.919 5  -1915238.23921        11.750           0.531
  23917381.891    -1843134.762 5  -1376415.18021        11.250           0.469
  24115571.523     -920410.742 5   -603523.46321         8.750           0.281
  20737548.766     -151575.844 7   -115169.78322        20.250           1.594
 91  5 15 18 30 30.0000000  0  5G18G 2G11G16G19
  20851573.875      914950.376 7    700655.49422        23.500           2.406
  23526916.930    -2611678.879 5  -1954394.71321        11.750           0.563
  23910765.344    -1877912.989 5  -1403515.02521        11.250           0.313
  24109115.594     -954321.610 5   -629947.50421         8.500           0.313
  20737185.063     -153498.356 6   -116667.85222        19.250           1.656
 91  5 15 18 30 45.0000000  0  5G18G 2G11G16G19
  20855491.359      935539.687 7    716699.08622        23.500           2.438
  23517373.453    -2661828.239 5  -1993472.01321        11.750           0.531
  23904175.688    -1912542.910 5  -1430499.30121        11.250           0.469
  24102693.727     -988066.483 5   -656242.16921         8.750           0.250
  20736836.109     -155318.156 7   -118085.89022        20.000           1.594
 91  5 15 18 31  0.0000000  0  5G18G 2G11G16G19
  20859442.109      956304.079 7    732879.10622        23.500           2.438
  23507852.438    -2711859.585 6  -2032457.35821        12.000           0.656
  23897615.828    -1947007.742 5  -1457354.93321        11.250           0.469
  24096311.664    -1021628.732 5   -682394.53621         9.250           0.250
  20736521.023     -157018.820 6   -119411.08822        18.500           1.563
 91  5 15 18 31 15.0000000  0  5G18G 2G11G16G19
  20863429.430      977256.472 7    749205.61922        23.250           2.406
  23498356.633    -2761759.666 6  -2071340.41321        12.000           0.563
  23891092.117    -1981294.241 5  -1484071.60821        11.250           0.500
  24089958.547    -1054995.356 5   -708394.45121         8.500           0.344
  20736215.227     -158587.400 7   -120633.36622        20.000           1.750
 91  5 15 18 31 30.0000000  0  5G18G 2G11G16G19
  20867455.883      998410.849 7    765689.52322        23.250           2.438
  23488889.352    -2811514.240 6  -2110110.09421        12.000           0.625
  23884602.500    -2015387.886 5  -1510637.99921        11.250           0.438
  24083652.188    -1088151.867 5   -734230.65121         9.000           0.313
  20735948.086     -160009.916 6   -121741.82622        19.000           1.719
 91  5 15 18 31 45.0000000  0  5G18G 2G11G16G19
  20871518.953     1019764.026 7    782328.33523        23.250           2.531
  23479448.234    -2861126.254 5  -2148768.68221        11.750           0.563
  23878151.547    -2049291.581 5  -1537056.38721        11.000           0.438
  24077381.086    -1121101.382 5   -759905.56321         8.750           0.375
  20735700.133     -161289.502 7   -122738.91422        20.000           1.656
 91  5 15 18 32  0.0000000  0  5G18G 2G11G16G19
  20875618.563     1041310.159 7    799117.50122        23.250           2.406
  23470034.148    -2910601.319 6  -2187320.57021        12.250           0.625
  23871735.172    -2083010.550 5  -1563330.83021        11.000           0.406
  24071149.219    -1153848.966 5   -785423.15521         9.000           0.281
  20735486.664     -162431.971 6   -123629.15822        19.750           1.656
 91  5 15 18 32 15.0000000  0  5G18G 2G11G16G19
  20879751.813     1063029.395 7    816041.55323        23.250           2.500
  23460640.141    -2959959.247 6  -2225781.17821        12.250           0.719
  23865348.391    -2116564.332 5  -1589476.55321        11.000           0.406
  24064951.477    -1186414.249 5   -810798.64921         8.750           0.344
  20735288.227     -163457.229 6   -124428.06922        19.750           1.781
 91  5 15 18 32 30.0000000  0  5G18G 2G11G16G19
  20883914.188     1084898.567 7    833082.43722        23.250           2.438
  23451266.727    -3009222.801 6  -2264168.24921        12.250           0.625
  23858992.445    -2149975.746 5  -1615511.33821        10.750           0.625
  24058784.758    -1218820.274 5   -836050.05021         9.250           0.250
  20735112.922     -164388.295 6   -125153.58522        19.500           1.688
 91  5 15 18 32 45.0000000  0  5G18G 2G11G16G19
  20888098.914     1106890.449 7    850218.93822        23.000           2.438
  23441903.852    -3058418.915 6  -2302502.76921        12.250           0.688
  23852654.914    -2183271.691 5  -1641456.14121        10.750           0.656
  24052643.867    -1251094.235 5   -861198.56621         9.250           0.281
  20734947.023     -165252.457 7   -125826.96822        20.000           1.688
 91  5 15 18 33  0.0000000  0  5G18G 2G11G16G19
  20892303.938     1128986.742 7    867436.79822        23.000           2.344
  23432551.484    -3107565.681 6  -2340798.82221        12.000           0.656
  23846338.914    -2216469.867 5  -1667324.76421        10.750           0.469
  24046524.633    -1283253.950 5   -886258.07121         9.250           0.281
  20734795.898     -166067.811 6   -126462.31322        18.500           1.688
 91  5 15 18 33 15.0000000  0  5G18G 2G11G16G19
  20896525.063     1151173.247 7    884724.95522        23.000           2.375
  23423206.484    -3156676.821 6  -2379067.13221        12.500           0.688
  23840036.680    -2249583.781 5  -1693127.72821        10.750           0.500
  24040423.289    -1315312.913 5   -911239.06821         9.250           0.250
  20734642.344     -166848.282 6   -127070.47922        19.750           1.781
 91  5 15 18 33 30.0000000  0  5G18G 2G11G16G19
  20900762.656     1173438.691 7    902074.62322        23.000           2.406
  23413864.867    -3205763.466 6  -2417316.36621        12.500           0.656
  23833747.391    -2282624.492 5  -1718873.64721        10.750           0.469
  24034338.922    -1347282.645 5   -936150.50721         9.000           0.281
  20734500.820     -167605.315 6   -127660.38522        19.750           1.719
 91  5 15 18 33 45.0000000  0  5G18G 2G11G16G19
  20905012.688     1195774.235 7    919478.91122        23.000           2.344
  23404526.797    -3254834.386 6  -2455553.32521        12.000           0.688
  23827473.352    -2315600.626 5  -1744569.26021        11.000           0.531
  24028272.523    -1379171.633 5   -960999.04421         9.000           0.375
  20734358.234     -168347.916 7   -128239.04322        20.250           1.750
 91  5 15 18 34  0.0000000  0  5G18G 2G11G16G19
  20909276.117     1218179.006 7    936937.14422        23.000           2.313
  23395192.570    -3303890.139 6  -2493778.46821        12.750           0.563
  23821210.945    -2348512.524 5  -1770214.79621        11.000           0.469
  24022217.461    -1410980.305 5   -985784.98021         9.000           0.344
  20734221.844     -169076.894 6   -128807.08622        19.500           1.719
 91  5 15 18 34 15.0000000  0  5G18G 2G11G16G19
  20913551.922     1240646.820 7    954444.49922        23.000           2.375
  23385858.977    -3352936.694 6  -2531996.46421        12.750           0.594
  23814959.102    -2381365.903 5  -1795814.74721        11.000           0.531
  24016179.195    -1442714.812 5  -1010513.12021         9.000           0.250
  20734081.828     -169798.266 6   -129369.19922        19.750           1.625
 91  5 15 18 34 30.0000000  0  5G18G 2G11G16G19
  20917839.922     1263181.258 7    972003.77022        23.250           2.469
  23376529.234    -3401970.294 6  -2570204.35721        13.000           0.656
  23808718.273    -2414156.728 5  -1821365.95421        11.250           0.500
  24010154.789    -1474371.111 5  -1035180.30521         8.750           0.281
  20733952.445     -170508.563 6   -129922.68222        18.500           1.750
 91  5 15 18 34 45.0000000  0  5G18G 2G11G16G19
  20922142.352     1285786.241 7    989618.01322        23.250           2.375
  23367201.297    -3450986.532 6  -2608398.71521        12.750           0.719
  23802492.031    -2446880.509 5  -1846864.92421        11.500           0.438
  24004147.172    -1505944.931 5  -1059783.25621         9.000           0.375
  20733814.328     -171203.571 7   -130464.25622        20.000           1.719
 91  5 15 18 35  0.0000000  0  5G18G 2G11G16G19
  20926457.984     1308467.019 7   1007291.31722        23.500           2.219
  23357877.523    -3499979.872 6  -2646575.23021        13.000           0.656
  23796277.742    -2479531.597 5  -1872307.25721        11.250           0.469
  23998155.656    -1537430.593 5  -1084317.52121         9.000           0.406
  20733691.586     -171878.163 6   -130989.91722        18.250           1.688
 91  5 15 18 35 15.0000000  0  5G18G 2G11G16G19
  20930787.578     1331220.884 7   1025021.57022        23.000           2.250
  23348558.359    -3548953.081 6  -2684736.06121        13.000           0.688
  23790078.320    -2512112.446 5  -1897694.83721        11.250           0.500
  23992178.711    -1568830.718 5  -1108785.12621         9.000           0.250
  20733560.852     -172535.138 7   -131501.84722        20.000           1.719
 91  5 15 18 35 30.0000000  0  5G18G 2G11G16G19
  20935132.148     1354047.414 7   1042808.44922        23.000           2.188
  23339244.039    -3597906.073 6  -2722881.14421        13.750           0.688
  23783892.797    -2544622.820 5  -1923027.52221        11.500           0.438
  23986222.141    -1600145.393 5  -1133186.13121         9.000           0.313
  20733444.352     -173174.602 6   -132000.14022        18.000           1.625
 91  5 15 18 35 45.0000000  0  5G18G 2G11G16G19
  20939489.586     1376948.945 7   1060653.76322        22.500           2.063
  23329932.438    -3646836.511 6  -2761008.65821        14.500           0.500
  23777716.906    -2577060.160 5  -1948303.29121        11.250           0.531
  23980279.352    -1631372.031 5  -1157518.57021         8.750           0.344
  20733321.047     -173794.252 6   -132482.99522        19.500           1.750
 91  5 15 18 36  0.0000000  0  5G18G 2G11G16G19
  20943861.563     1399926.251 7   1078558.13222        22.500           2.094
  23320623.547    -3695743.161 6  -2799117.63621        14.000           0.594
  23771561.758    -2609423.168 5  -1973521.12721        11.750           0.594
  23974354.352    -1662509.689 5  -1181781.64521         8.750           0.250
  20733208.789     -174393.296 6   -132949.78622        18.750           1.719
 91  5 15 18 36 15.0000000  0  5G18G 2G11G16G19
  20948248.570     1422982.094 7   1096523.68822        22.250           2.281
  23311323.344    -3744622.982 6  -2837205.68621        13.000           0.688
  23765416.063    -2641708.642 6  -1998678.56621        12.000           0.406
  23968442.656    -1693555.057 5  -1205972.80621         9.000           0.344
  20733099.008     -174968.904 7   -133398.31422        20.500           1.656
 91  5 15 18 36 30.0000000  0  5G18G 2G11G16G19
  20952651.844     1446115.955 7   1114550.03922        22.500           2.094
  23302026.219    -3793476.479 6  -2875273.24321        13.500           0.781
  23759288.070    -2673916.810 6  -2023775.75521        12.250           0.469
  23962555.414    -1724508.619 5  -1230092.45521         8.750           0.313
  20732998.484     -175521.698 6   -133829.06822        18.750           1.719
 91  5 15 18 36 45.0000000  0  5G18G 2G11G16G19
  20957068.922     1469331.019 7   1132639.66922        22.500           2.188
  23292735.320    -3842300.238 6  -2913317.61821        13.250           0.750
  23753174.422    -2706044.111 6  -2048809.93721        12.250           0.469
  23956684.148    -1755366.983 5  -1254137.93021         9.000           0.344
  20732892.539     -176048.367 7   -134239.46422        20.500           1.625
 91  5 15 18 37  0.0000000  0  5G18G 2G11G16G19
  20961503.398     1492631.141 7   1150795.57722        22.750           2.156
  23283451.469    -3891090.101 6  -2951335.58521        13.500           0.688
  23747077.055    -2738086.057 6  -2073777.58621        12.500           0.500
  23950828.617    -1786125.719 5  -1278105.73921         8.750           0.344
  20732800.641     -176544.697 6   -134626.22222        19.000           1.594
 91  5 15 18 37 15.0000000  0  5G18G 2G11G16G19
  20965953.422     1516016.612 7   1169017.99122        22.500           2.156
  23274173.586    -3939845.638 6  -2989326.81321        12.750           0.844
  23740995.977    -2770042.240 6  -2098678.44921        12.750           0.500
  23944996.422    -1816784.691 5  -1301995.81921         9.000           0.313
  20732709.344     -177010.774 7   -134989.40122        20.500           1.594
 91  5 15 18 37 30.0000000  0  5G18G 2G11G16G19
  20970420.797     1539490.177 7   1187309.04722        22.750           2.156
  23264901.906    -3988563.268 6  -3027288.48921        13.500           0.750
  23734932.992    -2801908.928 6  -2123509.53921        12.750           0.500
  23939181.836    -1847340.283 5  -1325805.37121         8.500           0.281
  20732630.172     -177443.384 6   -135326.50122        19.250           1.625
 91  5 15 18 37 45.0000000  0  5G18G 2G11G16G19
  20974904.109     1563048.827 7   1205666.40622        22.750           2.188
  23255639.664    -4037246.065 6  -3065223.03621        13.500           0.813
  23728887.180    -2833688.825 6  -2148273.01421        12.750           0.500
  23933388.586    -1877795.380 5  -1349536.56521         8.250           0.281
  20732551.055     -177845.530 7   -135639.86422        20.000           1.625
 91  5 15 18 38  0.0000000  0  5G18G 2G11G16G19
  20979403.117     1586695.697 7   1224092.50522        22.750           2.188
  23246381.766    -4085890.589 6  -3103127.75221        13.250           0.781
  23722853.906    -2865378.580 6  -2172966.25421        12.750           0.563
  23927610.141    -1908146.766 5  -1373186.97321         8.750           0.313
  20732482.375     -178214.074 6   -135927.04322        19.250           1.813
 91  5 15 18 38 15.0000000  0  5G18G 2G11G16G19
  20983919.930     1610430.811 7   1242587.36922        23.000           2.125
  23237132.633    -4134496.763 6  -3141002.58421        13.750           0.781
  23716843.133    -2896977.851 6  -2197588.97621        13.000           0.438
  23921854.516    -1938394.233 5  -1396756.41021         9.000           0.375
  20732417.398     -178549.109 7   -136188.11422        20.000           1.750
 91  5 15 18 38 30.0000000  0  5G18G 2G11G16G19
  20988453.227     1634252.524 7   1261149.71022        22.750           2.250
  23227891.031    -4183065.724 6  -3178848.42221        14.000           0.656
  23710844.367    -2928487.587 6  -2222141.95121        12.500           0.500
  23916116.727    -1968538.563 5  -1420245.48421         8.750           0.281
  20732363.961     -178852.043 6   -136424.16722        19.250           1.625
 91  5 15 18 38 45.0000000  0  5G18G 2G11G16G19
  20993003.242     1658164.325 7   1279782.25022        22.750           2.188
  23218655.055    -4231593.736 6  -3216662.36421        13.750           0.906
  23704866.008    -2959904.023 6  -2246622.19721        12.500           0.531
  23910402.773    -1998576.187 5  -1443651.40621         9.000           0.375
  20732308.594     -179119.573 7   -136632.64022        20.000           1.656
 91  5 15 18 39  0.0000000  0  6G18G 2G11G16G19G 6
  20997570.742     1682163.363 7   1298482.76622        23.000           2.063
  23209428.578    -4280083.639 6  -3254446.60321        14.000           0.781
  23698904.570    -2991229.511 6  -2271031.59121        12.750           0.438
  23904705.281    -2028509.883 5  -1466976.32321         8.750           0.281
  20732267.836     -179354.478 6   -136815.68522        18.500           1.625
  24466520.805          -0.66713                         5.500
 91  5 15 18 39 15.0000000  0  6G18G 2G11G16G19G 6
  21002153.898     1706249.568 7   1317251.20722        23.000           2.219
  23200208.117    -4328535.341 6  -3292201.07621        14.000           0.781
  23692960.625    -3022463.817 6  -2295369.93021        12.750           0.531
  23899031.391    -2058339.264 5  -1490219.97321         9.000           0.281
  20732223.961     -179556.766 6   -136973.31922        19.750           1.750
  24459158.609      -38698.016 3                         5.500
 91  5 15 18 39 30.0000000  0  6G18G 2G11G16G19G 6
  21006755.453     1730427.546 7   1336091.15522        23.000           2.313
  23190995.531    -4376943.653 6  -3329921.74521        14.500           0.875
  23687035.570    -3053601.923 6  -2319633.29721        12.250           0.563
  23893373.477    -2088059.613 5  -1513378.65621         9.000           0.281
  20732196.922     -179721.714 6   -137101.85522        18.500           1.688
  24451799.719      -77384.150 3        -0.31731         6.000           0.313
 91  5 15 18 39 45.0000000  0  6G18G 2G11G16G19G 6
  21011371.938     1754695.729 7   1355001.39822        23.000           2.156
  23181792.188    -4425310.085 6  -3367609.77821        14.000           0.781
  23681130.109    -3084644.833 6  -2343822.49821        12.500           0.406
  23887738.867    -2117672.367 5  -1536453.52721         9.000           0.469
  20732168.883     -179850.804 6                        19.750
  24444435.492     -116060.548 3    -30137.73121         5.750           0.188
 91  5 15 18 40  0.0000000  0  6G18G 2G11G16G19G 6
  21016008.609     1779054.038 7   1373981.86322        23.250           2.219
  23172596.313    -4473634.276 6  -3405264.89221        13.750           0.938
  23675239.586    -3115592.041 6  -2367937.12221        12.500           0.438
  23882123.313    -2147177.009 5  -1559444.11421         9.000           0.250
  20732152.570     -179943.669 6                        18.500
  24437078.320     -154726.975 3    -60267.30521         5.500           0.281
 91  5 15 18 40 15.0000000  0  6G18G 2G11G16G19G 6
  21020659.922     1803500.442 7   1393030.97922        23.000           2.313
  23163407.844    -4521918.037 6  -3442888.51221        14.250           0.813
  23669368.258    -3146445.342 6  -2391978.57421        12.250           0.438
  23876529.227    -2176575.563 5  -1582352.07021         9.250           0.250
  20732140.945     -180002.458 6                        19.750
  24429723.781     -193385.698 3    -90390.92221         6.000           0.344
 91  5 15 18 40 30.0000000  0  6G18G 2G11G16G19G 6
  21025329.516     1828036.700 7   1412150.10822        23.250           2.375
  23154227.344    -4570159.560 6  -3480479.21921        14.250           0.875
  23663516.625    -3177202.525 6  -2415945.13321        12.500           0.406
  23870956.758    -2205865.569 5  -1605175.43021         9.000           0.313
  20732141.219     -180025.401 6                        18.000
  24422366.984     -232034.726 3   -120506.92321         5.500           0.313
 91  5 15 18 40 45.0000000  0  6G18G 2G11G16G19G 6
  21030016.727     1852669.690 7   1431344.61022        23.250           2.281
  23145057.352    -4618351.604 6  -3518031.37121        14.250           0.906
  23657682.023    -3207856.236 6  -2439831.06821        12.000           0.500
  23865403.203    -2235040.066 5  -1627908.77321         9.500           0.313
  20732140.219     -180005.603 6                        19.500
  24415018.102     -270667.232 3   -150610.07821         5.750           0.344
 91  5 15 18 41  0.0000000  0  6G18G 2G11G16G19G 6
  21034722.211     1877395.517 7   1450611.45422        23.250           2.438
  23135895.703    -4666497.701 6  -3555547.71321        14.250           0.875
  23651867.523    -3238410.009 5  -2463639.11021        11.750           0.563
  23859874.273    -2264102.421 5  -1650554.75921         9.500           0.344
  20732152.266     -179946.709 6                        18.500
  24407665.992     -309286.947 3   -180703.28021         5.500           0.281
 91  5 15 18 41 15.0000000  0  6G18G 2G11G16G19G 6
  21039445.656     1902212.981 7   1469949.70322        23.000           2.469
  23126742.234    -4714598.961 6  -3593029.12921        14.000           0.844
  23646073.188    -3268864.747 5  -2487370.00021        11.750           0.469
  23854364.359    -2293053.841 5  -1673114.27721         9.250           0.375
  20732170.703     -179850.194 6                        19.500
  24400318.430     -347895.199 3   -210787.54121         5.750           0.375
 91  5 15 18 41 30.0000000  0  6G18G 2G11G16G19G 6
  21044184.281     1927117.530 7   1489355.81022        23.000           2.438
  23117596.945    -4762659.594 6  -3630478.88921        14.500           0.844
  23640297.203    -3299224.465 5  -2511026.85321        11.750           0.406
  23848877.258    -2321898.613 5  -1695590.70821         9.250           0.406
  20732196.961     -179720.404 6                        18.750
  24392973.070     -386496.500 3   -240866.41221         5.500           0.375
 91  5 15 18 41 45.0000000  0  6G18G 2G11G16G19G 6
  21048940.023     1952108.165 7   1508828.99623        23.000           2.531
  23108458.359    -4810680.097 6  -3667897.38021        14.500           0.875
  23634533.547    -3329489.458 5  -2534609.87821        11.500           0.438
  23843405.125    -2350637.236 5  -1717984.42321         9.250           0.313
  20732223.664     -179557.999 6                        19.750
  24385634.750     -425091.577 3   -270940.38321         6.000           0.406
 91  5 15 18 42  0.0000000  0  6G18G 2G11G16G19G 6
  21053712.547     1977192.787 7   1528375.42023        22.750           2.500
  23099329.500    -4858652.565 6  -3705278.42421        14.250           0.969
  23628797.891    -3359651.630 5  -2558112.78721        11.750           0.563
  23837959.648    -2379261.684 5  -1740289.18721         9.500           0.344
  20732266.430     -179355.335 6                        19.250
  24378288.898     -463672.556 3   -301003.39921         5.500           0.375
 91  5 15 18 42 15.0000000  0  6G18G 2G11G16G19G 6
  21058503.148     2002368.573 7   1547992.87223        22.750           2.531
  23090209.836    -4906579.438 6  -3742623.95621        14.500           0.938
  23623075.180    -3389713.260 5  -2581537.35321        11.500           0.438
  23832532.508    -2407774.657 5  -1762507.05721         9.500           0.344
  20732309.789     -179115.027 6   -136629.17122        19.750           1.813
  24370950.672     -502242.150 4   -331057.49121         6.250           0.219
 91  5 15 18 42 30.0000000  0  6G18G 2G11G16G19G 6
  21063312.250     2027636.941 7   1567682.47523        22.500           2.563
  23081098.000    -4954459.359 6  -3779932.89621        14.500           0.875
  23617374.352    -3419672.852 5  -2604882.42121        11.500           0.500
  23827129.461    -2436174.488 5  -1784636.78521         9.750           0.281
  20732364.438     -178835.896 6   -136411.67422        19.000           1.813
  24363610.430     -540799.177 3   -361101.85121         5.750           0.406
 91  5 15 18 42 45.0000000  0  6G18G 2G11G16G19G 6
  21068137.844     2052997.746 7   1587444.10123        22.250           2.594
  23071994.805    -5002291.872 6  -3817204.90221        14.500           0.938
  23611692.609    -3449529.898 5  -2628147.57021        11.750           0.563
  23821745.656    -2464460.815 5  -1806678.08421         9.750           0.375
  20732424.148     -178517.623 7   -136163.67822        20.000           1.781
  24356275.859     -579343.424 3   -391136.20521         5.750           0.469
 91  5 15 18 43  0.0000000  0  6G18G 2G11G16G19G 6
  21072983.141     2078456.785 7   1607282.27522        22.250           2.469
  23062903.977    -5050070.948 6  -3854435.26421        14.500           1.000
  23606031.672    -3479278.193 6  -2651327.99021        12.250           0.469
  23816387.391    -2492627.645 5  -1828626.24721         9.750           0.344
  20732494.977     -178154.415 6   -135880.66722        19.000           1.813
  24348942.672     -617869.198 3   -421156.18621         5.500           0.281
 91  5 15 18 43 15.0000000  0  6G18G 2G11G16G19G 6
  21077845.945     2104010.566 7   1627194.27823        21.750           2.563
  23053820.578    -5097799.599 6  -3891626.32921        14.500           0.906
  23600388.836    -3508920.618 6  -2674425.90821        12.250           0.500
  23811049.547    -2520678.077 5  -1850483.71521        10.000           0.375
  20732571.227     -177749.489 7   -135565.14422        20.250           1.813
  24341619.258     -656379.638 4   -451164.16921         6.250           0.375
 91  5 15 18 43 30.0000000  0  6G18G 2G11G16G19G 6
  21082726.039     2129657.758 7   1647179.06323        22.000           2.531
  23044747.820    -5145479.029 6  -3928779.04621        14.500           1.031
  23594769.563    -3538457.984 6  -2697441.95121        12.750           0.469
  23805734.211    -2548612.907 5  -1872251.08521         9.750           0.406
  20732659.320     -177304.076 6   -135218.08122        18.000           1.781
  24334292.711     -694876.033 3   -481161.26021         6.000           0.438
 91  5 15 18 43 45.0000000  0  6G18G 2G11G16G19G 6
  21087624.992     2155401.517 7   1667239.09723        22.000           2.563
  23035684.180    -5193106.182 6  -3965891.02321        14.500           0.969
  23589169.844    -3567887.220 6  -2720373.75821        12.500           0.438
  23800440.258    -2576429.176 5  -1893926.08721         9.500           0.313
  20732747.320     -176815.334 6   -134837.25522        19.500           1.813
  24326970.234     -733355.636 3   -511145.27621         6.000           0.344
 91  5 15 18 44  0.0000000  0  6G18G 2G11G16G19G 6
  21092541.719     2181239.174 7   1687372.29923        21.750           2.531
  23026631.336    -5240683.365 6  -4002964.06221        14.000           0.875
  23583589.344    -3597210.348 6  -2743222.87321        12.750           0.406
  23795170.523    -2604129.214 5  -1915510.52021         9.750           0.469
  20732851.953     -176285.717 6   -134424.57322        18.500           1.813
  24319649.273     -771820.859 4   -541118.08321         6.250           0.406
 91  5 15 18 44 15.0000000  0  6G18G 2G11G16G19G 6
  21097476.305     2207170.953 7   1707578.83822        21.750           2.438
  23017586.406    -5288209.736 6  -4039997.51121        14.250           0.938
  23578029.234    -3626426.618 6  -2765988.73221        12.500           0.500
  23789921.305    -2631712.289 5  -1937003.81721         9.500           0.406
  20732955.031     -175714.682 6   -133979.62522        19.500           1.750
  24312331.906     -810271.248 3   -571079.34221         6.000           0.406
 91  5 15 18 44 30.0000000  0  6G18G 2G11G16G19G 6
  21102428.578     2233196.334 7   1727858.31423        21.750           2.500
  23008552.977    -5335685.588 6  -4076991.59621        14.500           0.969
  23572491.641    -3655536.105 6  -2788671.38121        12.750           0.438
  23784695.625    -2659178.616 5  -1958406.12821         9.750           0.375
  20733075.586     -175102.672 6   -133502.74222        18.750           1.719
  24305020.000     -848707.141 4   -601029.27921         6.250           0.281
 91  5 15 18 44 45.0000000  0  6G18G 2G11G16G19G 6
  21107400.094     2259314.567 7   1748210.14523        22.000           2.500
  22999527.242    -5383111.628 6  -4113946.86121        14.000           0.938
  23566971.289    -3684539.135 6  -2811271.07721        12.500           0.469
  23779488.641    -2686528.821 5  -1979717.97421         9.750           0.406
  20733196.547     -174450.532 6   -132994.59322        19.500           1.844
  24297706.180     -887129.346 4   -630968.58021         6.250           0.375
 91  5 15 18 45  0.0000000  0  6G18G 2G11G16G19G 6
  21112387.055     2285526.355 7   1768634.87023        21.750           2.500
  22990512.281    -5430487.303 6  -4150862.87921        14.000           1.063
  23561472.602    -3713434.934 6  -2833787.22121        12.750           0.469
  23774307.750    -2713762.426 5  -2000938.96721         9.500           0.438
  20733329.617     -173757.900 6   -132454.88922        19.000           1.813
  24290398.188     -925537.426 4   -660896.86721         6.500           0.344
 91  5 15 18 45 15.0000000  0  6G18G 2G11G16G19G 6
  21117393.164     2311831.244 7   1789132.14222        21.750           2.406
  22981506.430    -5477812.266 6  -4187739.39421        14.250           0.875
  23555993.602    -3742223.301 6  -2856219.64621        12.750           0.438
  23769147.102    -2740879.057 5  -2022068.80221         9.500           0.406
  20733468.844     -173024.738 6   -131883.60522        19.500           1.688
  24283091.016     -963931.596 3   -690814.29021         5.750           0.313
 91  5 15 18 45 30.0000000  0  6G18G 2G11G16G19G 6
  21122416.969     2338230.117 7   1809702.65222        22.000           2.438
  22972510.391    -5525085.390 6  -4224575.49721        13.750           0.938
  23550536.492    -3770902.864 6  -2878567.29721        13.250           0.469
  23764008.281    -2767877.561 5  -2043106.57421         9.500           0.313
  20733620.797     -172249.808 6   -131279.77422        18.000           1.906
  24275789.766    -1002310.712 4   -720719.97521         6.500           0.375
 91  5 15 18 45 45.0000000  0  6G18G 2G11G16G19G 6
  21127457.648     2364721.915 7   1830345.57022        22.250           2.469
  22963524.516    -5572307.475 6  -4261371.82921        14.250           0.938
  23545101.102    -3799474.292 6  -2900830.67721        13.000           0.500
  23758893.172    -2794758.843 5  -2064053.03221         9.250           0.313
  20733771.523     -171434.093 6   -130644.16422        19.500           1.906
  24268487.234    -1040675.864 4   -750614.83021         6.750           0.281
 91  5 15 18 46  0.0000000  0  6G18G 2G11G16G19G 6
  21132517.461     2391310.694 7   1851064.05522        22.250           2.406
  22954548.461    -5619474.215 6  -4298125.05421        13.750           0.938
  23539686.398    -3827933.122 6  -2923006.33721        13.500           0.563
  23753800.203    -2821518.547 5  -2084904.72621         9.500           0.438
  20733935.875     -170573.853 6   -129973.85422        18.750           1.875
  24261191.750    -1079022.963 4   -780495.59321         6.750           0.219
 91  5 15 18 46 15.0000000  0  6G18G 2G11G16G19G 6
  21137594.563     2417994.969 7   1871856.95522        22.500           2.250
  22945584.141    -5666586.690 6  -4334835.97621        14.250           0.938
  23534291.945    -3856280.284 6  -2945094.97921        13.250           0.406
  23748731.844    -2848157.567 5  -2105662.38621         9.250           0.375
  20734108.125     -169670.080 6   -129269.62122        19.500           1.875
  24253894.570    -1117353.356 4   -810363.32621         6.250           0.375
 91  5 15 18 46 30.0000000  0  6G18G 2G11G16G19G 6
  21142690.688     2444771.612 7   1892721.82923        23.000           2.500
  22936627.844    -5713647.951 6  -4371507.00021        14.000           1.031
  23528915.266    -3884518.451 6  -2967098.68021        13.000           0.406
  23743684.875    -2874679.129 5  -2126328.54521         9.500           0.375
  20734288.766     -168725.928 6   -128533.92722        18.250           1.938
  24246605.430    -1155670.106 4   -840220.41521         6.750           0.219
 91  5 15 18 46 45.0000000  0  6G18G 2G11G16G19G 6
  21147803.594     2471639.456 7   1913657.76822        23.250           2.469
  22927681.922    -5760658.879 6  -4408138.80121        13.750           0.969
  23523565.305    -3912648.328 6  -2989018.00421        13.000           0.469
  23738659.617    -2901083.888 5  -2146903.67921         9.250           0.375
  20734474.938     -167742.415 6   -127767.55822        19.000           1.813
  24239315.523    -1193974.287 4   -870067.75521         6.750           0.313
 91  5 15 18 47  0.0000000  0  6G18G 2G11G16G19G 6
  21152935.406     2498601.580 7   1934667.17322        23.500           2.406
  22918745.383    -5807616.158 6  -4444728.80421        14.000           0.969
  23518232.563    -3940666.735 6  -3010850.48721        12.500           0.438
  23733659.656    -2927368.508 5  -2167385.17921         9.000           0.406
  20734674.781     -166716.515 6   -126968.16922        17.250           1.813
  24232030.516    -1232262.818 4   -899902.89221         6.750           0.344
 91  5 15 18 47 15.0000000  0  6G18G 2G11G16G19G 6
  21158082.820     2525658.078 7   1955750.11222        23.750           2.406
  22909820.586    -5854519.377 6  -4481276.69021        14.000           0.969
  23512919.992    -3968573.085 6  -3032595.62621        12.000           0.469
  23728681.063    -2953532.714 5  -2187772.85421         9.000           0.438
  20734871.883     -165647.977 6   -126135.54922        18.500           1.875
  24224745.719    -1270535.565 4   -929725.72121         6.250           0.344
 91  5 15 18 47 30.0000000  0  6G18G 2G11G16G19G 6
  21163249.586     2552804.992 7   1976903.50422        24.000           2.406
  22900905.273    -5901371.830 6  -4517784.99621        13.750           0.969
  23507631.703    -3996370.489 6  -3054255.89521        12.000           0.438
  23723724.359    -2979579.951 5  -2208069.39721         9.000           0.406
  20735088.711     -164540.386 6   -125272.50122        17.000           1.906
  24217467.602    -1308796.033 4   -959538.96521         6.500           0.250
 91  5 15 18 47 45.0000000  0  6G18G 2G11G16G19G 6
  21168432.398     2580043.493 7   1998128.26722        23.750           2.375
  22891998.719    -5948172.377 6  -4554252.87121        14.250           1.000
  23502363.359    -4024057.620 6  -3075830.22321        12.000           0.563
  23718787.375    -3005508.827 5  -2228273.70121         8.750           0.500
  20735301.156     -163392.762 6   -124378.25822        18.500           1.906
  24210188.055    -1347043.196 4   -989341.86721         6.750           0.375
 91  5 15 18 48  0.0000000  0  6G18G 2G11G16G19G 6
  21173633.727     2607374.412 7   2019425.03722        24.250           2.344
  22883103.188    -5994919.995 6  -4590679.50721        14.500           0.906
  23497115.469    -4051633.244 5  -3097317.67421        11.750           0.625
  23713877.500    -3031318.546 5  -2248385.14821         8.750           0.375
  20735533.516     -162204.106 6   -123452.03722        17.000           1.781
  24202912.695    -1385276.240 4  -1019133.72821         7.000           0.344
 91  5 15 18 48 15.0000000  0  6G18G 2G11G16G19G 6
  21178852.594     2634801.544 7   2040796.78422        24.000           2.313
  22874217.055    -6041610.836 6  -4627061.90421        13.750           1.031
  23491890.578    -4079093.258 6  -3118715.03621        12.000           0.500
  23708989.781    -3057004.933 5  -2268400.49721         9.000           0.375
  20735762.492     -160970.655 6   -122490.91822        18.750           1.844
  24195639.781    -1423491.478 4  -1048911.73421         6.750           0.219
 91  5 15 18 48 30.0000000  0  6G18G 2G11G16G19G 6
  21184090.891     2662323.662 7   2062242.54322        24.250           2.313
  22865344.586    -6088245.674 6  -4663400.64021        14.250           1.094
  23486685.828    -4106438.496 5  -3140022.96521        11.750           0.531
  23704124.953    -3082569.025 5  -2288320.55821         8.750           0.469
  20736007.969     -159693.427 6   -121495.68422        17.750           1.781
  24188370.680    -1461689.866 4  -1078676.60821         6.750           0.313
 91  5 15 18 48 45.0000000  0  6G18G 2G11G16G19G 6
  21189345.203     2689938.496 7   2083760.54522        24.000           2.406
  22856479.422    -6134826.359 6  -4699697.20621        14.250           0.969
  23481503.320    -4133670.681 5  -3161242.80021        11.750           0.500
  23699283.250    -3108012.554 5  -2308146.66221         9.000           0.406
  20736256.539     -158374.501 6   -120467.95622        18.500           1.906
  24181104.180    -1499873.527 4  -1108430.00621         6.500           0.281
 91  5 15 18 49  0.0000000  0  6G18G 2G11G16G19G 6
  21194618.570     2717644.846 7   2105349.86322        24.750           2.344
  22847624.734    -6181354.106 6  -4735952.51121        14.000           1.063
  23476341.820    -4160790.795 5  -3182375.31121        11.500           0.469
  23694463.375    -3133336.775 5  -2327879.84321         8.500           0.344
  20736520.461     -157015.278 6   -119408.82922        17.250           1.875
  24173842.406    -1538043.695 5  -1138172.91121         7.500           0.375
 91  5 15 18 49 15.0000000  0  6G18G 2G11G16G19G 6
  21199907.531     2745444.943 7   2127012.23122        24.500           2.281
  22838783.297    -6227826.283 6  -4772164.51421        14.500           0.969
  23471204.898    -4187796.079 6  -3203418.33921        12.000           0.500
  23689666.758    -3158539.366 5  -2347518.20921         9.000           0.438
  20736781.773     -155613.218 6   -118316.32322        18.500           1.844
  24166580.641    -1576198.186 4  -1167903.58021         7.250           0.313
 91  5 15 18 49 30.0000000  0  6G18G 2G11G16G19G 6
  21205216.766     2773338.355 7   2148747.30522        24.750           2.375
  22829949.703    -6274243.061 6  -4808333.35321        14.500           1.031
  23466087.578    -4214686.444 6  -3224371.82021        12.000           0.563
  23684895.391    -3183620.182 5  -2367061.69421         9.250           0.406
  20737059.984     -154168.708 6   -117190.73722        17.750           1.781
  24159321.891    -1614337.182 4  -1197622.15121         6.750           0.250
 91  5 15 18 49 45.0000000  0  6G18G 2G11G16G19G 6
  21210541.336     2801324.379 7   2170554.54822        24.500           2.344
  22821126.641    -6320604.914 6  -4844459.39721        14.750           1.031
  23460991.813    -4241462.156 6  -3245235.96821        12.250           0.531
  23680144.055    -3208579.478 5  -2386510.49121         8.500           0.375
  20737340.828     -152682.216 6   -116032.44622        18.750           1.875
  24152066.328    -1652461.381 4  -1227329.22221         6.750           0.219
 91  5 15 18 50  0.0000000  0  6G18G 2G11G16G19G 6
  21215884.195     2829400.155 7   2192431.72622        24.250           2.313
  22812314.344    -6366914.449 6  -4880544.66921        14.500           1.000
  23455917.531    -4268125.614 6  -3266012.63421        12.250           0.563
  23675419.656    -3233419.969 5  -2405866.69821         9.250           0.313
  20737633.961     -151156.395 6   -114843.50522        17.500           1.688
  24144816.914    -1690573.476 5  -1257026.86221         7.500           0.344
 91  5 15 18 50 15.0000000  0  6G18G 2G11G16G19G 6
  21221244.828     2857569.975 7   2214382.18222        24.250           2.344
  22803512.211    -6413166.880 6  -4916585.44621        14.750           1.000
  23450866.063    -4294672.096 6  -3286698.14221        12.750           0.469
  23670715.570    -3258137.000 5  -2425126.71621         9.000           0.406
  20737928.797     -149586.911 6   -113620.54022        18.750           1.844
  24137563.875    -1728668.983 4  -1286711.59821         7.000           0.250
 91  5 15 18 50 30.0000000  0  6G18G 2G11G16G19G 6
  21226623.359     2885834.714 7   2236406.60722        23.750           2.438
  22794722.781    -6459361.023 6  -4952580.80621        15.250           1.000
  23445837.914    -4321100.423 6  -3307291.59721        12.750           0.594
  23666036.500    -3282729.724 5  -2444289.88221         9.500           0.406
  20738238.969     -147972.718 6   -112362.74122        17.750           1.813
  24130319.359    -1766747.013 4  -1316382.64921         7.000           0.313
 91  5 15 18 50 45.0000000  0  6G18G 2G11G16G19G 6
  21232019.609     2914194.653 7   2258505.20922        23.500           2.406
  22785943.625    -6505496.428 6  -4988530.40721        15.000           1.188
  23440831.922    -4347409.753 6  -3327792.31921        13.250           0.594
  23661378.148    -3307197.276 5  -2463355.49321         9.000           0.375
  20738552.047     -146313.357 6   -111069.74122        18.750           2.000
  24123076.258    -1804807.145 4  -1346039.78221         7.000           0.188
 91  5 15 18 51  0.0000000  0  6G18G 2G11G16G19G 6
  21237434.766     2942645.585 7   2280674.71522        23.750           2.375
  22777172.883    -6551577.069 6  -5024437.32321        14.500           1.250
  23435847.211    -4373603.860 6  -3348203.25621        13.500           0.594
  23656747.344    -3331543.429 5  -2482326.50621         9.500           0.281
  20738880.414     -144612.920 6   -109744.73522        18.000           1.875
  24115838.023    -1842853.487 5  -1375686.20821         8.000           0.250
 91  5 15 18 51 15.0000000  0  6G18G 2G11G16G19G 6
  21242865.938     2971189.963 7   2302917.03622        23.500           2.344
  22768416.492    -6597600.306 6  -5060299.51121        15.500           1.125
  23430883.648    -4399680.088 6  -3368522.34021        13.750           0.594
  23652136.859    -3355765.981 5  -2501201.21521         9.250           0.438
  20739206.820     -142868.964 6   -108385.82322        18.500           1.938
  24108599.570    -1880883.680 5  -1405320.02021         7.750           0.250
 91  5 15 18 51 30.0000000  0  6G18G 2G11G16G19G 6
  21248315.930     2999828.587 7   2325232.79622        23.500           2.344
  22759669.703    -6643565.193 6  -5096116.25021        15.250           1.125
  23425944.984    -4425637.314 6  -3388748.70221        13.500           0.625
  23647552.414    -3379863.739 5  -2519978.68021         9.000           0.500
  20739552.898     -141080.700 6   -106992.38022        17.500           2.000
  24101367.164    -1918896.980 4  -1434940.69121         7.250           0.281
 91  5 15 18 51 45.0000000  0  6G18G 2G11G16G19G 6
  21253784.578     3028563.057 7   2347623.24422        23.250           2.313
  22750933.820    -6689469.328 6  -5131885.63221        15.250           1.094
  23421029.398    -4451473.190 6  -3408880.48921        13.750           0.563
  23642991.039    -3403834.453 5  -2538657.14521         9.500           0.500
  20739897.445     -139246.191 6   -105562.90022        18.750           1.875
  24094136.805    -1956891.268 5  -1464546.52121         7.750           0.313
 91  5 15 18 52  0.0000000  0  6G18G 2G11G16G19G 6
  21259269.313     3057390.337 7   2370086.01322        23.000           2.156
  22742210.109    -6735315.651 6  -5167609.96021        15.500           1.094
  23416134.727    -4477190.337 6  -3428919.77821        14.000           0.594
  23638450.688    -3427680.881 5  -2557238.76221         9.250           0.375
  20740256.703     -137368.483 6   -104099.76322        17.750           1.844
  24086909.984    -1994869.662 5  -1494139.96321         7.500           0.313
 91  5 15 18 52 15.0000000  0  6G18G 2G11G16G19G 6
  21264773.258     3086312.169 7   2392622.45022        23.000           2.313
  22733496.656    -6781102.526 6  -5203287.98221        15.750           1.094
  23411265.094    -4502787.000 6  -3448865.16821        14.000           0.688
  23633938.164    -3451401.604 5  -2575722.42921         9.500           0.375
  20740619.852     -135446.015 6   -102601.74822        18.750           1.906
  24079686.828    -2032830.606 5  -1523719.80721         8.000           0.313
 91  5 15 18 52 30.0000000  0  6G18G 2G11G16G19G 6
  21270293.797     3115323.720 7   2415228.80322        22.750           2.188
  22724793.875    -6826834.301 6  -5238923.06321        15.750           1.094
  23406415.273    -4528267.409 6  -3468719.97621        14.000           0.594
  23629446.711    -3475000.853 5  -2594111.43921         9.250           0.344
  20740996.086     -133483.123 6   -101072.23122        17.750           1.906
  24072463.617    -2070778.659 5  -1553289.63321         7.750           0.219
 91  5 15 18 52 45.0000000  0  6G18G 2G11G16G19G 6
  21275832.742     3144430.276 7   2437909.18922        22.750           2.313
  22716103.000    -6872505.314 6  -5274510.79921        15.500           1.156
  23401589.281    -4553625.778 6  -3488479.69421        14.000           0.594
  23624981.914    -3498473.363 5  -2612401.69921         9.750           0.344
  20741376.055     -131474.364 6    -99506.97322        18.750           1.938
  24065244.750    -2108708.378 5  -1582845.16021         7.750           0.313
 91  5 15 18 53  0.0000000  0  6G18G 2G11G16G19G 6
  21281389.195     3173627.887 7   2460660.52422        22.250           2.281
  22707424.547    -6918119.027 6  -5310053.87721        16.000           1.125
  23396787.266    -4578865.402 6  -3508146.87021        14.000           0.625
  23620537.984    -3521822.332 5  -2630595.71021         9.250           0.469
  20741772.023     -129423.337 6    -97908.77622        17.250           2.000
  24058033.023    -2146623.380 5  -1612389.20321         8.500           0.281
 91  5 15 18 53 15.0000000  0  6G18G 2G11G16G19G 6
  21286962.523     3202918.028 7   2483483.95622        22.250           2.188
  22698754.430    -6963673.941 6  -5345551.14821        16.000           1.156
  23392005.961    -4603984.823 6  -3527720.40221        13.750           0.688
  23616116.844    -3545046.456 5  -2648692.43121         9.500           0.469
  20742163.984     -127328.842 6    -96276.71622        18.750           1.938
  24050818.656    -2184522.528 5  -1641920.94421         8.000           0.313
 91  5 15 18 53 30.0000000  0  6G18G 2G11G16G19G 6
  21292553.188     3232301.298 7   2506379.96222        22.000           2.156
  22690096.359    -7009169.154 6  -5381001.90321        15.750           1.250
  23387249.609    -4628982.818 6  -3547199.30521        13.750           0.688
  23611723.242    -3568144.663 5  -2666691.05921        10.000           0.531
  20742574.156     -125189.963 6    -94610.06522        18.000           1.938
  24043609.656    -2222404.974 5  -1671439.61821         8.000           0.281
 91  5 15 18 53 45.0000000  0  6G18G 2G11G16G19G 6
  21298164.164     3261777.900 7   2529348.68322        22.250           2.156
  22681451.172    -7054604.193 6  -5416405.76121        16.000           1.125
  23382515.336    -4653858.769 6  -3566583.11021        13.500           0.688
  23607351.766    -3591116.362 5  -2684591.08821         9.750           0.469
  20742987.719     -123006.386 6    -92908.58722        18.750           1.969
  24036403.719    -2260270.312 5  -1700944.98921         8.250           0.344
 91  5 15 18 54  0.0000000  0  6G18G 2G11G16G19G 6
  21303789.484     3291345.806 7   2552388.56422        22.250           2.250
  22672816.070    -7099980.831 6  -5451764.11321        16.000           1.313
  23377804.461    -4678614.297 6  -3585873.09021        13.250           0.531
  23603004.008    -3613963.418 5  -2702393.98221         9.500           0.375
  20743412.813     -120779.995 6    -91173.74722        18.000           1.781
  24029202.836    -2298120.539 5  -1730438.60521         8.500           0.281
 91  5 15 18 54 15.0000000  0  6G18G 2G11G16G19G 6
  21309434.820     3321007.087 7   2575501.20322        22.250           2.219
  22664193.828    -7145296.853 6  -5487075.23221        16.250           1.250
  23373116.969    -4703247.173 6  -3605067.48621        13.000           0.656
  23598681.289    -3636683.489 5  -2720097.92521        10.250           0.438
  20743843.164     -118508.890 6    -89404.06622        18.750           1.938
  24022000.609    -2335953.645 5  -1759918.85221         8.000           0.375
 91  5 15 18 54 30.0000000  0  6G18G 2G11G16G19G 6
  21315097.141     3350759.304 7   2598684.69522        22.250           2.188
  22655577.875    -7190553.869 6  -5522340.37721        16.250           1.156
  23368451.430    -4727758.862 6  -3624167.45521        13.000           0.625
  23594378.594    -3659278.544 5  -2737704.46121         9.500           0.438
  20744285.930     -116194.693 6    -87600.80622        18.000           1.938
  24014803.781    -2373771.559 5  -1789387.25921         8.250           0.344
 91  5 15 18 54 45.0000000  0  6G18G 2G11G16G19G 6
  21320775.438     3380602.269 7   2621938.90522        22.250           2.094
  22646978.641    -7235752.176 6  -5557559.76621        16.250           1.281
  23363807.188    -4752149.406 6  -3643173.02721        12.750           0.531
  23590104.234    -3681748.598 5  -2755213.58221         9.250           0.500
  20744731.609     -113837.901 6    -85764.35422        19.000           2.000
  24007612.281    -2411574.550 5  -1818844.05821         8.000           0.406
 91  5 15 18 55  0.0000000  0  6G18G 2G11G16G19G 6
  21326471.078     3410535.873 7   2645263.73822        22.250           2.156
  22638388.547    -7280891.706 6  -5592733.36421        16.500           1.313
  23359192.211    -4776418.596 6  -3662084.04121        13.000           0.594
  23585852.906    -3704093.655 5  -2772625.28621         9.750           0.438
  20745190.914     -111438.560 6    -83894.74822        17.750           1.875
  24000420.891    -2449362.874 5  -1848289.40621         8.500           0.406
 91  5 15 18 55 15.0000000  0  6G18G 2G11G16G19G 6
  21332186.055     3440567.547 7   2668664.99522        22.250           2.188
  22629812.977    -7325964.911 6  -5627855.27221        16.250           1.344
  23354599.086    -4800558.727 6  -3680894.50121        13.000           0.625
  23581624.906    -3726306.206 5  -2789933.79121         9.750           0.469
  20745654.695     -108989.069 6    -81986.06122        19.000           1.875
  23993234.016    -2487128.958 5  -1877717.46021         8.250           0.250
 91  5 15 18 55 30.0000000  0  6G18G 2G11G16G19G 6
  21337918.281     3470689.327 7   2692136.45822        22.250           2.156
  22621247.320    -7370979.175 6  -5662931.26021        16.500           1.375
  23350028.617    -4824577.217 6  -3699610.16221        13.000           0.563
  23577420.797    -3748393.751 5  -2807144.84721         9.250           0.406
  20746130.828     -106497.031 6    -80044.22422        18.250           1.844
  23986050.180    -2524880.550 5  -1907134.22621         8.000           0.281
 91  5 15 18 55 45.0000000  0  6G18G 2G11G16G19G 6
  21343666.883     3500902.640 7   2715679.24622        22.000           2.156
  22612691.789    -7415932.740 6  -5697959.95821        16.250           1.281
  23345479.156    -4848472.218 6  -3718229.60621        13.000           0.625
  23573242.555    -3770354.383 5  -2824257.00421         9.250           0.500
  20746612.078     -103960.992 6    -78068.10322        19.000           1.969
  23978869.375    -2562616.082 5  -1936538.45721         8.250           0.375
 91  5 15 18 56  0.0000000  0  6G18G 2G11G16G19G 6
  21349434.266     3531206.276 7   2739292.41522        22.500           2.344
  22604149.109    -7460826.443 6  -5732941.99621        16.750           1.313
  23340957.086    -4872244.271 6  -3736753.24921        13.250           0.625
  23569089.117    -3792189.011 5  -2841271.00321         9.750           0.438
  20747108.898     -101382.005 6    -76058.51422        16.750           1.875
  23971690.711    -2600336.544 5  -1965930.94721         8.250           0.438
 91  5 15 18 56 15.0000000  0  6G18G 2G11G16G19G 6
  21355218.367     3561601.907 7   2762977.27122        22.000           2.219
  22595617.383    -7505658.635 6  -5767876.11321        16.750           1.375
  23336458.234    -4895891.582 6  -3755179.68821        13.250           0.531
  23564955.500    -3813896.423 5  -2858185.88221         9.500           0.375
  20747601.883      -98758.362 6    -74014.12822        18.750           1.938
  23964517.484    -2638040.402 5  -1995310.50721         8.000           0.250
 91  5 15 18 56 30.0000000  0  6G18G 2G11G16G19G 6
  21361019.953     3592091.197 7   2786735.10622        22.000           2.156
  22587099.141    -7550427.379 6  -5802760.78221        16.750           1.406
  23331981.125    -4919412.246 6  -3773507.44221        13.750           0.500
  23560852.258    -3835474.678 5  -2875000.10421         9.250           0.469
  20748114.500      -96088.511 6    -71933.73522        18.000           1.875
  23957344.672    -2675726.024 5  -2024675.86821         8.000           0.344
 91  5 15 18 56 45.0000000  0  6G18G 2G11G16G19G 6
  21366838.875     3622671.360 7   2810563.74922        22.250           2.281
  22578590.328    -7595134.926 6  -5837597.77221        16.500           1.344
  23327529.039    -4942808.233 6  -3791738.04421        13.750           0.500
  23556770.211    -3856925.598 5  -2891715.10021         9.500           0.563
  20748626.266      -93374.718 6    -69819.10522        18.750           1.844
  23950176.398    -2713395.729 5  -2054028.81821         7.750           0.313
 91  5 15 18 57  0.0000000  0  6G18G 2G11G16G19G 6
  21372676.352     3653345.233 7   2834465.41622        21.750           2.281
  22570095.055    -7639778.616 6  -5872385.00121        17.000           1.406
  23323101.766    -4966076.781 6  -3809869.35321        13.750           0.625
  23552711.727    -3878246.556 5  -2908328.83021         9.750           0.438
  20749154.820      -90614.395 6    -67668.21822        18.250           2.000
  23943012.594    -2751047.039 5  -2083367.46321         7.750           0.344
 91  5 15 18 57 15.0000000  0  6G18G 2G11G16G19G 6
  21378531.055     3684110.299 7   2858438.13922        22.000           2.375
  22561611.859    -7684360.249 6  -5907123.87621        16.750           1.219
  23318696.828    -4989219.671 6  -3827902.73521        13.750           0.563
  23548679.094    -3899439.292 5  -2924842.65321         9.500           0.500
  20749686.023      -87809.509 6    -65482.60522        18.750           1.813
  23935851.703    -2788681.903 5  -2112693.25021         7.750           0.219
 91  5 15 18 57 30.0000000  0  6G18G 2G11G16G19G 6
  21384402.984     3714967.049 7   2882482.31022        22.000           2.313
  22553140.438    -7728879.074 6  -5941813.80321        16.500           1.281
  23314317.844    -5012235.826 6  -3845837.37321        14.250           0.594
  23544671.445    -3920503.471 5  -2941256.29521         9.250           0.531
  20750229.242      -84959.372 6    -63261.73422        18.500           1.844
  23928691.344    -2826299.778 5  -2142005.81521         7.500           0.344
 91  5 15 18 57 45.0000000  0  6G18G 2G11G16G19G 6
  21390293.367     3745916.825 7   2906598.96922        22.250           2.281
  22544681.383    -7773333.507 6  -5976453.56021        16.500           1.188
  23309962.805    -5035123.572 6  -3863671.94121        14.250           0.469
  23540688.656    -3941437.506 5  -2957568.50421         9.500           0.406
  20750777.734      -82062.657 6    -61004.55822        19.250           1.781
  23921537.609    -2863899.215 5  -2171303.99821         7.750           0.313
 91  5 15 18 58  0.0000000  0  6G18G 2G11G16G19G 6
  21396199.695     3776957.667 7   2930786.58222        22.250           2.375
  22536232.984    -7817725.234 6  -6011044.45521        16.250           1.344
  23305631.148    -5057884.682 6  -3881407.85021        14.250           0.563
  23536728.609    -3962242.923 5  -2973780.52521         9.500           0.406
  20751343.984      -79121.042 6    -58712.40622        17.750           2.000
  23914384.563    -2901482.067 5  -2200589.28621         7.750           0.438
 91  5 15 18 58 15.0000000  0  6G18G 2G11G16G19G 6
  21402123.445     3808088.694 7   2955044.46822        22.500           2.438
  22527797.734    -7862054.880 6  -6045586.97021        16.500           1.313
  23301324.820    -5080519.700 6  -3899045.49621        14.500           0.625
  23532794.563    -3982920.470 5  -2989892.88921         9.500           0.500
  20751906.680      -76135.642 6    -56386.13222        19.000           1.906
  23907238.672    -2939049.335 5  -2229862.38821         7.750           0.313
 91  5 15 18 58 30.0000000  0  6G18G 2G11G16G19G 6
  21408065.313     3839310.451 7   2979373.06022        22.500           2.469
  22519373.211    -7906321.641 6  -6080080.49621        16.250           1.344
  23297040.266    -5103027.601 6  -3916584.08821        14.000           0.563
  23528883.570    -4003469.410 5  -3005905.04321         9.500           0.438
  20752484.430      -73105.498 6    -54024.99322        18.500           1.875
  23900090.977    -2976600.242 5  -2259122.76721         7.500           0.375
 91  5 15 18 58 45.0000000  0  6G18G 2G11G16G19G 6
  21414023.164     3870620.369 7   3003770.34522        22.500           2.406
  22510961.328    -7950527.612 6  -6114526.63921        16.750           1.344
  23292783.414    -5125410.223 6  -3934025.06721        14.000           0.625
  23524997.797    -4023891.797 5  -3021818.59421         9.250           0.625
  20753068.617      -70032.861 6    -51630.74522        19.250           1.875
  23892947.766    -3014137.026 5  -2288372.13321         7.750           0.250
 91  5 15 18 59  0.0000000  0  6G18G 2G11G16G19G 6
  21419998.766     3902021.686 7   3028238.84522        22.500           2.406
  22502561.125    -7994669.520 6  -6148922.87721        16.500           1.281
  23288546.828    -5147664.310 6  -3951365.88521        14.000           0.656
  23521135.430    -4044184.289 5  -3037630.93321         9.750           0.438
  20753663.688      -66914.533 6    -49200.89122        18.500           1.844
  23885806.898    -3051656.533 5  -2317608.03621         7.500           0.469
 91  5 15 18 59 15.0000000  0  6G18G 2G11G16G19G 6
  21425991.906     3933515.310 7   3052779.27922        22.750           2.406
  22494173.039    -8038746.193 6  -6183268.28021        16.750           1.438
  23284336.781    -5169788.589 6  -3968605.55721        14.000           0.594
  23517296.977    -4064346.029 5  -3053341.38821         9.500           0.469
  20754262.641      -63749.601 6    -46734.72222        18.750           1.875
  23878671.961    -3089157.935 5  -2346829.82221         7.500           0.344
 91  5 15 18 59 30.0000000  0  6G18G 2G11G16G19G 6
  21432001.961     3965099.019 7   3077389.90622        22.500           2.344
  22485798.344    -8082759.364 6  -6217564.19321        16.750           1.313
  23280150.531    -5191784.745 6  -3985745.38721        13.750           0.719
  23513488.758    -4084378.669 5  -3068951.26021         9.500           0.531
  20754879.422      -60539.906 6    -44233.67422        17.250           1.938
  23871536.844    -3126643.117 5  -2376038.97521         7.750           0.375
 91  5 15 18 59 45.0000000  0  6G18G 2G11G16G19G 6
  21438029.203     3996770.946 7   3102069.27822        22.750           2.281
  22477434.188    -8126710.989 6  -6251812.15721        16.750           1.406
  23275989.844    -5213654.399 6  -4002786.65721        13.750           0.688
  23509698.508    -4104284.002 5  -3084461.92721         9.500           0.438
  20755494.344      -57287.347 6    -41699.22922        19.000           1.875
  23864406.398    -3164113.983 5  -2405236.95621         7.750           0.344
 91  5 15 19  0  0.0000000  0  6G18G 2G11G16G19G 6
  21444073.500     4028533.593 7   3126819.33322        23.000           2.250
  22469083.867    -8170598.014 6  -6286009.78521        17.000           1.406
  23271852.773    -5235394.333 6  -4019726.84921        13.500           0.563
  23505936.586    -4124059.275 5  -3099871.22521         9.500           0.438
  20756126.984      -53989.000 6    -39129.10022        17.500           1.875
  23857280.633    -3201567.737 5  -2434421.60521         7.750           0.344
 91  5 15 19  0 15.0000000  0  6G18G 2G11G16G19G 6
  21450134.648     4060386.049 7   3151639.37322        22.750           2.313
  22460744.398    -8214420.769 6  -6320157.31921        17.500           1.344
  23267738.492    -5257005.001 6  -4036566.30721        13.500           0.688
  23502200.164    -4143704.629 5  -3115179.31421         9.750           0.469
  20756756.555      -50645.450 6    -36523.75022        18.750           1.969
  23850155.117    -3239005.009 5  -2463593.41221         7.750           0.375
 91  5 15 19  0 30.0000000  0  6G18G 2G11G16G19G 6
  21456213.641     4092327.950 7   3176529.10922        22.750           2.313
  22452416.258    -8258179.660 6  -6354255.10521        17.250           1.344
  23263653.375    -5278486.572 6  -4053305.17121        13.250           0.719
  23498484.234    -4163220.667 5  -3130386.62821         9.750           0.469
  20757408.414      -47257.072 6    -33883.47122        17.000           1.938
  23843036.430    -3276426.315 5  -2492752.76321         7.750           0.500
 91  5 15 19  0 45.0000000  0  6G18G 2G11G16G19G 6
  21462308.500     4124359.008 7   3201488.31922        23.000           2.281
  22444102.430    -8301874.900 6  -6388303.28321        17.250           1.313
  23259587.086    -5299839.143 6  -4069943.52821        12.750           0.594
  23494793.227    -4182607.588 5  -3145493.34121         9.750           0.531
  20758055.172      -43824.374 6    -31208.65222        18.750           1.969
  23835918.180    -3313832.048 5  -2521900.03121         7.750           0.469
 91  5 15 19  1  0.0000000  0  6G18G 2G11G16G19G 6
  21468419.742     4156479.355 7   3226517.10222        22.500           2.281
  22435801.906    -8345505.731 6  -6422301.27521        17.750           1.313
  23255548.898    -5321061.874 6  -4086480.70021        12.750           0.750
  23491129.398    -4201864.819 5  -3160499.01121        10.000           0.438
  20758719.398      -40346.736 6    -28498.82322        18.000           1.844
  23828802.813    -3351221.581 5  -2551034.65221         7.750           0.406
 91  5 15 19  1 15.0000000  0  6G18G 2G11G16G19G 6
  21474550.625     4188690.521 7   3251616.65722        22.750           2.281
  22427508.633    -8389070.482 6  -6456247.77721        17.000           1.406
  23251537.289    -5342152.902 6  -4102915.24721        13.000           0.656
  23487490.953    -4220990.459 5  -3175402.10021        10.000           0.469
  20759386.664      -36822.536 6    -25752.70222        18.500           1.875
  23821689.523    -3388593.380 5  -2580155.44921         7.750           0.500
 91  5 15 19  1 30.0000000  0  6G18G 2G11G16G19G 6
  21480696.141     4220987.516 7   3276783.08522        22.500           2.344
  22419231.289    -8432573.764 6  -6490146.37421        17.750           1.344
  23247546.188    -5363116.908 6  -4119250.82421        13.000           0.656
  23483876.344    -4239989.114 5  -3190206.24321         9.750           0.469
  20760071.766      -33256.589 6    -22974.05622        17.250           2.031
  23814581.578    -3425952.301 5  -2609266.18421         8.250           0.469
 91  5 15 19  1 45.0000000  0  6G18G 2G11G16G19G 6
  21486860.609     4253375.859 7   3302020.69622        22.500           2.313
  22410964.227    -8476009.695 6  -6523992.50121        17.500           1.219
  23243582.820    -5383947.727 6  -4135482.61521        13.000           0.656
  23480283.922    -4258855.060 5  -3204906.98421         9.750           0.438
  20760753.641      -29643.006 6    -20158.28922        18.500           1.969
  23807475.703    -3463292.593 5  -2638362.43021         8.000           0.344
 91  5 15 19  2  0.0000000  0  6G18G 2G11G16G19G 6
  21493040.102     4285855.294 7   3327329.29022        22.000           2.313
  22402712.172    -8519378.213 6  -6557786.09121        17.750           1.313
  23239643.750    -5404645.300 6  -4151610.56921        13.000           0.719
  23476721.688    -4277588.247 5  -3219504.27221        10.000           0.563
  20761452.953      -25981.946 6    -17305.52822        17.750           1.969
  23800373.930    -3500614.372 5  -2667444.23921         8.250           0.344
 91  5 15 19  2 15.0000000  0  6G18G 2G11G16G19G 6
  21499239.039     4318424.659 7   3352707.95622        22.250           2.281
  22394471.727    -8562680.422 6  -6591528.01921        17.750           1.375
  23235731.906    -5425210.605 6  -4167635.46321        13.500           0.813
  23473181.273    -4296189.840 5  -3233999.02221         9.750           0.500
  20762158.016      -22274.619 6    -14416.70922        18.750           1.938
  23793275.242    -3537919.011 5  -2696512.70421         8.000           0.469
 91  5 15 19  2 30.0000000  0  6G18G 2G11G16G19G 6
  21505451.844     4351078.412 7   3378152.38622        21.750           2.188
  22386242.945    -8605921.455 6  -6625222.27821        17.750           1.438
  23231842.063    -5445648.805 6  -4183561.30621        13.750           0.719
  23469664.945    -4314665.426 5  -3248395.60321         9.750           0.531
  20762873.320      -18526.381 6    -11496.01922        17.500           1.938
  23786178.359    -3575211.789 5  -2725571.92221         8.250           0.406
 91  5 15 19  2 45.0000000  0  6G18G 2G11G16G19G 6
  21511681.648     4383817.551 7   3403663.33822        22.000           2.250
  22378028.422    -8649100.044 6  -6658867.88221        18.250           1.406
  23227974.313    -5465958.638 6  -4199387.13021        13.750           0.625
  23466175.125    -4333013.592 5  -3262692.88021         9.750           0.500
  20763591.703      -14736.140 6     -8542.59722        18.500           1.938
  23779082.656    -3612491.710 5  -2754621.15221         8.000           0.344
 91  5 15 19  3  0.0000000  0  6G18G 2G11G16G19G 6
  21517928.078     4416642.366 7   3429241.05622        21.750           2.313
  22369823.453    -8692215.651 6  -6692464.41321        17.500           1.344
  23224137.891    -5486139.200 6  -4215112.21021        14.250           0.688
  23462705.961    -4351233.979 5  -3276890.59421         9.500           0.531
  20764322.625      -10903.171 6     -5555.88122        17.750           1.906
  23771990.125    -3649758.108 5  -2783659.82421         8.250           0.500
 91  5 15 19  3 15.0000000  0  6G18G 2G11G16G19G 6
  21524191.398     4449554.002 7   3454886.42622        21.500           2.219
  22361630.836    -8735266.916 6  -6726010.80221        17.750           1.375
  23220321.867    -5506188.775 6  -4230735.23821        14.250           0.563
  23459264.344    -4369324.704 5  -3290987.28821         9.500           0.500
  20765058.641       -7026.183 6     -2534.86922        18.500           1.938
  23764903.336    -3687009.648 5  -2812686.87321         8.250           0.375
 91  5 15 19  3 30.0000000  0  6G18G 2G11G16G19G 6
  21530470.445     4482553.561 7   3480600.30722        21.250           2.188
  22353449.563    -8778252.311 6  -6759505.87021        17.500           1.344
  23216530.031    -5526105.973 6  -4246255.09721        14.250           0.688
  23455847.078    -4387284.535 5  -3304981.97621         9.750           0.563
  20765807.305       -3103.956 6       521.39722        17.750           1.844
  23757818.836    -3724245.134 5  -2841701.45321         8.500           0.438
 91  5 15 19  3 45.0000000  0  6G18G 2G11G16G19G 6
  21536768.070     4515641.874 7   3506383.34222        21.250           2.156
  22345283.648    -8821170.559 6  -6792948.60921        17.750           1.469
  23212768.508    -5545889.478 6  -4261670.79021        14.500           0.656
  23452453.156    -4405112.526 5  -3318873.91921         9.750           0.500
  20766560.047         864.720 6      3613.86022        18.250           1.781
  23750734.602    -3761463.591 5  -2870702.76421         8.500           0.406
 91  5 15 19  4  0.0000000  0  6G18G 2G11G16G19G 6
  21543080.648     4548815.143 7   3532232.58122        21.250           2.156
  22337127.898    -8864025.214 6  -6826341.79221        17.250           1.406
  23209027.445    -5565542.671 6  -4276984.94121        14.500           0.656
  23449087.188    -4422812.015 5  -3332665.74321         9.750           0.500
  20767327.227        4876.084 6      6739.58422        17.000           1.813
  23743652.789    -3798668.724 5  -2899693.71821         8.250           0.406
 91  5 15 19  4 15.0000000  0  6G18G 2G11G16G19G 6
  21549410.016     4582076.057 7   3558150.11422        21.250           2.000
  22328984.516    -8906813.435 6  -6859683.21421        17.500           1.469
  23205311.063    -5585062.718 6  -4292195.34321        14.250           0.719
  23445741.180    -4440380.079 5  -3346355.14821         9.500           0.563
  20768095.094        8932.853 6      9900.68922        18.500           1.844
  23736576.414    -3835857.745 5  -2928672.07921         8.250           0.500
 91  5 15 19  4 30.0000000  0  6G18G 2G11G16G19G 6
  21555756.750     4615423.450 7   3584135.03122        21.250           2.031
  22320855.609    -8949536.127 6  -6892973.57521        17.250           1.375
  23201623.727    -5604450.460 6  -4307302.63721        14.250           0.750
  23442424.141    -4457817.945 5  -3359943.09621         9.750           0.563
  20768876.875       13034.096 6     13096.45122        17.500           1.813
  23729501.445    -3873031.775 5  -2957638.78921         8.750           0.469
 91  5 15 19  4 45.0000000  0  6G18G 2G11G16G19G 6
  21562118.031     4648856.729 7   3610186.87522        21.000           1.969
  22312738.008    -8992193.659 6  -6926213.16322        17.250           1.563
  23197957.945    -5623706.011 6  -4322306.93621        14.250           0.688
  23439130.422    -4475125.875 5  -3373429.80721         9.750           0.531
  20769663.750       17179.304 6     16326.47522        18.500           1.813
  23722433.633    -3910191.341 5  -2986594.20121         8.500           0.531
 91  5 15 19  5  0.0000000  0  6G18G 2G11G16G19G 6
  21568497.352     4682377.592 7   3636306.96322        21.250           1.969
  22304632.789    -9034784.021 6  -6959400.41122        17.500           1.500
  23194318.656    -5642827.296 6  -4337206.60121        14.000           0.594
  23435861.602    -4492301.973 5  -3386813.78121         9.500           0.500
  20770464.336       21370.320 6     19592.19022        17.500           1.875
  23715362.453    -3947334.481 5  -3015536.84521         8.000           0.500
 91  5 15 19  5 15.0000000  0  6G18G 2G11G16G19G 6
  21574891.672     4715982.342 7   3662492.41622        21.250           2.094
  22296541.227    -9077310.661 6  -6992538.00822        17.000           1.563
  23190705.984    -5661817.658 6  -4352004.25921        14.250           0.563
  23432618.680    -4509349.930 5  -3400097.91321         9.750           0.469
  20771267.156       25603.740 6     22890.94422        18.250           1.938
  23708297.266    -3984464.903 5  -3044469.54821         8.500           0.563
 91  5 15 19  5 30.0000000  0  6G18G 2G11G16G19G 6
  21581303.156     4749673.188 7   3688744.95622        21.000           2.031
  22288460.328    -9119771.010 6  -7025623.94122        17.500           1.531
  23187118.258    -5680674.323 6  -4366697.73321        14.250           0.563
  23429398.047    -4526267.097 5  -3413280.14221         9.750           0.563
  20772087.414       29881.921 6     26224.57722        16.750           1.875
  23701233.672    -4021580.146 5  -3073390.44521         8.500           0.531
 91  5 15 19  5 45.0000000  0  6G18G 2G11G16G19G 6
  21587730.547     4783449.564 7   3715064.14222        21.000           1.906
  22280392.984    -9162165.203 6  -7058658.32822        17.250           1.531
  23183556.516    -5699397.555 6  -4381287.23321        14.250           0.625
  23426204.008    -4543053.626 5  -3426360.55021         9.750           0.594
  20772904.555       34204.435 6     29592.75822        18.250           1.750
  23694175.781    -4058680.611 5  -3102299.81221         8.250           0.469
 91  5 15 19  6  0.0000000  0  6G18G 2G11G16G19G 6
  21594173.055     4817309.289 7   3741448.27722        21.000           1.906
  22272338.570    -9204495.084 6  -7091642.61122        17.500           1.563
  23180016.688    -5717989.135 6  -4395774.15421        13.750           0.625
  23423035.516    -4559711.320 5  -3439340.56521         9.750           0.500
  20773735.938       38569.409 6     32994.02122        17.500           1.813
  23687117.102    -4095768.267 5  -3131199.19521         8.250           0.500
 91  5 15 19  6 15.0000000  0  6G18G 2G11G16G19G 6
  21600632.547     4851250.039 7   3767895.53922        21.000           1.938
  22264294.953    -9246763.077 6  -7124578.64722        17.500           1.594
  23176503.844    -5736451.243 6  -4410160.18221        13.750           0.656
  23419888.430    -4576242.818 5  -3452222.26421         9.750           0.563
  20774572.703       42974.460 6     36426.51622        18.250           1.813
  23680062.359    -4132845.616 5  -3160090.56321         8.250           0.500
 91  5 15 19  6 30.0000000  0  6G18G 2G11G16G19G 6
  21607106.820     4885273.337 7   3794407.13722        21.000           1.875
  22256263.352    -9288967.093 6  -7157464.83622        17.750           1.531
  23173015.641    -5754781.622 6  -4424443.56621        13.750           0.688
  23416765.813    -4592645.780 5  -3465003.79521         9.500           0.531
  20775422.039       47421.631 6     39891.83022        17.500           1.813
  23673007.688    -4169910.630 5  -3188972.32221         8.000           0.438
 91  5 15 19  6 45.0000000  0  6G18G 2G11G16G19G 6
  21613597.219     4919381.186 7   3820984.61222        21.000           1.906
  22248244.813    -9331104.996 6  -7190299.52222        17.500           1.594
  23169553.938    -5772978.065 6  -4438622.58721        13.500           0.625
  23413671.734    -4608918.278 5  -3477683.65721        10.000           0.563
  20776273.852       51912.899 6     43391.50322        18.250           1.750
  23665956.188    -4206961.375 5  -3217842.93121         8.250           0.469
 91  5 15 19  7  0.0000000  0  6G18G 2G11G16G19G 6
  21620103.500     4953571.648 7   3847626.46222        21.000           1.969
  22240239.484    -9373178.306 6  -7223083.86722        17.750           1.625
  23166114.586    -5791042.287 6  -4452698.58121        13.500           0.750
  23410598.992    -4625061.948 5  -3490263.14121         9.750           0.563
  20777139.602       56446.327 6     46924.03422        17.500           1.844
  23658911.055    -4243999.707 5  -3246703.89921         8.250           0.438
 91  5 15 19  7 15.0000000  0  6G18G 2G11G16G19G 6
  21626626.820     4987850.741 7   3874337.37222        21.000           1.813
  22232245.445    -9415180.802 6  -7255813.04622        17.500           1.688
  23162704.180    -5808967.797 6  -4466666.47821        13.500           0.750
  23407551.781    -4641070.535 5  -3502737.36521         9.750           0.531
  20778009.211       61028.366 6     50494.44122        18.500           1.844
  23651865.617    -4281019.467 5  -3275550.38621         7.750           0.500
 91  5 15 19  7 30.0000000  0  6G18G 2G11G16G19G 6
  21633166.117     5022214.744 7   3901114.44922        20.750           1.844
  22224266.453    -9457115.767 6  -7288489.59322        17.750           1.563
  23159318.531    -5826757.735 6  -4480528.74421        13.250           0.813
  23404530.461    -4656947.733 5  -3515109.20121        10.000           0.563
  20778891.781       65655.683 6     54100.12622        17.750           1.813
  23644824.977    -4318023.968 5  -3304384.96621         8.250           0.531
 91  5 15 19  7 45.0000000  0  6G18G 2G11G16G19G 6
  21639721.859     5056663.896 7   3927957.87022        21.000           1.781
  22216298.969    -9498982.812 6  -7321113.21822        17.500           1.625
  23155958.617    -5844411.695 6  -4494285.04821        13.750           0.719
  23401535.477    -4672692.913 5  -3527378.18321         9.750           0.469
  20779778.453       70328.598 6     57741.34522        18.500           1.750
  23637784.508    -4355013.061 5  -3333207.55821         8.500           0.563
 91  5 15 19  8  0.0000000  0  6G18G 2G11G16G19G 6
  21646293.539     5091197.000 7   3954866.71322        21.250           1.813
  22208344.438    -9540782.711 6  -7353684.51422        17.500           1.656
  23152626.578    -5861930.332 6  -4507935.91121        13.500           0.719
  23398564.031    -4688307.061 5  -3539545.05521         9.750           0.563
  20780677.758       75046.097 6     61417.30722        17.500           1.906
  23630748.242    -4391987.555 5  -3362018.79421         8.250           0.500
 91  5 15 19  8 15.0000000  0  6G18G 2G11G16G19G 6
  21652880.039     5125813.896 7   3981840.84522        21.250           1.750
  22200402.500    -9582515.270 6  -7386203.35022        17.500           1.750
  23149316.094    -5879313.656 6  -4521481.33221        13.750           0.688
  23395616.875    -4703790.268 5  -3551609.89621         9.750           0.563
  20781582.844       79807.965 6     65127.83622        18.500           1.875
  23623712.914    -4428947.758 5  -3390818.86221         8.000           0.531
 91  5 15 19  8 30.0000000  0  6G18G 2G11G16G19G 6
  21659484.188     5160515.198 7   4008880.75122        21.000           1.844
  22192474.234    -9624179.688 6  -7418669.08322        17.250           1.688
  23146036.078    -5896560.357 6  -4534920.29821        13.750           0.781
  23392694.609    -4719141.430 5  -3563571.85321         9.750           0.594
  20782505.414       84615.258 6     68873.76922        17.000           1.875
  23616685.500    -4465892.712 5  -3419607.05921         8.250           0.563
 91  5 15 19  8 45.0000000  0  6G18G 2G11G16G19G 6
  21666103.500     5195298.199 7   4035984.32122        21.250           1.844
  22184557.820    -9665778.515 6  -7451083.70622        17.250           1.781
  23142780.844    -5913673.049 6  -4548254.83321        13.750           0.781
  23389799.008    -4734363.219 5  -3575433.00221         9.750           0.563
  20783419.852       89465.352 6     72653.04822        18.500           1.688
  23609656.719    -4502825.150 5  -3448385.51121         8.250           0.531
 91  5 15 19  9  0.0000000  0  6G18G 2G11G16G19G 6
  21672735.938     5230162.692 7   4063151.38522        20.750           1.750
  22176655.461    -9707311.740 6  -7483447.21022        17.750           1.656
  23139548.891    -5930651.620 6  -4561484.86321        13.750           0.750
  23386927.398    -4749455.805 5  -3587193.45521         9.750           0.531
  20784358.398       94358.071 6     76465.54122        17.250           1.875
  23602629.938    -4539745.201 5  -3477154.31621         8.000           0.500
 91  5 15 19  9 15.0000000  0  6G18G 2G11G16G19G 6
  21679388.445     5265108.650 7   4090381.93222        20.750           1.781
  22168764.281    -9748778.819 6  -7515759.17122        18.000           1.719
  23136342.781    -5947495.500 6  -4574609.94321        13.750           0.719
  23384081.477    -4764418.529 5  -3598852.70921        10.250           0.500
  20785289.289       99293.825 6     80311.57022        18.500           1.938
  23595608.516    -4576652.508 5  -3505913.16721         8.500           0.500
 91  5 15 19  9 30.0000000  0  6G18G 2G11G16G19G 6
  21686053.836     5300139.838 7   4117678.88922        21.000           1.781
  22160886.664    -9790175.794 6  -7548016.51422        17.750           1.781
  23133165.563    -5964200.611 6  -4587626.88521        13.500           0.719
  23381257.898    -4779247.864 5  -3610408.04421        10.000           0.625
  20786241.133      104276.520 6     84194.17922        17.500           1.813
  23588585.211    -4613543.242 5  -3534659.13921         8.250           0.531
 91  5 15 19  9 45.0000000  0  6G18G 2G11G16G19G 6
  21692736.453     5335253.092 7   4145039.79522        20.750           1.719
  22153022.656    -9831505.437 6  -7580221.38022        17.750           1.781
  23130011.039    -5980769.653 6  -4600537.80621        13.250           0.688
  23378459.859    -4793946.417 5  -3621861.49021         9.750           0.531
  20787194.891      109303.267 6     88111.11322        18.500           1.781
  23581568.656    -4650420.343 5  -3563394.46721         8.500           0.531
 91  5 15 19 10  0.0000000  0  6G18G 2G11G16G19G 6
  21699433.703     5370450.119 7   4172465.97722        20.750           1.688
  22145169.594    -9872765.812 6  -7612372.28122        18.000           1.844
  23126884.625    -5997200.720 6  -4613341.21721        13.000           0.719
  23375689.922    -4808512.347 5  -3633211.59221         9.750           0.500
  20788163.695      114375.954 6     92063.84022        18.000           1.813
  23574554.727    -4687282.032 5  -3592117.79521         8.500           0.594
 91  5 15 19 10 15.0000000  0  6G18G 2G11G16G19G 6
  21706147.969     5405732.599 7   4199958.74322        20.750           1.719
  22137332.352    -9913954.889 6  -7644467.63222        18.000           1.875
  23123783.352    -6013491.604 6  -4626035.38721        12.750           0.719
  23372944.602    -4822943.675 5  -3644456.80321        10.000           0.563
  20789133.617      119496.523 6     96053.88022        18.500           1.813
  23567543.352    -4724126.386 5  -3620827.62321         8.750           0.500
 91  5 15 19 10 30.0000000  0  6G18G 2G11G16G19G 6
  21712877.383     5441099.004 7   4227516.91122        20.750           1.719
  22129506.984    -9955074.298 6  -7676508.67822        18.500           1.781
  23120711.477    -6029643.667 6  -4638621.39121        13.000           0.750
  23370221.648    -4837241.727 5  -3655598.14921         9.750           0.594
  20790122.953      124663.354 6    100079.96422        17.000           1.844
  23560537.672    -4760955.004 5  -3649525.19921         8.750           0.594
 91  5 15 19 10 45.0000000  0  6G18G 2G11G16G19G 6
  21719622.461     5476545.274 7   4255137.30322        20.750           1.750
  22121694.945    -9996127.611 6  -7708498.23822        18.250           1.844
  23117662.648    -6045660.583 6  -4651102.08821        12.750           0.688
  23367526.227    -4851410.305 5  -3666638.60721        10.250           0.563
  20791109.063      129872.551 6    104139.06522        18.500           1.781
  23553530.000    -4797771.774 5  -3678213.54121         8.750           0.531
 91  5 15 19 11  0.0000000  0  6G18G 2G11G16G19G 6
  21726384.719     5512073.511 7   4282821.56922        20.750           1.813
  22113896.297   -10037112.123 6  -7740434.17222        18.500           1.906
  23114640.727    -6061539.979 6  -4663475.61721        12.750           0.688
  23364853.719    -4865447.418 5  -3677576.62421        10.000           0.531
  20792111.969      135126.603 6    108233.11522        18.250           1.656
  23546526.086    -4834574.485 5  -3706890.93321         8.500           0.531
 91  5 15 19 11 14.9990000  0  6G18G 2G11G16G19G 6
  21733159.144     5547680.101 7   4310566.89122        20.500           1.750
  22106110.026   -10078026.043 6  -7772315.10422        18.250           1.875
  23111647.089    -6077281.418 6  -4675741.65721        13.000           0.719
  23362209.362    -4879352.568 5  -3688411.83921        10.000           0.594
  20793117.573      140424.330 6    112361.20322        18.500           1.750
  23539525.769    -4871361.493 5  -3735556.07721         8.500           0.531
 91  5 15 19 11 29.9990000  0  6G18G 2G11G16G19G 6
  21739952.089     5583372.402 7   4338378.99922        20.500           1.813
  22098337.675   -10118872.045 6  -7804143.10522        18.500           1.906
  23108674.120    -6092884.052 6  -4687899.53121        12.750           0.594
  23359588.456    -4893125.080 5  -3699143.69121        10.000           0.563
  20794137.355      145769.037 6    116525.89122        17.750           1.781
  23532528.058    -4908135.007 5  -3764210.71821         8.750           0.531
 91  5 15 19 11 44.9990000  0  6G18G 2G11G16G19G 6
  21746759.894     5619147.323 7   4366255.48522        20.500           1.688
  22090578.081   -10159648.098 6  -7835916.60622        18.500           1.969
  23105731.386    -6108347.412 6  -4699948.89121        12.750           0.719
  23356993.222    -4906765.123 5  -3709772.31821         9.750           0.500
  20795159.940      151159.666 6    120726.36522        19.000           1.781
  23525532.394    -4944893.466 5  -3792853.62821         8.750           0.438
 91  5 15 19 11 59.9990000  0  6G18G 2G11G16G19G 6
  21753583.534     5655003.011 7   4394194.90622        20.250           1.688
  22082832.628   -10200355.464 6  -7867636.58022        18.500           1.969
  23102818.128    -6123672.651 6  -4711890.61421        12.750           0.625
  23354421.097    -4920273.642 5  -3720298.45821        10.250           0.625
  20796201.808      156594.930 6    124961.62322        17.500           1.813
  23518542.667    -4981638.198 5  -3821485.85021         8.750           0.531
 91  5 15 19 12 14.9990000  0  6G18G 2G11G16G19G 6
  21760421.409     5690939.301 7   4422197.13422        20.500           1.719
  22075098.956   -10240994.103 6  -7899303.00622        18.500           1.844
  23099927.355    -6138859.595 6  -4723724.58821        13.000           0.531
  23351876.136    -4933650.925 5  -3730722.32121        10.250           0.438
  20797237.151      162074.849 6    129231.67422        18.750           1.719
  23511551.644    -5018369.191 5  -3850107.35421         9.250           0.563
 91  5 15 19 12 29.9990000  0  6G18G 2G11G16G19G 6
  21767275.355     5726956.992 7   4450262.79122        20.500           1.688
  22067377.917   -10281563.034 6  -7930915.11222        18.750           1.844
  23097064.159    -6153907.412 6  -4735450.14121        12.750           0.625
  23349355.847    -4946895.989 5  -3741043.15921        10.000           0.500
  20798293.690      167600.150 6    133537.09222        17.250           1.750
  23504565.894    -5055085.767 5  -3878717.63521         9.000           0.500
 91  5 15 19 12 44.9990000  0  6G18G 2G11G16G19G 6
  21774144.519     5763054.021 7   4478390.26922        20.250           1.719
  22059671.308   -10322063.959 6  -7962474.22922        18.750           1.969
  23094226.511    -6168817.714 6  -4747068.54021        12.750           0.594
  23346861.105    -4960010.340 5  -3751262.15321        10.000           0.531
  20799348.737      173169.241 6    137876.63222        19.000           1.719
  23497579.886    -5091789.657 5  -3907318.02221         8.750           0.469
 91  5 15 19 12 59.9990000  0  6G18G 2G11G16G19G 6
  21781029.503     5799233.311 7   4506581.84522        20.250           1.781
  22051977.909   -10362493.710 6  -7993977.88622        19.000           1.938
  23091417.019    -6183587.131 6  -4758577.16521        13.000           0.594
  23344391.683    -4972991.019 5  -3761376.98221        10.000           0.531
  20800423.261      178785.150 6    142252.64622        17.500           1.750
  23490598.144    -5128477.842 5  -3935906.18621         8.750           0.469
 91  5 15 19 13 14.9990000  0  6G18G 2G11G16G19G 6
  21787928.987     5835491.869 7   4534835.19422        20.000           1.688
  22044297.581   -10402855.069 6  -8025428.26522        18.750           1.906
  23088631.159    -6198218.428 6  -4769978.16221        13.250           0.563
  23341945.644    -4985840.993 5  -3771389.97721        10.250           0.531
  20801493.745      184444.879 6    146662.80922        19.000           1.656
  23483619.034    -5165153.231 5  -3964484.37321         9.000           0.594
 91  5 15 19 13 29.9990000  0  6G18G 2G11G16G19G 6
  21794844.198     5871831.105 7   4563151.40222        20.000           1.719
  22036630.808   -10443146.319 6  -8056824.00522        19.000           1.906
  23085874.644    -6212709.720 6  -4781270.06321        13.500           0.656
  23339525.050    -4998558.418 5  -3781299.67321        10.250           0.438
  20802582.253      190150.167 6    151108.47622        18.000           1.813
  23476641.940    -5201814.127 5  -3993051.26321         9.000           0.469
 91  5 15 19 13 44.9990000  0  6G18G 2G11G16G19G 6
  21801775.112     5908251.737 7   4591531.04022        20.000           1.750
  22028975.456   -10483366.096 6  -8088164.05422        19.000           1.969
  23083143.339    -6227059.617 6  -4792451.79121        13.750           0.656
  23337130.261    -5011142.159 5  -3791105.21321        10.250           0.563
  20803675.097      195902.247 6    155590.60422        18.750           1.719
  23469669.964    -5238459.425 5  -4021605.99021         9.000           0.469
 91  5 15 19 13 59.9990000  0  6G18G 2G11G16G19G 6
  21808720.690     5944751.518 6   4619972.34922        19.750           1.625
  22021335.683   -10523516.473 6  -8119450.01322        19.250           1.875
  23080439.308    -6241270.387 6  -4803525.11021        13.750           0.594
  23334760.495    -5023594.625 5  -3800808.44521        10.000           0.500
  20804782.980      201698.705 6    160107.30722        17.250           1.781
  23462699.198    -5275091.564 5  -4050150.48521         9.000           0.563
 91  5 15 19 14 14.9990000  0  6G18G 2G11G16G19G 6
  21815681.159     5981331.006 6   4648475.76822        19.750           1.750
  22013708.980   -10563596.742 6  -8150681.35722        19.250           2.000
  23077762.589    -6255341.085 6  -4814489.27121        14.000           0.563
  23332414.714    -5035915.162 5  -3810408.89321         9.750           0.531
  20805889.526      207540.379 6    164659.24822        19.000           1.750
  23455728.706    -5311709.745 5  -4078684.08121         9.000           0.563
 91  5 15 19 14 29.9990000  0  6G18G 2G11G16G19G 6
  21822657.456     6017987.135 6   4677038.90822        19.500           1.688
  22006094.519   -10603609.709 6  -8181860.24122        19.000           1.938
  23075111.097    -6269274.496 6  -4825346.46421        14.000           0.656
  23330097.620    -5048106.127 5  -3819908.36021        10.000           0.531
  20807011.589      213424.617 6    169244.35622        18.500           1.625
  23448762.847    -5348316.859 5  -4107209.06221         8.750           0.563
 91  5 15 19 14 44.9990000  0  6G18G 2G11G16G19G 6
  21829647.144     6054722.311 6   4705663.64422        19.500           1.656
  21998494.073   -10643552.618 6  -8212984.54722        19.250           1.969
  23072485.675    -6283067.875 6  -4836094.54821        14.000           0.656
  23327803.776    -5060165.404 5  -3829305.20821        10.250           0.531
  20808137.464      219353.892 6    173864.55422        19.250           1.750
  23441802.034    -5384910.411 5  -4135723.48621         9.000           0.625
 91  5 15 19 14 59.9990000  0  6G18G 2G11G16G19G 6
  21836652.745     6091536.906 6   4734350.26222        19.500           1.750
  21990905.737   -10683424.864 6  -8244053.77922        18.750           2.031
  23069889.222    -6296720.442 6  -4846732.89621        14.500           0.625
  23325532.003    -5072092.000 5  -3838598.66921        10.000           0.469
  20809279.144      225328.789 6    178520.30522        18.250           1.844
  23434842.503    -5421489.775 5  -4164226.83821         9.250           0.531
 91  5 15 19 15 14.9990000  0  6G18G 2G11G16G19G 6
  21843672.800     6128428.421 6   4763096.81922        19.250           1.656
  21983331.980   -10723228.670 6  -8275069.67822        19.250           1.938
  23067315.308    -6310234.512 6  -4857263.33921        14.000           0.688
  23323290.269    -5083888.669 5  -3847790.91321        10.250           0.563
  20810420.034      231346.930 6    183209.74922        19.250           1.750
  23427882.276    -5458057.425 5  -4192721.07521         8.750           0.531
 91  5 15 19 15 29.9990000  0  6G18G 2G11G16G19G 6
  21850707.995     6165396.887 6   4791903.33222        19.500           1.656
  21975771.136   -10762963.544 6  -8306031.86322        18.750           1.875
  23064770.940    -6323609.473 6  -4867685.37621        14.250           0.656
  23321064.534    -5095554.999 5  -3856881.57221         9.500           0.531
  20811576.370      237408.799 6    187933.26722        18.500           1.719
  23420926.526    -5494613.061 5  -4221205.94621         9.500           0.438
 91  5 15 19 15 44.9990000  0  6G18G 2G11G16G19G 6
  21857757.730     6202443.460 6   4820770.71522        19.250           1.688
  21968222.792   -10802628.043 6  -8336939.21922        19.250           1.969
  23062252.987    -6336843.664 6  -4877997.73021        14.250           0.688
  23318871.644    -5107089.481 5  -3865869.48421         9.750           0.531
  20812735.745      243515.841 6    192691.98422        19.250           1.781
  23413973.753    -5531155.175 5  -4249680.27921         9.000           0.469
 91  5 15 19 15 59.9990000  0  6G18G 2G11G16G19G 6
  21864823.362     6239568.740 6   4849699.42322        19.500           1.594
  21960688.276   -10842221.463 6  -8367791.19122        19.000           1.969
  23059762.542    -6349936.426 6  -4888199.87021        14.250           0.688
  23316701.940    -5118491.643 5  -3874754.31821         9.750           0.531
  20813910.128      249668.634 6    197486.35422        18.000           1.813
  23407021.136    -5567683.141 5  -4278143.59321         9.250           0.531
 91  5 15 19 16 14.9990000  0  6G18G 2G11G16G19G 6
  21871902.581     6276770.512 6   4878687.73922        19.750           1.688
  21953167.151   -10881745.707 6  -8398589.24822        19.000           1.938
  23057296.112    -6362889.566 6  -4898293.22121        14.250           0.719
  23314556.675    -5129763.046 5  -3883537.25921        10.000           0.563
  20815084.878      255865.222 6    202314.84622        19.250           1.813
  23400072.901    -5604199.109 5  -4306597.55121         9.250           0.563
 91  5 15 19 16 29.9990000  0  6G18G 2G11G16G19G 6
  21878997.206     6314051.128 6   4907737.48622        19.500           1.688
  21945659.519   -10921197.958 6  -8429331.22122        18.750           1.906
  23054857.519    -6375700.295 6  -4908275.60921        14.000           0.594
  23312439.175    -5140901.083 5  -3892216.26721        10.250           0.531
  20816278.167      262108.260 6    207179.53422        18.000           1.781
  23393126.112    -5640700.457 5  -4335040.11421         9.250           0.531
 91  5 15 19 16 44.9990000  0  6G18G 2G11G16G19G 6
  21886105.401     6351407.595 6   4936846.34122        19.500           1.594
  21938165.151   -10960580.923 6  -8460019.19622        19.000           1.938
  23052446.761    -6388371.246 6  -4918149.06821        14.000           0.594
  23310344.940    -5151908.804 5  -3900793.70921        10.000           0.406
  20817469.214      268394.937 6    212078.22622        19.500           1.781
  23386184.925    -5677189.955 5  -4363473.44221         9.250           0.563
 91  5 15 19 16 59.9990000  0  6G18G 2G11G16G19G 6
  21893227.956     6388838.448 6   4966013.16122        19.250           1.563
  21930684.105   -10999895.994 6  -8490654.27422        19.000           2.000
  23050060.690    -6400903.793 6  -4927914.68121        14.250           0.688
  23308272.737    -5162787.899 5  -3909270.92921         9.750           0.500
  20818677.144      274723.788 6    217009.78222        18.250           1.844
  23379240.792    -5713669.133 5  -4391898.73921         9.000           0.594
 91  5 15 19 17 14.9990000  0  6G18G 2G11G16G19G 6
  21900366.237     6426348.748 6   4995241.87922        19.500           1.500
  21923215.862   -11039137.677 6  -8521232.16222        18.750           2.000
  23047704.839    -6413292.387 6  -4937568.12721        14.500           0.719
  23306229.198    -5173532.732 5  -3917643.55921        10.000           0.531
  20819888.065      281100.299 6    221978.47722        19.250           1.844
  23372301.440    -5750132.546 5  -4420311.73421         9.250           0.500
 91  5 15 19 17 29.9990000  0  6G18G 2G11G16G19G 6
  21907519.620     6463936.057 6   5024530.60622        19.000           1.594
  21915763.183   -11078308.042 6  -8551754.47922        19.250           1.906
  23045373.034    -6425539.090 6  -4947111.00821        14.250           0.719
  23304209.886    -5184145.506 5  -3925913.27221        10.000           0.500
  20821113.612      287522.226 6    226982.55722        18.250           1.844
  23365365.276    -5786582.559 5  -4448714.31121         9.000           0.531
 91  5 15 19 17 44.9990000  0  6G18G 2G11G16G19G 6
  21914686.417     6501600.858 6   5053879.72222        19.250           1.531
  21908321.550   -11117406.444 6  -8582220.72722        18.500           1.938
  23043072.300    -6437643.070 6  -4956542.66821        14.500           0.750
  23302216.347    -5194625.858 5  -3934079.80021        10.250           0.469
  20822341.347      293990.314 6    232022.60822        19.250           1.969
  23358432.862    -5823018.405 5  -4477105.84621         9.000           0.500
 91  5 15 19 17 59.9990000  0  6G18G 2G11G16G19G 6
  21921868.487     6539339.687 6   5083286.51422        19.000           1.531
  21900895.620   -11156436.112 6  -8612633.40822        19.250           1.969
  23040794.394    -6449607.459 6  -4965865.57121        14.750           0.656
  23300246.448    -5204976.703 5  -3942145.41021        10.250           0.438
  20823585.894      300501.207 6    237096.01122        17.250           1.875
  23351500.987    -5859443.505 5  -4505489.00321         9.250           0.563
 91  5 15 19 18 14.9990000  0  6G18G 2G11G16G19G 6
  21929062.659     6577152.248 6   5112750.75922        19.000           1.563
  21893480.667   -11195397.003 6  -8642992.50722        18.750           2.031
  23038543.690    -6461432.385 6  -4975079.78421        14.750           0.656
  23298300.651    -5215198.313 5  -3950110.31321        10.250           0.563
  20824825.933      307054.941 6    242202.80422        19.000           1.875
  23344568.847    -5895857.906 5  -4533863.83221         9.250           0.563
 91  5 15 19 18 29.9990000  0  6G18G 2G11G16G19G 6
  21936272.839     6615035.003 6   5142269.70221        19.000           1.469
  21886079.034   -11234292.289 6  -8673300.46922        19.250           2.063
  23036320.105    -6473120.896 6  -4984187.71221        15.000           0.594
  23296381.011    -5225293.904 5  -3957977.02121        10.500           0.563
  20826084.034      313648.154 6    247340.35222        17.750           1.938
  23337643.245    -5932265.023 5  -4562232.98421         9.000           0.563
 91  5 15 19 18 44.9990000  0  6G18G 2G11G16G19G 6
  21943495.995     6652996.089 6   5171849.69121        19.000           1.469
  21878692.433   -11273113.356 6  -8703550.60922        19.000           1.938
  23034122.144    -6484664.305 6  -4993182.56821        15.250           0.594
  23294484.730    -5235255.022 5  -3965738.96821        10.250           0.469
  20827345.159      320289.397 6    252515.33022        18.750           1.875
  23330717.433    -5968656.323 5  -4590589.80421         9.250           0.469
 91  5 15 19 18 59.9990000  0  6G18G 2G11G16G19G 6
  21950734.081     6691032.235 6   5201488.15521        19.000           1.438
  21871317.105   -11311863.264 6  -8733745.29022        19.000           1.906
  23031954.347    -6496065.721 6  -5002066.77721        15.250           0.656
  23292613.112    -5245085.031 5  -3973398.73121        10.250           0.563
  20828619.206      326975.460 6    257725.23222        18.000           1.844
  23323796.331    -6005035.099 5  -4618936.87521         9.250           0.656
 91  5 15 19 19 14.9990000  0  6G18G 2G11G16G19G 6
  21957987.956     6729145.001 6   5231186.32622        19.000           1.500
  21863958.612   -11350540.340 6  -8763883.22722        18.750           2.094
  23029811.964    -6507323.522 6  -5010839.08721        15.750           0.656
  23290767.909    -5254782.164 5  -3980954.96921        10.250           0.563
  20829896.925      333707.996 6    262971.34622        18.500           1.938
  23316873.651    -6041399.705 5  -4647272.89721         9.250           0.594
 91  5 15 19 19 29.9990000  0  6G18G 2G11G16G19G 6
  21965254.253     6767331.234 6   5260941.74522        19.000           1.531
  21856610.120   -11389147.427 6  -8793966.63222        18.750           1.969
  23027694.839    -6518440.315 6  -5019501.50921        15.750           0.750
  23288947.222    -5264349.181 5  -3988409.80821        10.250           0.594
  20831190.940      340484.118 6    268251.42122        17.750           1.750
  23309958.894    -6077753.014 5  -4675600.11621         9.250           0.625
 91  5 15 19 19 44.9990000  0  6G18G 2G11G16G19G 6
  21972535.245     6805591.842 6   5290755.11622        18.500           1.500
  21849278.425   -11427683.142 6  -8823994.41422        18.750           1.969
  23025608.894    -6529414.923 6  -5028053.15221        16.000           0.813
  23287151.347    -5273784.927 5  -3995762.37521        10.250           0.563
  20832485.378      347305.036 6    273566.40122        18.000           1.938
  23303039.964    -6114093.945 5  -4703917.68321         9.250           0.531
 91  5 15 19 19 59.9990000  0  6G18G 2G11G16G19G 6
  21979829.222     6843925.946 6   5320625.76121        18.500           1.438
  21841956.933   -11466148.027 6  -8853967.01722        18.250           1.969
  23023546.636    -6540247.689 6  -5036494.25321        15.750           0.656
  23285381.737    -5283090.104 5  -4003013.19421        10.500           0.594
  20833795.894      354170.375 6    278915.99422        17.250           1.938
  23296128.964    -6150423.064 5  -4732226.06621         9.000           0.563
 91  5 15 19 20 14.9990000  0  6G18G 2G11G16G19G 6
  21987138.776     6882335.487 6   5350555.18521        18.750           1.469
  21834653.792   -11504540.153 6  -8883882.91122        19.250           2.031
  23021512.050    -6550936.651 6  -5044823.30321        15.500           0.688
  23283635.878    -5292262.827 5  -4010160.79421        10.500           0.563
  20835107.284      361081.884 6    284301.56722        18.500           1.875
  23289218.089    -6186738.469 5  -4760523.75321         9.000           0.563
 91  5 15 19 20 29.9990000  0  6G18G 2G11G16G19G 6
  21994461.847     6920817.891 6   5380541.38221        19.000           1.375
  21827360.089   -11542861.684 6  -8913743.80022        18.500           2.000
  23019505.042    -6561483.907 6  -5053041.94121        15.500           0.656
  23281915.019    -5301305.419 5  -4017206.99421        10.500           0.594
  20836434.730      368037.402 6    289721.43022        18.000           1.875
  23282308.534    -6223042.376 5  -4788812.45221         9.250           0.563
 91  5 15 19 20 44.9990000  0  6G18G 2G11G16G19G 6
  22001798.573     6959374.655 6   5410585.53021        19.000           1.406
  21820082.097   -11581110.945 6  -8943548.37422        19.250           2.063
  23017524.964    -6571887.713 6  -5061148.78921        15.500           0.656
  23280218.823    -5310216.443 5  -4024150.66921        10.250           0.500
  20837764.573      375038.684 6    295176.95122        18.750           2.031
  23275405.065    -6259333.336 5  -4817091.07021         9.250           0.594
 91  5 15 19 20 59.9990000  0  6G18G 2G11G16G19G 6
  22009150.831     6998005.916 6   5440687.72021        19.000           1.469
  21812816.339   -11619287.290 6  -8973296.13722        19.000           2.031
  23015572.222    -6582147.372 6  -5069143.32121        15.250           0.719
  23278548.190    -5318995.308 5  -4030991.35521        10.250           0.563
  20839111.917      382086.319 6    300668.59522        17.000           1.875
  23268501.964    -6295610.715 5  -4845359.11121         9.250           0.594
 91  5 15 19 21 14.9990000  0  6G18G 2G11G16G19G 6
  22016516.042     7036709.774 6   5470846.48221        19.000           1.438
  21805566.073   -11657392.300 6  -9002988.30122        19.250           2.094
  23013646.644    -6592264.496 6  -5077026.78021        15.000           0.656
  23276904.323    -5327643.652 5  -4037730.33021        10.500           0.563
  20840454.308      389178.508 6    306194.95522        18.500           1.938
  23261599.331    -6331876.164 5  -4873617.88421         9.000           0.594
 91  5 15 19 21 29.9990000  0  6G18G 2G11G16G19G 6
  22023895.105     7075486.343 6   5501061.90321        19.000           1.375
  21798328.144   -11695425.791 6  -9032624.74622        19.250           2.063
  23011748.386    -6602238.779 6  -5084798.94721        14.750           0.688
  23275282.980    -5336161.283 5  -4044367.43921        10.250           0.563
  20841816.495      396315.368 6    311756.12822        17.500           2.031
  23254700.206    -6368129.684 5  -4901867.33121         9.250           0.500
 91  5 15 19 21 44.9990000  0  6G18G 2G11G16G19G 6
  22031287.253     7114334.024 6   5531332.73422        19.000           1.500
  21791105.222   -11733388.905 6  -9062206.33722        19.250           2.063
  23009878.034    -6612071.614 6  -5092460.89121        14.250           0.656
  23273685.894    -5344549.797 5  -4050903.92921        10.250           0.594
  20843179.026      403495.595 6    317351.09622        19.000           1.969
  23247801.284    -6404372.685 5  -4930108.60521         9.000           0.563
 91  5 15 19 21 59.9990000  0  6G18G 2G11G16G19G 6
  22038693.440     7153254.831 6   5561660.54921        19.000           1.438
  21783892.909   -11771279.320 6  -9091731.28922        19.250           2.063
  23008033.292    -6621760.510 6  -5100010.66921        14.250           0.625
  23272116.573    -5352806.737 5  -4057337.91921        10.500           0.469
  20844557.925      410721.552 6    322981.68822        18.250           2.094
  23240908.198    -6440602.803 5  -4958339.81821         9.250           0.594
 91  5 15 19 22 14.9990000  0  6G18G 2G11G16G19G 6
  22046113.792     7192249.038 6   5592045.55621        19.250           1.406
  21776697.698   -11809096.442 6  -9121199.12822        19.500           2.063
  23006217.745    -6631304.952 6  -5107447.88821        14.000           0.656
  23270568.386    -5360931.827 5  -4063669.17521        10.000           0.625
  20845937.987      417993.701 6    328648.27322        19.000           2.094
  23234015.800    -6476819.702 5  -4986560.73721         9.500           0.625
 91  5 15 19 22 29.9990000  0  6G18G 2G11G16G19G 6
  22053549.026     7231319.425 6   5622489.92721        19.000           1.438
  21769514.815   -11846837.335 6  -9150607.57022        19.250           2.031
  23004430.433    -6640701.908 6  -5114770.18421        14.250           0.719
  23269049.081    -5368922.282 5  -4069895.51921        10.250           0.656
  20847332.558      425315.294 6    334353.39122        18.000           2.031
  23227125.940    -6513020.433 5  -5014769.04021         9.250           0.656
 91  5 15 19 22 44.9990000  0  6G18G 2G11G16G19G 6
  22060997.417     7270462.659 6   5652991.05921        18.750           1.375
  21762348.565   -11884504.872 6  -9179958.86422        19.500           2.000
  23002668.855    -6649954.233 6  -5121979.78021        14.250           0.688
  23267552.050    -5376780.852 5  -4076019.09721        10.250           0.594
  20848732.886      432683.191 6    340094.58822        19.000           2.125
  23220239.917    -6549207.936 5  -5042967.02521         9.500           0.563
 91  5 15 19 22 59.9990000  0  6G18G 2G11G16G19G 6
  22068459.394     7309674.515 6   5683545.66421        18.750           1.406
  21755192.237   -11922103.135 6  -9209256.16422        19.750           2.188
  23000935.980    -6659065.975 6  -5129079.82221        14.500           0.625
  23266081.151    -5384511.759 5  -4082043.19921        10.250           0.563
  20850149.925      440093.101 6    345868.52322        17.250           2.031
  23213355.448    -6585386.495 5  -5071158.05221         9.250           0.531
 91  5 15 19 23 14.9990000  0  6G18G 2G11G16G19G 6
  22075934.948     7348956.761 6   5714155.11922        18.750           1.500
  21748052.206   -11959629.975 7  -9238497.81022        20.000           2.063
  22999229.276    -6668035.011 6  -5136068.67321        14.500           0.719
  23264634.855    -5392113.184 5  -4087966.42021        10.500           0.594
  20851561.995      447547.065 6    351676.78622        18.500           2.094
  23206473.284    -6621554.012 5  -5099340.46821         9.500           0.563
 91  5 15 19 23 29.9990000  0  6G18G 2G11G16G19G 6
  22083422.417     7388308.269 6   5744818.54921        18.250           1.438
  21740924.339   -11997086.384 6  -9267684.57922        19.750           2.125
  22997549.065    -6676862.142 6  -5142946.94521        15.000           0.594
  23263209.964    -5399586.235 5  -4093789.61621        10.250           0.594
  20852989.651      455044.150 6    357518.65522        17.500           2.063
  23199594.261    -6657711.514 5  -5127515.08621         9.750           0.594
 91  5 15 19 23 44.9990000  0  6G18G 2G11G16G19G 6
  22090924.769     7427729.075 6   5775535.97221        18.500           1.406
  21733809.706   -12034472.023 7  -9296816.21022        20.000           2.219
  22995893.972    -6685547.077 6  -5149714.40921        15.000           0.781
  23261816.503    -5406930.394 5  -4099512.37221        10.500           0.625
  20854422.823      462584.676 6    363394.36922        18.250           2.125
  23192718.058    -6693858.835 5  -5155681.77421         9.250           0.563
 91  5 15 19 23 59.9990000  0  6G18G 2G11G16G19G 6
  22098440.026     7467220.812 6   5806308.66621        18.250           1.406
  21726709.542   -12071784.934 7  -9325891.16822        20.000           2.219
  22994271.987    -6694087.750 6  -5156369.47021        15.250           0.688
  23260442.737    -5414143.741 5  -4105133.19621        10.250           0.563
  20855868.956      470170.787 6    369305.60622        17.500           2.063
  23185839.792    -6729994.020 5  -5183838.99621         9.500           0.531
 91  5 15 19 24 14.9990000  0  6G18G 2G11G16G19G 6
  22105967.659     7506781.561 6   5837135.13521        17.750           1.469
  21719623.050   -12109026.271 7  -9354910.35622        20.000           2.219
  22992672.206    -6702485.439 6  -5162913.10721        15.250           0.719
  23259095.565    -5421227.898 5  -4110653.36721        10.250           0.563
  20857318.261      477800.903 6    375251.12822        18.250           2.031
  23178963.151    -6766118.460 5  -5211987.84921         9.750           0.500
 91  5 15 19 24 29.9990000  0  6G18G 2G11G16G19G 6
  22113508.870     7546411.643 6   5868015.62721        17.500           1.406
  21712547.964   -12146195.942 7  -9383873.69122        20.250           2.219
  22991101.073    -6710739.915 6  -5169345.15121        15.250           0.750
  23257771.448    -5428182.667 5  -4116072.69721        10.250           0.656
  20858784.894      485475.134 6    381231.03222        16.750           2.063
  23172091.737    -6802231.930 5  -5240128.15721         9.750           0.594
 91  5 15 19 24 44.9990000  0  6G18G 2G11G16G19G 6
  22121064.448     7586114.873 6   5898953.12121        17.500           1.375
  21705490.730   -12183289.820 7  -9412777.98022        20.250           2.219
  22989559.472    -6718847.169 6  -5175662.48421        15.250           0.625
  23256470.995    -5435004.317 5  -4121388.29521        10.250           0.563
  20860248.472      493197.517 6    387248.45122        18.500           2.031
  23165224.230    -6838330.694 5  -5268256.99821         9.750           0.656
 91  5 15 19 24 59.9990000  0  6G18G 2G11G16G19G 6
  22128633.581     7625888.747 6   5929945.66221        17.250           1.406
  21698446.042   -12220310.103 7  -9441624.91822        20.250           2.344
  22988043.612    -6726809.363 6  -5181866.76721        15.500           0.656
  23255199.222    -5441695.270 5  -4126602.06821        10.500           0.531
  20861732.386      500965.930 6    393301.73822        16.750           2.125
  23158354.948    -6874416.929 5  -5296376.08821         9.750           0.563
 91  5 15 19 25 14.9990000  0  6G18G 2G11G16G19G 6
  22136214.034     7665730.212 6   5960990.87021        16.500           1.375
  21691414.792   -12257259.406 7  -9470416.54022        20.500           2.313
  22986556.394    -6734629.119 6  -5187960.07221        15.500           0.625
  23253951.534    -5448257.945 5  -4131715.88521        10.750           0.594
  20863213.706      508777.821 6    399388.90622        18.500           1.969
  23151493.120    -6910493.276 5  -5324487.47421        10.000           0.594
 91  5 15 19 25 29.9990000  0  6G18G 2G11G16G19G 6
  22143809.940     7705641.916 6   5992090.80521        16.750           1.375
  21684397.065   -12294134.831 7  -9499150.59922        20.500           2.219
  22985095.011    -6742303.455 6  -5193940.05821        15.750           0.688
  23252729.425    -5454689.523 5  -4136727.53721        10.250           0.656
  20864714.042      516636.137 6    405512.25122        16.750           2.031
  23144626.300    -6946556.978 5  -5352588.99521        10.000           0.594
 91  5 15 19 25 44.9990000  0  6G18G 2G11G16G19G 6
  22151417.628     7745622.964 6   6023244.78021        16.250           1.375
  21677394.081   -12330937.070 7  -9527827.63822        20.750           2.438
  22983662.581    -6749833.179 6  -5199807.36221        15.750           0.656
  23251528.667    -5460991.065 5  -4141637.87721        10.250           0.656
  20866212.847      524540.007 6    411671.08922        18.250           1.969
  23137768.948    -6982608.785 5  -5380681.25621        10.250           0.563
 91  5 15 19 25 59.9990000  0  6G18G 2G11G16G19G 6
  22159038.761     7785675.561 6   6054454.50921        16.000           1.406
  21670405.323   -12367663.550 7  -9556445.63822        20.500           2.250
  22982259.901    -6757215.620 6  -5205559.89321        15.750           0.688
  23250352.292    -5467160.153 5  -4146445.00621        10.500           0.594
  20867728.503      532491.763 6    417867.24622        17.500           2.000
  23130909.362    -7018646.314 5  -5408762.41621        10.250           0.563
 91  5 15 19 26 14.9990000  0  6G18G 2G11G16G19G 6
  22166674.940     7825794.723 6   6085716.09821        16.500           1.281
  21663429.831   -12404318.711 7  -9585008.06622        20.500           2.375
  22980879.339    -6764455.361 6  -5211201.24121        15.250           0.688
  23249204.433    -5473201.472 5  -4151152.56521        10.250           0.594
  20869248.112      540486.926 6    424097.22122        18.500           2.063
  23124056.605    -7054674.220 5  -5436836.04921        10.500           0.531
 91  5 15 19 26 29.9990000  0  6G18G 2G11G16G19G 6
  22174322.355     7865983.007 6   6117031.55321        16.250           1.281
  21656469.253   -12440899.951 7  -9613512.89222        20.750           2.344
  22979529.128    -6771549.702 6  -5216729.28921        15.250           0.719
  23248080.292    -5479112.216 5  -4155758.36621        10.250           0.563
  20870784.050      548528.128 6    430363.07022        17.000           1.969
  23117201.565    -7090689.900 5  -5464900.17121        10.250           0.656
 91  5 15 19 26 44.9990000  0  6G18G 2G11G16G19G 6
  22181982.925     7906240.728 6   6148401.11821        16.250           1.344
  21649521.870   -12477406.634 7  -9641959.61822        20.750           2.344
  22978207.636    -6778497.982 6  -5222143.51621        15.000           0.594
  23246980.300    -5484892.179 5  -4160262.26021        10.500           0.563
  20872316.870      556615.892 6    436665.20422        18.250           1.906
  23110349.065    -7126692.686 5  -5492954.25521        10.250           0.500
 91  5 15 19 26 59.9990000  0  6G18G 2G11G16G19G 6
  22189656.730     7946568.026 6   6179824.89421        16.250           1.406
  21642588.065   -12513838.347 7  -9670347.92422        20.750           2.438
  22976912.401    -6785299.766 6  -5227443.59521        15.000           0.813
  23245904.526    -5490541.153 5  -4164664.07221        10.750           0.594
  20873867.565      564750.724 6    443004.01522        17.250           1.875
  23103502.011    -7162682.410 5  -5520998.15721        10.250           0.500
 91  5 15 19 27 14.9990000  0  6G18G 2G11G16G19G 6
  22197344.019     7986962.474 6   6211300.99621        16.000           1.344
  21635670.558   -12550197.392 7  -9698679.61022        20.750           2.406
  22975648.448    -6791957.391 6  -5232631.35421        15.250           0.719
  23244855.050    -5496061.417 5  -4168965.60721        11.250           0.656
  20875420.831      572930.402 6    449377.77022        18.000           2.031
  23096656.034    -7198661.333 5  -5549033.66821        10.250           0.563
 91  5 15 19 27 29.9990000  0  6G18G 2G11G16G19G 6
  22205042.495     8027420.195 6   6242826.40321        16.000           1.281
  21628764.034   -12586487.459 7  -9726957.54822        20.500           2.438
  22974406.464    -6798474.452 6  -5237709.56921        15.000           0.719
  23243829.425    -5501456.388 5  -4173169.50821        11.250           0.656
  20876989.058      581151.035 6    455783.44222        16.750           1.969
  23089808.175    -7234633.242 5  -5577063.69021        10.250           0.438
 91  5 15 19 27 44.9990000  0  6G18G 2G11G16G19G 6
  22212753.948     8067943.485 6   6274402.90021        16.000           1.250
  21621872.167   -12622705.610 7  -9755179.44222        21.000           2.438
  22973194.651    -6804848.174 6  -5242676.10521        15.000           0.750
  23242827.315    -5506723.575 5  -4177273.84021        11.000           0.594
  20878557.901      589415.522 6    462223.28322        17.750           2.000
  23082965.089    -7270595.246 5  -5605085.97421        10.250           0.719
 91  5 15 19 27 59.9990000  0  6G18G 2G11G16G19G 6
  22220479.034     8108534.423 6   6306032.11121        16.250           1.188
  21614994.636   -12658849.576 7  -9783343.54122        20.500           2.438
  22972008.706    -6811076.172 6  -5247529.08421        15.250           0.781
  23241848.034    -5511860.729 5  -4181276.86121        10.750           0.563
  20880143.597      597726.297 6    468699.19122        17.000           2.125
  23076122.862    -7306545.189 5  -5633098.87721        10.500           0.563
 91  5 15 19 28 14.9990000  0  6G18G 2G11G16G19G 6
  22228214.534     8149192.820 6   6337713.89121        16.250           1.281
  21608130.167   -12694919.327 7  -9811449.80322        20.750           2.406
  22970850.667    -6817158.388 6  -5252268.46921        15.250           0.781
  23240895.167    -5516867.849 5  -4185178.55521        10.500           0.563
  20881730.386      606083.246 6    475211.07922        17.750           2.094
  23069285.550    -7342483.038 5  -5661102.33721        10.250           0.750
 91  5 15 19 28 29.9990000  0  6G18G 2G11G16G19G 6
  22235965.386     8189918.284 6   6369447.92321        16.500           1.250
  21601280.034   -12730914.799 7                        20.500
  22969720.855    -6823094.775 6  -5256894.21421        15.250           0.781
  23239967.956    -5521745.268 5  -4188979.16921        10.250           0.563
  20883332.917      614486.349 6    481758.93022        16.500           2.125
  23062449.519    -7378408.979 5                        10.500
 91  5 15 19 28 44.9990000  0  6G18G 2G11G16G19G 6
  22243728.058     8230710.419 6   6401233.91621        16.250           1.281
  21594444.151   -12766836.162 7                        20.500
  22968621.206    -6828885.439 6  -5261406.42121        15.250           0.781
  23239062.675    -5526493.268 5  -4192678.92421        10.250           0.625
  20884937.292      622935.369 6    488342.56622        17.500           2.094
  23055615.394    -7414323.183 5                        10.500
 91  5 15 19 28 59.9990000  0  6G18G 2G11G16G19G 6
  22251503.823     8271577.643 6   6433078.40521        16.250           1.313
  21587624.105   -12802674.958 7                        20.250
  22967545.925    -6834521.886 6  -5265798.44921        15.500           0.750
  23238186.386    -5531103.588 5  -4196271.40921        10.500           0.500
  20886561.347      631438.799 6    494968.59922        16.250           2.063
  23048784.901    -7450217.297 5                        10.750
 91  5 15 19 29 14.9990000  0  6G18G 2G11G16G19G 6
  22259295.269     8312517.318 6   6464979.36421        16.500           1.219
  21580820.308   -12838433.263 7  -9923278.69922        20.750           2.469
  22966502.964    -6840006.378 6  -5270072.06921        15.000           0.781
  23237333.972    -5535578.186 5  -4199758.14521        10.250           0.625
  20888184.011      639994.618 6    501635.45022        17.750           2.156
  23041956.589    -7486093.420 5  -5773005.82221        10.500           0.688
 91  5 15 19 29 29.9990000  0  6G18G 2G11G16G19G 6
  22267099.136     8353525.728 6   6496933.87421        16.500           1.313
  21574030.159   -12874114.490 7  -9951082.22922        20.250           2.406
  22965488.448    -6845342.302 6  -5274229.92821        15.250           0.750
  23236507.425    -5539920.965 5  -4203142.15421        10.250           0.500
  20889824.144      648599.197 6    508340.30022        16.750           2.156
  23035132.800    -7521955.192 5  -5800950.01221        10.750           0.625
 91  5 15 19 29 44.9990000  0  6G18G 2G11G16G19G 6
  22274916.136     8394604.000 6   6528942.82321        16.250           1.156
  21567256.378   -12909717.226 7  -9978824.58722        21.000           2.406
  22964502.253    -6850528.349 6  -5278270.99621        15.000           0.781
  23235708.940    -5544130.706 5  -4206422.49321        10.250           0.531
  20891468.730      657253.881 6    515084.19322        17.750           2.094
  23028310.456    -7557801.268 5  -5828881.97021        11.000           0.531
 91  5 15 19 29 59.9990000  0  6G18G 2G11G16G19G 6
  22282746.151     8435749.236 6   6561003.94721        16.250           1.281
  21560494.722   -12945243.986 7 -10006507.74322        20.750           2.469
  22963541.112    -6855566.999 6  -5282197.21121        15.000           0.688
  23234930.253    -5548209.974 5  -4209601.16221        10.000           0.625
  20893126.394      665956.134 6    521865.15322        16.750           2.188
  23021493.714    -7593634.201 5  -5856803.70221        11.250           0.531
 91  5 15 19 30 14.9990000  0  6G18G 2G11G16G19G 6
  22290587.300     8476959.657 6   6593115.87221        16.250           1.219
  21553748.120   -12980696.336 7 -10034132.91922        20.500           2.375
  22962611.323    -6860459.810 6  -5286009.78421        15.000           0.719
  23234177.433    -5552160.526 5  -4212679.53121        10.000           0.500
  20894789.253      674704.480 6    528682.03222        17.500           2.125
  23014678.331    -7629455.613 5  -5884716.45121        11.000           0.656
 91  5 15 19 30 29.9990000  0  6G18G 2G11G16G19G 6
  22298442.620     8518235.491 6   6625278.76021        16.500           1.094
  21547016.878   -13016073.873 7 -10061699.79922        20.250           2.375
  22961707.144    -6865206.307 6  -5289708.34121        14.750           0.719
  23233454.370    -5555981.947 5  -4215657.28621        10.250           0.594
  20896468.417      683499.187 6    535535.03122        16.000           2.188
  23007860.847    -7665265.198 5  -5912619.99321        11.000           0.594
 91  5 15 19 30 44.9990000  0  6G18G 2G11G16G19G 6
  22306309.753     8559572.272 6   6657489.14421        16.500           1.250
  21540298.151   -13051380.639 7 -10089211.53323        20.250           2.531
  22960831.487    -6869810.539 6  -5293296.05421        14.750           0.813
  23232747.253    -5559678.133 5  -4218537.45921        10.000           0.531
  20898143.917      692336.335 6    542421.10322        17.750           2.063
  23001048.175    -7701067.050 5  -5940517.50121        11.250           0.594
 91  5 15 19 30 59.9990000  0  6G18G 2G11G16G19G 6
  22314184.737     8600956.956 6   6689736.85021        16.250           1.219
  21533589.456   -13086629.691 7 -10116678.29622        20.250           2.406
  22959981.026    -6874285.634 6  -5296783.13221        14.750           0.750
  23232066.519    -5563262.736 5  -4221330.68721        10.500           0.594
  20899833.394      701202.758 6    549329.98722        16.750           2.063
  22994237.323    -7736874.228 5  -5968419.17421        11.250           0.625
 91  5 15 19 31 14.9990000  0  6G18G 2G11G16G19G 6
  22322071.862     8642402.393 6   6722031.90021        16.500           1.125
  21526895.792   -13121807.655 7 -10144089.66322        20.500           2.406
  22959155.480    -6878618.222 6  -5300159.16821        15.000           0.688
  23231408.128    -5566722.469 5  -4224026.60921        10.250           0.625
  20901526.581      710111.911 6    556272.16722        17.750           2.156
  22987420.394    -7772673.489 5  -5996314.66021        11.250           0.656
 91  5 15 19 31 29.9990000  0  6G18G 2G11G16G19G 6
  22329972.183     8683914.292 6   6754378.74221        16.250           1.125
  21520214.886   -13156908.363 7 -10171440.83522        20.250           2.438
  22958359.597    -6882802.295 6  -5303419.47921        14.750           0.656
  23230774.464    -5570051.497 5  -4226620.68021        10.250           0.500
  20903233.464      719069.880 6    563252.38422        17.000           2.125
  22980614.276    -7808458.820 5  -6024199.31521        11.250           0.563
 91  5 15 19 31 44.9990000  0  6G18G 2G11G16G19G 6
  22337882.620     8725489.143 6   6786774.63421        16.250           1.125
  21513551.362   -13191935.168 7 -10198734.42123        20.500           2.531
  22957590.081    -6886841.093 6  -5306566.58321        14.750           0.719
  23230167.136    -5573253.095 5  -4229115.48121        10.250           0.625
  20904943.480      728073.184 6    570267.93122        17.750           2.063
  22973805.097    -7844233.553 5  -6052075.69821        11.250           0.688
 91  5 15 19 31 59.9990000  0  6G18G 2G11G16G19G 6
  22345805.503     8767124.596 6   6819217.73821        16.250           1.156
  21506898.925   -13226890.303 7 -10225972.15322        20.250           2.469
  22956849.026    -6890736.934 6  -5309602.29321        14.750           0.781
  23229578.589    -5576329.678 5  -4231512.83221        10.000           0.500
  20906668.651      737119.489 6    577316.97922        17.250           2.031
  22966999.206    -7880000.055 5  -6079945.66921        11.250           0.688
 91  5 15 19 32 14.9990000  0  6G18G 2G11G16G19G 6
  22353742.175     8808829.625 6   6851715.06521        16.250           1.094
  21500263.519   -13261764.220 7 -10253146.59722        20.500           2.406
  22956137.237    -6894480.293 6  -5312519.20721        14.250           0.656
  23229022.487    -5579271.696 5  -4233805.35621        10.000           0.531
  20908398.573      746218.318 6    584406.95922        18.000           2.094
  22960194.487    -7915748.920 5  -6107801.88521        11.750           0.625
 91  5 15 19 32 29.9990000  0  6G18G 2G11G16G19G 6
  22361692.362     8850613.396 6   6884273.75121        16.000           1.156
  21493642.534   -13296547.791 7 -10280250.64822        20.500           2.344
  22955453.636    -6898062.040 6  -5315310.16921        14.250           0.719
  23228487.761    -5582070.431 5  -4235986.21421        10.250           0.594
  20910144.698      755378.934 6    591545.08122        17.250           2.063
  22953399.980    -7951471.055 5  -6135637.29021        11.250           0.594
 91  5 15 19 32 44.9990000  0  6G18G 2G11G16G19G 6
  22369659.355     8892479.505 6   6916896.58921        16.000           1.063
  21487042.878   -13331236.890 7 -10307281.08622        20.750           2.406
  22954806.159    -6901478.078 6  -5317972.00521        14.250           0.500
  23227983.855    -5584721.768 5  -4238052.21521        10.000           0.625
  20911896.753      764605.441 6    598734.54622        18.000           2.063
  22946607.886    -7987162.331 5  -6163448.64221        11.500           0.750
 91  5 15 19 32 59.9990000  0  6G18G 2G11G16G19G 6
  22377637.011     8934395.734 6   6949558.48721        15.750           1.156
  21480454.589   -13365863.242 7 -10334262.62422        20.750           2.438
  22954179.401    -6904760.108 6  -5320529.42521        14.250           0.688
  23227500.331    -5587257.655 5  -4240028.25721        10.250           0.594
  20913662.378      773865.958 6    605950.51522        17.500           2.094
  22939813.511    -8022854.545 5  -6191260.70921        11.500           0.625
 91  5 15 19 33 14.9990000  0  6G18G 2G11G16G19G 6
  22385622.425     8976361.532 6   6982259.00121        15.750           1.063
  21473876.300   -13400427.562 7 -10361195.83122        21.000           2.375
  22953580.940    -6907908.786 6  -5322982.94021        14.500           0.688
  23227041.503    -5589678.948 5  -4241915.01821        10.250           0.531
  20915426.737      783159.795 6    613192.44022        18.250           2.156
  22933023.355    -8058548.387 5  -6219074.05421        11.250           0.750
 91  5 15 19 33 29.9990000  0  6G18G 2G11G16G19G 6
  22393619.480     9018391.310 6   7015009.37421        15.750           1.031
  21467313.683   -13434915.369 7 -10388069.40822        21.000           2.469
  22953013.042    -6910909.711 6  -5325321.31321        14.750           0.719
  23226605.565    -5591971.258 5  -4243701.24821        10.500           0.594
  20917212.136      792501.601 6    620471.75222        16.250           2.063
  22926235.167    -8094229.510 5  -6246877.48821        11.750           0.656
 91  5 15 19 33 44.9990000  0  6G18G 2G11G16G19G 6
  22401629.800     9060480.532 6   7047806.06221        15.750           1.031
  21460764.644   -13469330.337 7 -10414886.23722        20.750           2.375
  22952468.284    -6913766.647 6  -5327547.50321        14.750           0.688
  23226194.105    -5594138.466 5  -4245390.01221        10.750           0.531
  20918990.901      801887.594 6    627785.49522        18.000           2.063
  22919444.003    -8129901.666 5  -6274673.92521        11.250           0.656
 91  5 15 19 33 59.9990000  0  6G18G 2G11G16G19G 6
  22409650.847     9102633.156 6   7080652.15821        15.750           1.000
  21454229.862   -13503668.533 7 -10441643.23622        21.250           2.344
  22951950.308    -6916475.705 6  -5329658.45321        14.750           0.688
  23225805.417    -5596176.926 5  -4246978.46021        10.500           0.594
  20920790.792      811321.625 6    635136.66722        16.750           2.063
  22912659.370    -8165560.932 5  -6302460.33521        11.750           0.688
 91  5 15 19 34 14.9990000  0  6G18G 2G11G16G19G 6
  22417684.003     9144846.239 6   7113545.35821        15.750           1.000
  21447710.128   -13537932.666 7 -10468342.52522        21.000           2.469
  22951464.120    -6919039.466 6  -5331656.18821        14.750           0.719
  23225439.675    -5598089.183 5  -4248468.54821        10.750           0.531
  20922589.909      820801.227 6    642523.34622        18.000           2.125
  22905872.894    -8201210.092 5  -6330238.85521        11.500           0.813
 91  5 15 19 34 29.9990000  0  6G18G 2G11G16G19G 6
  22425728.409     9187119.127 6   7146485.16721        15.250           1.063
  21441203.370   -13572122.804 7 -10494984.15622        21.000           2.375
  22951005.144    -6921458.166 6  -5333540.88721        15.250           0.750
  23225100.933    -5599875.870 5  -4249860.80821        10.750           0.500
  20924405.769      830326.039 6    649945.25322        17.000           2.094
  22899090.620    -8236849.380 5  -6358009.69821        11.250           0.625
 91  5 15 19 34 44.9990000  0  6G18G 2G11G16G19G 6
  22433784.440     9229457.781 6   7179476.22121        15.750           1.031
  21434712.636   -13606232.739 7 -10521563.29422        21.250           2.375
  22950571.940    -6923725.685 6  -5335307.78721        15.250           0.750
  23224785.800    -5601530.716 5  -4251150.32021        10.500           0.500
  20926225.300      839902.178 6    657407.15422        17.750           2.063
  22892311.831    -8272472.611 5  -6385768.01621        11.500           0.656
 91  5 15 19 34 59.9990000  0  6G18G 2G11G16G19G 6
  22441854.214     9271858.880 6   7212515.92621        15.500           1.031
  21428236.901   -13640265.668 7 -10548082.42323        21.250           2.500
  22950167.878    -6925845.210 6  -5336959.36621        15.000           0.656
  23224493.847    -5603056.894 5  -4252339.59221        10.500           0.469
  20928058.464      849526.587 6    664906.67722        17.000           2.156
  22885536.503    -8308083.044 5  -6413516.37521        11.500           0.625
 91  5 15 19 35 14.9990000  0  6G18G 2G11G16G19G 6
  22449932.901     9314318.414 6   7245601.16821        15.500           1.125
  21421773.503   -13674225.417 7 -10574544.53822        21.000           2.438
  22949793.605    -6927820.508 6  -5338498.55721        15.000           0.656
  23224226.464    -5604458.525 5  -4253431.79921        10.500           0.531
  20929896.433      859195.380 6    672440.78122        17.750           2.031
  22878760.808    -8343684.497 5  -6441257.74421        11.250           0.688
 91  5 15 19 35 29.9990000  0  6G18G 2G11G16G19G 6
  22458025.542     9356837.884 6   7278733.11121        15.500           0.969
  21415326.722   -13708109.890 7 -10600947.98522        21.500           2.469
  22949445.839    -6929649.558 6  -5339923.79121        15.000           0.656
  23223984.651    -5605733.855 5  -4254425.59821        10.250           0.563
  20931751.448      868910.508 6    680010.98622        16.250           2.125
  22871989.917    -8379274.928 5  -6468990.50921        11.750           0.719
 91  5 15 19 35 44.9990000  0  6G18G 2G11G16G19G 6
  22466128.956     9399414.300 6   7311909.43521        15.500           1.000
  21408892.081   -13741921.908 7 -10627294.98322        21.500           2.469
  22949122.612    -6931335.395 6  -5341237.43721        15.250           0.719
  23223765.167    -5606885.731 5  -4255323.18721        10.000           0.500
  20933602.144      878669.166 6    687615.11822        17.750           2.188
  22865219.425    -8414857.406 5  -6496717.08121        11.250           0.656
 91  5 15 19 35 59.9990000  0  6G18G 2G11G16G19G 6
  22474240.800     9442050.089 6   7345132.01121        15.250           1.031
  21402472.081   -13775658.606 7 -10653583.28322        21.500           2.438
  22948831.292    -6932875.128 6  -5342437.22321        15.250           0.781
  23223569.933    -5607911.471 5  -4256122.50021        10.250           0.563
  20935470.136      888474.294 6    695255.45822        17.250           2.188
  22858452.878    -8450429.128 5  -6524435.27721        11.500           0.656
 91  5 15 19 36 14.9990000  0  6G18G 2G11G16G19G 6
  22482366.245     9484745.566 6   7378401.10421        15.500           1.031
  21396065.909   -13809319.629 7 -10679812.61123        21.750           2.531
  22948566.901    -6934268.324 6  -5343522.83721        15.000           0.656
  23223400.683    -5608811.069 5  -4256823.52521        10.250           0.563
  20937344.394      898326.317 6    702932.33522        17.750           2.125
  22851683.730    -8485989.547 5  -6552144.65921        11.250           0.719
 91  5 15 19 36 29.9990000  0  6G18G 2G11G16G19G 6
  22490501.628     9527501.364 6   7411717.19921        15.000           0.906
  21389676.542   -13842904.006 7 -10705982.21222        21.750           2.469
  22948326.714    -6935514.045 6  -5344493.53721        15.000           0.719
  23223253.894    -5609583.562 5  -4257425.48521        10.250           0.531
  20939230.175      908226.066 6    710646.40222        17.000           2.094
  22844917.573    -8521537.797 5  -6579844.55221        11.250           0.656
 91  5 15 19 36 44.9990000  0  6G18G 2G11G16G19G 6
  22498650.105     9570318.732 6   7445081.26521        15.000           1.000
  21383299.151   -13876410.188 7 -10732090.90522        21.750           2.438
  22948120.394    -6936610.822 6  -5345348.16721        14.750           0.719
  23223129.972    -5610227.440 5  -4257927.25621        10.750           0.531
  20941120.901      918175.229 6    718398.97722        17.750           2.125
  22838157.651    -8557072.490 5  -6607533.88221        11.250           0.625
 91  5 15 19 36 59.9990000  0  6G18G 2G11G16G19G 6
  22506809.542     9613193.239 6   7478489.86321        15.000           1.031
  21376937.214   -13909842.118 7 -10758141.72522        22.000           2.406
  22947940.097    -6937562.608 6  -5346089.83221        15.000           0.719
  23223029.261    -5610746.907 5  -4258332.06221        10.250           0.531
  20943027.480      928169.625 6    726186.79222        16.250           2.156
  22831397.659    -8592597.556 5  -6635215.73021        11.000           0.563
 91  5 15 19 37 14.9990000  0  6G18G 2G11G16G19G 6
  22514978.433     9656127.385 6   7511944.92821        15.000           1.031
  21370590.597   -13943197.237 7 -10784132.69522        22.000           2.469
  22947787.448    -6938367.022 6  -5346716.64521        14.750           0.656
  23222958.409    -5611139.735 5  -4258638.21221        10.500           0.531
  20944933.706      938211.909 6    734011.92922        18.000           2.094
  22824636.519    -8628110.644 5  -6662888.20821        11.500           0.594
 91  5 15 19 37 29.9990000  0  6G18G 2G11G16G19G 6
  22523160.589     9699121.372 6   7545446.62221        15.000           0.969
  21364256.769   -13976475.142 7 -10810063.50222        22.250           2.375
  22947659.065    -6939023.500 6  -5347228.19121        14.750           0.656
  23222905.730    -5611405.473 5  -4258845.30921        10.000           0.594
  20946860.120      948302.684 6    741874.85222        16.250           2.063
  22817883.667    -8663611.176 5  -6690550.92521        11.000           0.625
 91  5 15 19 37 44.9990000  0  6G18G 2G11G16G19G 6
  22531353.745     9742172.032 6   7578992.47421        14.750           0.875
  21357939.011   -14009678.186 7 -10835935.97023        22.250           2.531
  22947564.917    -6939534.648 6  -5347626.49521        14.750           0.719
  23222880.855    -5611546.982 5                        10.250
  20948783.269      958439.368 6    749773.54422        18.000           2.063
  22811126.815    -8699101.747 5  -6718205.89121        11.000           0.750
 91  5 15 19 37 59.9990000  0  6G18G 2G11G16G19G 6
  22539557.190     9785282.015 6   7612584.55121        15.000           1.031
  21351635.214   -14042804.031 7 -10861748.28723        22.500           2.500
  22947497.003    -6939898.110 6  -5347909.70621        15.000           0.781
  23222876.276    -5611561.724 5                        10.000
  20950726.948      968624.234 6    757709.77822        16.500           2.063
  22804378.808    -8734579.922 5  -6745851.20421        11.250           0.719
 91  5 15 19 38 14.9990000  0  6G18G 2G11G16G19G 6
  22547772.753     9828453.316 6   7646224.39921        14.500           0.969
  21345347.472   -14075850.229 7 -10887498.53923        22.500           2.531
  22947453.745    -6940111.369 6                        14.500
  23222897.331    -5611447.441 5                        10.000
  20952668.722      978859.883 6    765685.59322        18.250           2.031
  22797628.909    -8770043.349 5  -6773485.01521        11.250           0.688
 91  5 15 19 38 29.9990000  0  6G18G 2G11G16G19G 6
  22555997.401     9871684.897 6   7679911.23721        14.500           0.938
  21339073.378   -14108817.609 7 -10913187.38023        22.250           2.500
  22947441.550    -6940175.410 6                        14.750
  23222946.105    -5611205.381 5                        10.250
  20954628.659      989145.296 6    773700.17622        17.250           1.969
  22790883.862    -8805492.988 5  -6801108.09121        11.250           0.750
 91  5 15 19 38 44.9990000  0  6G18G 2G11G16G19G 6
  22564236.136     9914976.775 6   7713645.04721        14.500           0.969
  21332815.620   -14141705.881 7 -10938814.57523        22.500           2.531
  22947459.940    -6940090.041 6                        15.000
  23223015.550    -5610835.112 5                        10.250
  20956593.480      999480.868 6    781753.84122        18.250           2.000
  22784139.870    -8840928.398 5  -6828720.06121        11.000           0.625
 91  5 15 19 38 59.9990000  0  6G18G 2G11G16G19G 6
  22572488.198     9958326.186 6   7747423.69521        14.250           0.938
  21326570.644   -14174517.368 7 -10964381.92923        22.250           2.563
  22947502.573    -6939857.646 6                        14.750
  23223110.815    -5610339.413 5  -4258014.86721        10.250           0.500
  20958574.581     1009864.161 6    789844.70122        16.750           2.000
  22777399.589    -8876352.135 5  -6856322.92221        11.250           0.750
 91  5 15 19 39 14.9990000  0  6G18G 2G11G16G19G 6
  22580747.620    10001732.592 6   7781246.74921        14.500           0.875
  21320342.933   -14207252.133 7 -10989889.50723        22.000           2.656
  22947575.347    -6939478.189 6                        14.750
  23223228.105    -5609718.594 5  -4257531.15121        10.000           0.531
  20960553.011     1020295.090 6    797972.67022        18.500           2.031
  22770659.972    -8911764.273 5  -6883916.76521        10.750           0.656
 91  5 15 19 39 29.9990000  0  6G18G 2G11G16G19G 6
  22589019.269    10045196.016 6   7815114.24021        14.500           0.844
  21314127.464   -14239910.048 7 -11015337.20323        22.250           2.531
  22947678.542    -6938951.596 6  -5347172.21021        14.500           0.750
  23223368.933    -5608972.603 5  -4256949.91721        10.250           0.469
  20962550.362     1030774.080 6    806138.09622        17.250           1.969
  22763926.026    -8947164.646 5  -6911501.44521        11.250           0.750
 91  5 15 19 39 44.9990000  0  6G18G 2G11G16G19G 6
  22597300.394    10088714.017 6   7849024.24921        14.750           0.906
  21307927.042   -14272493.330 7 -11040726.74123        22.250           2.563
  22947801.394    -6938280.149 6  -5346649.01621        14.250           0.688
  23223535.019    -5608103.819 5  -4256272.99821        10.250           0.531
  20964550.355     1041298.731 6    814339.09922        18.250           2.031
  22757191.769    -8982555.560 5  -6939078.74821        11.000           0.750
 91  5 15 19 39 59.9990000  0  6G18G 2G11G16G19G 6
  22605591.440    10132291.490 6   7882980.61221        14.500           0.906
  21301742.745   -14304996.920 7 -11066054.18923        22.500           2.688
  22947959.206    -6937458.944 6  -5346009.11321        14.250           0.656
  23223725.151    -5607107.224 5  -4255496.47721        10.250           0.406
  20966565.495     1051874.119 6    822579.63822        17.250           2.000
  22750456.308    -9017931.911 5  -6966644.69821        11.000           0.688
 91  5 15 19 40 14.9990000  0  6G18G 2G11G16G19G 6
  22613893.198    10175923.504 6   7916979.46521        14.500           0.969
  21295570.237   -14337425.376 7 -11091323.09023        22.000           2.625
  22948143.659    -6936492.597 6  -5345256.12721        14.500           0.656
  23223939.323    -5605987.658 5  -4254624.14121        10.000           0.563
  20968582.894     1062495.729 6    830856.19722        18.250           1.906
  22743725.886    -9053298.440 5  -6994202.99921        11.250           0.844
 91  5 15 19 40 29.9990000  0  6G18G 2G11G16G19G 6
  22622206.050    10219608.610 6   7951019.68921        14.250           0.875
  21289414.956   -14369779.962 7 -11116534.42323        22.250           2.719
  22948353.597    -6935382.358 6  -5344391.01821        14.500           0.719
  23224175.933    -5604746.649 5  -4253657.17721         9.750           0.531
  20970616.347     1073162.335 6    839167.81022        17.250           1.906
  22736996.636    -9088656.290 5  -7021754.53121        11.250           0.750
 91  5 15 19 40 44.9990000  0  6G18G 2G11G16G19G 6
  22630529.456    10263346.291 6   7985100.88921        14.250           0.875
  21283271.433   -14402060.563 7 -11141688.10723        22.250           2.688
  22948591.487    -6934128.197 6  -5343413.75721        14.250           0.688
  23224432.019    -5603384.413 5  -4252595.74421         9.500           0.563
  20972651.355     1083874.032 6    847514.56622        18.000           1.813
  22730270.480    -9124005.397 5  -7049299.24921        11.500           0.813
 91  5 15 19 40 59.9990000  0  6G18G 2G11G16G19G 6
  22638862.862    10307140.691 6   8019226.27321        14.000           0.938
  21277143.089   -14434263.172 7 -11166781.01623        21.500           2.719
  22948860.058    -6932726.160 6                        13.750
  23224715.948    -5601896.767 5                         9.500
  20974704.198     1094634.763 6    855899.52822        16.750           1.750
  22723547.323    -9159341.914 6  -7076834.15921        12.500           0.813
 91  5 15 19 41 14.9990000  0  6G18G 2G11G16G19G 6
  22647208.081    10350992.687 6   8053396.53421        14.250           0.938
  21271031.276   -14466386.311 7 -11191812.00023        21.750           2.719
  22949155.605    -6931175.006 6                        13.750
  23225022.065    -5600282.592 5                         9.750
  20976756.151     1105446.031 6    864323.87322        17.750           1.719
  22716825.925    -9194664.411 6  -7104358.16021        12.500           0.750
 91  5 15 19 41 29.9990000  0  6G18G 2G11G16G19G 6
  22655565.003    10394900.483 6   8087610.28621        14.000           0.969
  21264932.065   -14498431.404 7 -11216782.18223        22.000           2.813
  22949477.706    -6929476.007 6                        13.750
  23225353.386    -5598543.541 5                         9.000
  20978829.401     1116306.286 6    872786.38222        16.250           1.813
  22710106.933    -9229974.285 6  -7131872.30421        12.000           0.844
 91  5 15 19 41 44.9990000  0  6G18G 2G11G16G19G 6
  22663930.151    10438865.168 6   8121868.37121        13.750           0.906
  21258848.745   -14530397.279 7 -11241690.62523        22.250           2.719
  22949829.144    -6927628.178 6                        14.250
  23225710.331    -5596678.668 5                        10.000
  20980899.433     1127216.806 6    881288.06222        18.000           1.875
  22703392.597    -9265270.486 5  -7159375.79921        11.750           0.781
 91  5 15 19 41 59.9990000  0  6G18G 2G11G16G19G 6
  22672308.003    10482884.086 6   8156168.70421        14.250           0.813
  21252780.565   -14562286.277 7 -11266539.16623        22.000           2.813
  22950208.495    -6925633.890 6                        14.250
  23226086.980    -5594690.257 5                         9.750
  20982987.769     1138175.130 6    889826.99322        17.250           1.844
  22696677.487    -9300555.324 5  -7186870.44821        11.750           0.781
 91  5 15 19 42 14.9990000  0  6G18G 2G11G16G19G 6
  22680694.722    10526957.639 6   8190511.60521        14.000           0.875
  21246727.331   -14594097.783 7 -11291327.32423        22.000           2.875
  22950616.198    -6923492.794 6                        14.000
  23226490.347    -5592578.078 5                        10.000
  20985079.042     1149181.962 6    898403.71922        18.000           1.781
  22689963.987    -9335828.234 5  -7214355.78321        11.750           0.844
 91  5 15 19 42 29.9990000  0  6G18G 2G11G16G19G 6
  22689092.659    10571084.295 6   8224895.89721        14.000           0.938
  21240688.730   -14625833.109 7 -11316056.11923        22.000           2.875
  22951049.706    -6921205.977 6                        14.000
  23226913.050    -5590343.403 5                         9.500
  20987186.065     1160236.085 6    907017.29822        17.250           1.781
  22683252.620    -9371090.485 5  -7241832.82121        11.750           0.813
 91  5 15 19 42 44.9990000  0  6G18G 2G11G16G19G 6
  22697498.183    10615262.593 6   8259320.41821        14.000           0.906
  21234662.480   -14657493.149 7 -11340726.25123        22.000           2.875
  22951514.261    -6918774.548 6                        14.250
  23227364.487    -5587987.584 5                        10.000
  20989295.565     1171336.423 6    915666.88622        18.000           1.844
  22676546.698    -9406343.144 5  -7269302.38921        11.750           0.875
 91  5 15 19 42 59.9990000  0  6G18G 2G11G16G19G 6
  22705915.378    10659491.609 6   8293784.46421        13.750           0.844
  21228653.456   -14689078.855 7 -11365338.46123        22.000           2.813
  22952004.636    -6916199.603 6  -5329443.51921        14.250           0.656
  23227834.901    -5585511.937 5  -4238669.66121         9.750           0.500
  20991421.112     1182482.039 6    924351.76222        16.250           1.781
  22669837.472    -9441587.197 6  -7296765.24521        12.000           0.844
 91  5 15 19 43 14.9990000  0  6G18G 2G11G16G19G 6
  22714341.815    10703773.175 6   8328289.45221        14.000           0.813
  21222656.839   -14720587.903 7 -11389890.93823        22.000           2.875
  22952521.940    -6913478.723 6  -5327323.36821        14.250           0.656
  23228327.128    -5582914.218 5  -4236645.51921         9.500           0.469
  20993547.136     1193675.384 6    933073.82222        18.250           1.781
  22663134.362    -9476820.290 6  -7324219.56721        12.000           0.813
 91  5 15 19 43 29.9990000  0  6G18G 2G11G16G19G 6
  22722776.589    10748109.201 6   8362836.88021        13.750           0.813
  21216675.292   -14752018.168 7 -11414382.02723        22.000           3.000
  22953070.315    -6910609.831 6  -5325087.87821        14.500           0.594
  23228846.667    -5580192.240 5  -4234524.57421         9.500           0.563
  20995688.448     1204918.622 6    941834.76022        17.000           1.781
  22656430.042    -9512040.297 6  -7351663.69321        12.000           0.813
 91  5 15 19 43 44.9990000  0  6G18G 2G11G16G19G 6
  22731224.167    10792493.875 6   8397422.21421        13.750           0.906
  21210708.901   -14783375.515 7 -11438816.30223        22.000           2.906
  22953641.706    -6907598.777 6  -5322741.61121        14.500           0.750
  23229386.323    -5577351.704 5  -4232311.22621         9.750           0.594
  20997835.214     1216205.961 6    950630.06722        18.250           1.875
  22649731.370    -9547252.853 6  -7379102.01321        12.000           0.813
 91  5 15 19 43 59.9990000  0  6G18G 2G11G16G19G 6
  22739681.792    10836931.534 6   8432048.82821        13.750           0.844
  21204757.167   -14814655.154 7 -11463190.02623        22.250           2.813
  22954241.628    -6904440.789 6  -5320280.85721        14.000           0.563
  23229952.081    -5574388.531 5  -4230002.33621         9.750           0.594
  20999993.964     1227542.113 6    959463.40422        17.250           1.906
  22643032.589    -9582453.384 6  -7406530.96321        12.250           0.844
 91  5 15 19 44 14.9990000  0  6G18G 2G11G16G19G 6
  22748147.636    10881418.790 6   8466714.09321        13.500           0.813
  21198817.628   -14845859.986 7 -11487505.45123        21.750           2.906
  22954872.183    -6901139.015 6  -5317708.05921        14.500           0.656
  23230536.370    -5571305.709 5  -4227600.19721         9.500           0.563
  21002157.956     1238924.238 6    968332.57022        18.250           1.938
  22636336.901    -9617644.894 6  -7433952.88721        12.250           0.875
 91  5 15 19 44 29.9990000  0  6G18G 2G11G16G19G 6
  22756622.300    10925957.452 6   8501419.41521        13.500           0.813
  21192895.198   -14876988.102 7 -11511761.10223        22.000           2.719
  22955528.292    -6897691.651 6  -5315021.80621        14.250           0.656
  23231148.136    -5568101.526 5  -4225103.51321        10.000           0.563
  21004334.370     1250354.238 6    977239.03022        17.250           1.844
  22629639.065    -9652825.454 6  -7461366.27621        12.250           0.719
 91  5 15 19 44 44.9990000  0  6G18G 2G11G16G19G 6
  22765108.878    10970549.803 6   8536166.57021        13.750           0.813
  21186986.933   -14908036.666 7 -11535954.75923        21.750           2.844
  22956210.956    -6894096.016 6  -5312220.02721        14.000           0.719
  23231781.487    -5564773.416 5  -4222510.25021         9.500           0.625
  21006516.675     1261834.988 6    986185.05222        18.250           1.844
  22622949.534    -9687992.331 6  -7488768.99721        12.250           0.844
 91  5 15 19 44 59.9990000  0  6G18G 2G11G16G19G 6
  22773604.276    11015196.074 6   8570955.74221        13.250           0.875
  21181092.050   -14939005.381 7 -11560086.19923        21.500           2.906
  22956922.815    -6890351.748 6  -5309302.42921        14.000           0.656
  23232439.784    -5561321.177 5  -4219820.25921        10.000           0.594
  21008713.589     1273366.779 6    995170.83622        17.250           1.906
  22616260.847    -9723145.086 6  -7516160.72421        12.000           0.844
 91  5 15 19 45 14.9990000  0  6G18G 2G11G16G19G 6
  22782110.292    11059893.892 6   8605785.07821        13.000           0.906
  21175215.440   -14969896.294 7 -11584157.00923        22.000           2.906
  22957665.542    -6886461.081 6  -5306270.74221        14.250           0.625
  23233117.675    -5557747.123 5  -4217035.37021        10.000           0.500
  21010915.097     1284947.391 6   1004194.66222        18.000           1.844
  22609571.386    -9758285.909 6  -7543543.15221        12.250           0.750
 91  5 15 19 45 29.9990000  0  6G18G 2G11G16G19G 6
  22790624.573    11104639.337 6   8640651.52321        13.000           0.844
  21169352.425   -15000713.012 7 -11608170.00523        21.750           2.938
  22958433.019    -6882427.731 6  -5303127.88121        14.000           0.656
  23233819.878    -5554055.156 5  -4214158.57421        10.000           0.594
  21013129.206     1296573.288 6   1013253.78122        17.250           1.938
  22602885.909    -9793418.484 6  -7570919.14521        12.250           0.844
 91  5 15 19 45 44.9990000  0  6G18G 2G11G16G19G 6
  22799150.034    11149433.570 6   8675555.98221        13.000           0.844
  21163501.526   -15031453.906 7 -11632123.92323        22.000           2.938
  22959226.261    -6878250.277 6  -5299872.73721        13.500           0.656
  23234546.964    -5550244.182 5  -4211189.05921        10.250           0.531
  21015348.230     1308245.984 6   1022349.36822        18.000           1.875
  22596200.808    -9828541.329 6  -7598287.56221        12.250           0.781
 91  5 15 19 45 59.9990000  0  6G18G 2G11G16G19G 6
  22807682.995    11194278.658 6   8710500.07221        12.500           0.875
  21157665.745   -15062116.960 7 -11656017.18523        22.250           2.906
  22960048.753    -6873926.641 6  -5296503.68221        13.750           0.625
  23235293.901    -5546312.000 5  -4208125.09521        10.000           0.531
  21017586.526     1319967.727 6   1031483.16122        15.750           1.906
  22589522.026    -9863652.195 6  -7625646.64121        12.500           0.813
 91  5 15 19 46 14.9990000  0  6G18G 2G11G16G19G 6
  22816225.690    11239171.751 6   8745481.56321        12.250           0.719
  21151844.847   -15092704.795 7 -11679851.83523        22.250           3.031
  22960897.925    -6869459.430 6  -5293022.74621        14.000           0.594
  23236065.636    -5542261.183 5  -4204968.68821        10.250           0.469
  21019819.190     1331735.777 6   1040653.04522        17.750           1.969
  22582842.237    -9898753.821 6  -7652998.52621        12.500           0.844
 91  5 15 19 46 29.9990000  0  6G18G 2G11G16G19G 6
  22824779.105    11284117.712 6   8780504.24321        12.500           0.750
  21146039.542   -15123212.287 7 -11703623.87623        22.000           2.969
  22961778.198    -6864843.542 6  -5289425.96021        13.750           0.594
  23236859.956    -5538086.860 5  -4201716.05221        10.000           0.563
  21022072.339     1343555.551 6   1049863.23122        16.500           1.875
  22576166.151    -9933840.897 6  -7680339.07621        12.750           0.813
 91  5 15 19 46 44.9990000  0  6G18G 2G11G16G19G 6
  22833341.909    11329113.102 6   8815565.45221        12.250           0.781
  21140248.480   -15153642.241 7 -11727335.50223        22.250           2.906
  22962684.183    -6860082.003 6  -5285715.68021        14.000           0.594
  23237676.019    -5533792.335 5  -4198369.73621        10.000           0.500
  21024326.612     1355424.088 6   1059111.41422        17.500           1.906
  22569490.417    -9968916.432 6  -7707670.63421        12.500           0.813
 91  5 15 19 46 59.9990000  0  6G18G 2G11G16G19G 6
  22841911.987    11374157.221 5   8850664.61921        11.750           0.688
  21134473.370   -15183995.206 7 -11750987.13623        22.250           3.000
  22963615.636    -6855175.452 6  -5281892.41121        13.500           0.656
  23238517.237    -5529378.212 5  -4194930.22921        10.250           0.531
  21026597.589     1367340.783 6   1068397.12222        16.750           1.875
  22562817.901   -10003980.940 6  -7734993.59321        12.750           0.813
 91  5 15 19 47 14.9990000  0  6G18G 2G11G16G19G 6
  22850492.980    11419250.734 6   8885802.27921        12.000           0.750
  21128712.526   -15214270.248 7 -11774578.05323        22.500           3.063
  22964578.284    -6850123.138 6  -5277955.55721        13.500           0.719
  23239378.003    -5524843.901 5  -4191397.09021        10.000           0.531
  21028870.948     1379306.516 6   1077721.03922        17.750           1.781
  22556148.159   -10039033.651 6  -7762307.36721        13.000           0.781
 91  5 15 19 47 29.9990000  0  6G18G 2G11G16G19G 6
  22859082.776    11464392.973 5   8920977.90721        11.750           0.625
  21122965.605   -15244467.714 7 -11798108.52323        22.250           3.125
  22965567.269    -6844925.484 6  -5273905.44421        13.750           0.594
  23240267.542    -5520189.819 5  -4187770.59621        10.500           0.531
  21031159.636     1391321.082 6   1087083.01622        17.500           1.875
  22549476.519   -10074074.877 6  -7789612.19521        12.500           0.844
 91  5 15 19 47 44.9990000  0  6G18G 2G11G16G19G 6
  22867684.558    11509585.389 5   8956192.62721        11.750           0.719
  21117234.089   -15274586.105 7 -11821577.36823        22.750           3.063
  22966585.620    -6839581.025 6  -5269740.94721        14.000           0.594
  23241173.151    -5515414.706 5  -4184049.79921        10.250           0.406
  21033454.159     1403386.059 6   1096484.26622        18.250           1.906
  22542813.987   -10109103.040 6  -7816906.83821        13.000           0.813
 91  5 15 19 47 59.9990000  0  6G18G 2G11G16G19G 6
  22876293.440    11554823.481 5   8991442.94521        11.750           0.781
  21111517.222   -15304629.723 7 -11844987.95123        23.000           2.969
  22967627.831    -6834094.063 6  -5265465.40621        13.750           0.594
  23242104.714    -5510522.858 5  -4180238.04121        10.750           0.594
  21035764.065     1415497.231 6   1105921.52022        16.500           1.844
  22536152.425   -10144122.344 6  -7844194.57421        13.000           0.875
 91  5 15 19 48 14.9990000  0  6G18G 2G11G16G19G 6
  22884908.128    11600107.907 5   9026729.36821        11.750           0.781
  21105814.097   -15334597.401 7 -11868339.36123        22.250           3.094
  22968700.370    -6828463.651 6  -5261078.08521        14.250           0.563
  23243059.503    -5505513.406 5  -4176334.64621        10.250           0.531
  21038071.706     1427655.658 6   1115395.59022        18.500           1.906
  22529487.315   -10179131.824 6  -7871474.66321        12.500           0.781
 91  5 15 19 48 29.9990000  0  6G18G 2G11G16G19G 6
  22893537.105    11645440.847 5   9062053.58321        11.500           0.719
  21100127.651   -15364486.522 7 -11891629.54923        22.000           3.094
  22969798.948    -6822687.243 6  -5256576.99921        14.000           0.594
  23244034.722    -5500384.241 5  -4172337.96521        10.250           0.469
  21040397.503     1439863.991 6   1124908.55122        18.000           1.969
  22522826.901   -10214128.830 6  -7898745.02721        12.500           0.875
 91  5 15 19 48 44.9990000  0  6G18G 2G11G16G19G 6
  22902172.628    11690823.940 6   9097416.88421        12.000           0.719
  21094453.980   -15394295.583 7 -11914857.35823        22.000           3.000
  22970925.128    -6816763.518 6  -5251961.14021        14.000           0.719
  23245035.284    -5495134.010 5  -4168246.95821        10.500           0.563
  21042728.620     1452123.867 6   1134461.67122        18.750           1.781
  22516171.347   -10249111.792 6  -7926004.46121        12.500           0.813
 91  5 15 19 48 59.9990000  0  6G18G 2G11G16G19G 6
  22910817.230    11736248.028 6   9132812.12521        12.000           0.656
  21088795.425   -15424033.563 7 -11938029.78123        22.250           3.063
  22972078.565    -6810701.266 6  -5247237.32321        13.750           0.594
  23246053.925    -5489771.415 5  -4164068.39121        10.250           0.531
  21045072.753     1464426.405 6   1144048.03922        18.000           1.813
  22509515.644   -10284089.604 6  -7953259.86721        12.500           0.844
 91  5 15 19 49 14.9990000  0  6G18G 2G11G16G19G 6
  22919468.894    11781716.653 5   9168242.07321        11.750           0.719
  21083151.464   -15453696.267 7 -11961143.54823        22.250           2.969
  22973260.175    -6804496.546 6  -5242402.48821        13.750           0.656
  23247097.886    -5484292.548 5  -4159799.21221        10.000           0.500
  21047420.386     1476775.574 6   1153670.74222        18.750           1.875
  22502859.784   -10319058.183 6  -7980508.08821        12.500           0.813
 91  5 15 19 49 29.9990000  0  6G18G 2G11G16G19G 6
  22928132.276    11827235.902 6   9203711.46221        12.000           0.750
  21077520.675   -15483277.318 7 -11984193.68723        22.000           3.094
  22974471.245    -6798143.120 6  -5237451.78721        13.500           0.563
  23248162.315    -5478691.916 5  -4155435.14221        10.000           0.625
  21049786.542     1489177.887 6   1163334.85422        17.500           1.938
  22496210.175   -10354011.272 6  -8007744.22821        12.500           0.906
 91  5 15 19 49 44.9990000  0  6G18G 2G11G16G19G 6
  22936801.550    11872803.977 5   9239218.90621        11.750           0.750
  21071907.948   -15512778.400 7 -12007181.50823        22.500           3.031
  22975706.409    -6791642.647 6  -5232386.50321        13.500           0.625
  23249252.073    -5472970.923 5  -4150977.29221        10.250           0.594
  21052150.034     1501631.543 6   1173038.97322        19.000           1.969
  22489559.706   -10388950.362 6  -8034969.45521        12.500           0.813
 91  5 15 19 49 59.9990000  0  6G18G 2G11G16G19G 6
  22945483.534    11918418.897 5   9274762.84021        11.750           0.688
  21066308.284   -15542201.131 7 -12030108.29023        22.000           3.000
  22976971.878    -6784996.952 6  -5227208.05921        13.000           0.625
  23250360.245    -5467131.453 5  -4146427.11421        10.000           0.531
  21054534.581     1514134.979 6   1182781.88322        17.250           1.781
  22482913.636   -10423877.255 6  -8062185.17721        12.500           0.906
 91  5 15 19 50 14.9990000  0  6G18G 2G11G16G19G 6
  22954172.440    11964079.746 5   9310342.56621        11.750           0.688
  21060723.737   -15571546.210 7 -12052974.56223        22.000           3.000
  22978266.011    -6778206.721 6  -5221916.99621        13.500           0.625
  23251496.769    -5461174.360 5  -4141785.28821        10.250           0.531
  21056916.534     1526687.505 6   1192563.04522        18.500           1.875
  22476270.597   -10458792.546 6  -8089391.85821        12.500           0.906
 91  5 15 19 50 29.9990000  0  6G18G 2G11G16G19G 6
  22962872.737    12009787.053 6   9345958.49821        12.000           0.625
  21055155.753   -15600812.845 7 -12075779.70323        22.250           2.938
  22979583.362    -6771271.375 6  -5216512.85321        13.250           0.656
  23252651.511    -5455098.907 5  -4137051.23721        10.000           0.531
  21059321.089     1539290.064 6   1202383.19222        17.000           1.844
  22469627.198   -10493695.357 6  -8116588.82421        12.500           0.781
 91  5 15 19 50 44.9990000  0  6G18G 2G11G16G19G 6
  22971578.159    12055539.256 5   9381609.40921        11.750           0.719
  21049599.948   -15630002.292 7 -12098524.70523        22.250           3.031
  22980929.886    -6764192.360 6  -5210996.76221        13.000           0.625
  23253833.058    -5448906.758 5  -4132226.25021        10.250           0.594
  21061722.417     1551941.332 6   1212241.29822        18.500           1.906
  22462987.636   -10528587.011 6  -8143777.09721        12.250           0.844
 91  5 15 19 50 59.9990000  0  6G18G 2G11G16G19G 6
  22980292.058    12101337.583 5   9417296.25121        11.500           0.688
  21044060.417   -15659112.987 7 -12121208.34523        22.250           2.875
  22982306.565    -6756968.282 6  -5205367.63621        13.250           0.594
  23255031.534    -5442596.910 5  -4127309.55221        10.250           0.594
  21064142.409     1564642.923 6   1222138.61622        17.500           1.969
  22456352.175   -10563466.104 6  -8170955.58221        12.500           0.844
 91  5 15 19 51 14.9990000  0  6G18G 2G11G16G19G 6
  22989017.472    12147181.847 6   9453018.89421        12.250           0.688
  21038537.081   -15688144.809 7 -12143830.51223        22.500           2.875
  22983707.855    -6749598.926 6  -5199625.30921        13.250           0.563
  23256255.401    -5436168.988 5  -4122300.83621        10.000           0.469
  21066565.597     1577394.870 6   1232075.17222        18.500           1.906
  22449717.933   -10598332.415 6  -8198124.10821        12.750           0.844
 91  5 15 19 51 29.9990000  0  6G18G 2G11G16G19G 6
  22997750.831    12193071.447 6   9488776.87921        12.250           0.750
  21033026.956   -15717098.237 7 -12166391.58623        22.250           2.844
  22985136.792    -6742084.830 6  -5193770.19421        13.250           0.688
  23257501.706    -5429623.905 5  -4117200.84121        10.000           0.594
  21069008.964     1590196.750 6   1242050.63622        16.750           1.938
  22443082.253   -10633186.421 6  -8225283.04821        12.500           0.875
 91  5 15 19 51 44.9990000  0  6G18G 2G11G16G19G 6
  23006491.003    12239004.749 6   9524568.90121        12.000           0.656
  21027531.894   -15745974.609 7 -12188892.63023        22.500           3.000
  22986595.151    -6734427.581 6  -5187803.53421        13.500           0.656
  23258765.605    -5422963.486 5  -4112010.96521         9.750           0.625
  21071447.386     1603047.368 6   1252064.07722        18.250           1.938
  22436451.519   -10668029.432 6  -8252433.41321        13.000           0.719
 91  5 15 19 51 59.9990000  0  6G18G 2G11G16G19G 6
  23015238.550    12284983.019 5   9560395.95321        11.750           0.656
  21022052.292   -15774772.422 7 -12211332.46823        22.250           2.875
  22988079.862    -6726625.795 6  -5181724.23721        13.500           0.563
  23260058.823    -5416186.067 5  -4106729.93921        10.000           0.531
  21073905.878     1615948.224 6   1262116.66422        17.000           1.969
  22429823.105   -10702859.941 6  -8279574.04421        12.500           0.781
 91  5 15 19 52 14.9990000  0  6G18G 2G11G16G19G 6
  23023996.855    12331004.972 6   9596257.05521        12.000           0.750
  21016586.495   -15803492.492 7 -12233711.72023        22.500           2.906
  22989591.495    -6718680.202 6  -5175532.89521        13.750           0.688
  23261369.636    -5409292.603 5  -4101358.46721         9.500           0.563
  21076366.792     1628898.436 6   1272207.71422        18.000           2.000
  22423199.808   -10737678.785 6  -8306705.57521        12.750           0.906
 91  5 15 19 52 29.9990000  0  6G18G 2G11G16G19G 6
  23032764.894    12377072.364 6   9632153.56321        12.000           0.750
  21011136.714   -15832133.006 7 -12256028.98223        22.750           2.750
  22991131.558    -6710589.227 6  -5169228.26321        13.750           0.688
  23262705.112    -5402281.775 5  -4095895.56621        10.000           0.563
  21078844.909     1641899.994 6   1282338.76622        16.750           1.906
  22416574.737   -10772484.121 6  -8333826.58421        12.750           0.813
 91  5 15 19 52 44.9990000  0  6G18G 2G11G16G19G 6
  23041539.276    12423184.201 5   9668084.70121        11.750           0.750
  21005700.808   -15860694.691 7 -12278284.82023        23.000           2.875
  22992698.948    -6702353.866 6  -5162811.12021        14.000           0.750
  23264060.151    -5395154.525 5  -4090341.93321         9.750           0.531
  21081323.362     1654952.081 6   1292509.20022        18.000           2.000
  22409954.253   -10807276.626 6  -8360937.59821        13.250           0.906
 91  5 15 19 52 59.9990000  0  6G18G 2G11G16G19G 6
  23050319.394    12469339.114 5   9704049.41621        11.500           0.625
  21000280.917   -15889178.387 7 -12300479.88923        23.000           2.906
  22994294.940    -6693974.881 6  -5156282.06121        14.000           0.656
  23265440.378    -5387911.557 5  -4084698.13321         9.750           0.625
  21083820.776     1668053.966 6   1302718.43222        17.000           2.031
  22403336.050   -10842057.175 6  -8388039.28421        13.000           0.906
 91  5 15 19 53 14.9990000  0  6G18G 2G11G16G19G 6
  23059115.206    12515538.124 5   9740048.47421        11.750           0.656
  20994876.378   -15917583.142 7 -12322613.43923        23.500           2.781
  22995916.558    -6685451.417 6  -5149640.43221        14.000           0.563
  23266836.964    -5380552.191 5  -4078963.62421         9.750           0.563
  21086321.214     1681206.883 6   1312967.42822        18.000           1.969
  22396720.284   -10876824.706 6  -8415130.83421        13.000           0.875
 91  5 15 19 53 29.9990000  0  6G18G 2G11G16G19G 6
  23067912.315    12561779.406 5   9776080.48121        11.750           0.594
  20989484.808   -15945910.206 7 -12344686.45723        23.500           2.844
  22997565.315    -6676785.033 6  -5142887.43421        14.250           0.656
  23268260.534    -5373078.395 5  -4073139.94721         9.500           0.656
  21088836.644     1694409.250 6   1323254.96122        17.250           2.031
  22390107.628   -10911580.624 6  -8442213.33221        13.000           0.844
 91  5 15 19 53 44.9990000  0  6G18G 2G11G16G19G 6
  23076719.847    12608064.634 5   9812146.73121        11.000           0.625
  20984109.026   -15974157.864 7 -12366697.59923        23.500           2.844
  22999242.112    -6667974.000 6  -5136021.71121        14.000           0.563
  23269705.339    -5365488.195 5  -4067225.58621         9.500           0.656
  21091355.261     1707662.853 6   1333582.41122        18.500           1.875
  22383497.737   -10946323.093 6  -8469285.34721        13.000           0.906
 91  5 15 19 53 59.9990000  0  6G18G 2G11G16G19G 6
  23085536.300    12654393.570 5   9848247.02221        11.000           0.625
  20978750.190   -16002325.930 7 -12388646.72123        24.000           2.813
  23000945.245    -6659018.492 6  -5129043.42121        13.750           0.656
  23271171.487    -5357781.643 5  -4061220.54921         9.500           0.594
  21093894.339     1720967.961 6   1343949.99822        17.000           2.000
  22376887.448   -10981052.009 6  -8496346.79721        12.750           0.844
 91  5 15 19 54 14.9990000  0  6G18G 2G11G16G19G 6
  23094363.019    12700766.748 5   9884381.81221        11.250           0.625
  20973406.065   -16030413.457 7 -12410533.08623        23.500           2.719
  23002674.464    -6649917.600 6  -5121951.84921        13.750           0.625
  23272663.714    -5349958.319 5  -4055124.50521         9.500           0.500
  21096431.308     1734325.417 6   1354358.37422        18.750           2.031
  22370280.503   -11015766.467 6  -8523396.98321        12.500           0.844
 91  5 15 19 54 29.9990000  0  6G18G 2G11G16G19G 6
  23103194.769    12747179.828 5   9920547.68521        10.750           0.625
  20968073.737   -16058424.701 7 -12432360.01223        23.750           2.781
  23004436.839    -6640675.483 6  -5114750.21721        13.750           0.656
  23274170.940    -5342022.642 5  -4048940.92421         9.500           0.563
  21098983.737     1747731.108 6   1364804.33922        17.750           2.000
  22363679.198   -11050470.493 6  -8550439.04121        13.000           0.875
 91  5 15 19 54 44.9990000  0  6G18G 2G11G16G19G 6
  23112036.230    12793637.096 5   9956747.97021        10.500           0.531
  20962759.659   -16086355.475 7 -12454124.23123        23.750           2.813
  23006224.839    -6631288.021 6  -5107435.34521        14.000           0.625
  23275703.269    -5333970.448 5  -4042666.56621         9.500           0.594
  21101541.737     1761189.297 6   1375291.20622        19.000           1.875
  22357074.503   -11085159.981 6  -8577469.77421        13.000           0.906
 91  5 15 19 54 59.9990000  0  6G18G 2G11G16G19G 6
  23120884.597    12840134.464 5   9992979.51821        10.500           0.531
  20957458.605   -16114209.428 7 -12475828.59023        23.750           2.844
  23008034.706    -6621759.137 6  -5100010.27121        13.750           0.594
  23277256.573    -5325805.677 5  -4036304.49521         9.500           0.688
  21104115.901     1774696.346 6   1385816.15022        17.750           2.000
  22350477.112   -11119838.474 6  -8604491.93821        13.250           0.844
 91  5 15 19 55 14.9990000  0  6G18G 2G11G16G19G 6
  23129739.120    12886673.335 5  10029243.40221        10.000           0.563
  20952173.003   -16141984.633 7 -12497471.59123        23.500           2.938
  23009875.690    -6612087.075 6  -5092473.61221        13.250           0.594
  23278831.737    -5317526.534 5  -4029853.29021         9.250           0.625
  21106692.878     1788254.263 6   1396380.72922        19.250           1.969
  22343879.839   -11154504.087 6  -8631504.07121        13.250           0.906
 91  5 15 19 55 29.9990000  0  6G18G 2G11G16G19G 6
  23138605.839    12933267.899 5  10065550.68021        10.250           0.594
  20946905.761   -16169666.711 7 -12519042.02123        23.500           2.813
  23011747.081    -6602257.474 6  -5084814.21321        14.250           0.656
  23280433.136    -5309119.034 5  -4023302.08121         9.500           0.625
  21109292.128     1801877.428 6   1406996.14922        17.750           1.906
  22337289.636   -11189142.502 6  -8658495.01521        13.500           0.969
 91  5 15 19 55 44.9990000  0  6G18G 2G11G16G19G 6
  23147477.464    12979889.468 5  10101878.99621        10.000           0.594
  20941650.644   -16197284.089 7 -12540562.03223        24.000           2.750
  23013641.605    -6592298.842 6  -5077054.26821        13.500           0.656
  23282052.120    -5300611.852 5  -4016673.18221         9.250           0.594
  21111885.276     1815537.429 6   1417640.27922        19.250           1.938
  22330695.675   -11223782.075 6  -8685486.85121        13.250           0.938
 91  5 15 19 55 59.9990000  0  6G18G 2G11G16G19G 6
  23156355.792    13026547.897 5  10138236.03721        10.000           0.438
  20936408.589   -16224826.742 7 -12562023.82323        23.750           2.875
  23015562.675    -6582201.291 6  -5069186.06821        13.250           0.625
  23283692.425    -5291994.891 5  -4009958.74221         9.500           0.656
  21114497.269     1829244.510 6   1428321.08822        18.250           1.938
  22324107.612   -11258412.720 6  -8712471.74121        13.250           1.000
 91  5 15 19 56 14.9990000  0  6G18G 2G11G16G19G 6
  23165244.269    13073248.996 5  10174626.33021        10.250           0.531
  20931183.300   -16252288.578 7 -12583422.64423        24.000           2.875
  23017511.081    -6571959.069 6  -5061205.14021        13.250           0.563
  23285353.362    -5283262.447 5  -4003154.31321         9.500           0.594
  21117113.323     1843004.692 6   1439043.27422        19.500           1.938
  22317518.972   -11293028.434 6  -8739444.99321        13.500           0.813
 91  5 15 19 56 29.9990000  0  6G18G 2G11G16G19G 6
  23174137.011    13119990.115 5  10211047.80621        10.000           0.563
  20925973.019   -16279671.788 7 -12604760.19923        23.500           2.781
  23019489.120    -6561574.362 6  -5053113.18521        13.250           0.625
  23287037.058    -5274417.254 5  -3996262.02421         9.750           0.563
  21119743.253     1856815.830 6   1449805.17022        18.500           1.875
  22310934.120   -11327631.247 6  -8766408.19421        13.500           0.938
 91  5 15 19 56 44.9990000  0  6G18G 2G11G16G19G 6
  23183040.347    13166773.708 5  10247502.37221        10.250           0.563
  20920777.042   -16306974.011 7 -12626034.64723        23.750           2.719
  23021492.878    -6551044.923 6  -5044908.45621        13.500           0.563
  23288742.417    -5265456.950 5  -3989280.04821         9.750           0.688
  21122378.190     1870680.384 6   1460608.68922        19.250           1.906
  22304355.003   -11362218.797 6  -8793359.50521        13.750           0.938
 91  5 15 19 56 59.9990000  0  6G18G 2G11G16G19G 6
  23191952.308    13213597.731 5  10283988.44821        10.500           0.531
  20915596.409   -16334196.845 7 -12647247.22123        24.000           2.844
  23023522.097    -6540372.479 6  -5036592.28221        13.250           0.563
  23290470.847    -5256383.417 5  -3982209.84121         9.750           0.469
  21125028.620     1884596.579 6   1471452.44622        18.250           1.938
  22297774.980   -11396792.722 6  -8820300.17921        13.750           0.875
 91  5 15 19 57 14.9990000  0  6G18G 2G11G16G19G 6
  23200868.026    13260456.912 5  10320501.90421        10.250           0.531
  20910430.839   -16361344.995 7 -12668401.59923        23.750           2.781
  23025580.534    -6529561.918 6  -5028168.49321        13.250           0.688
  23292216.003    -5247201.530 5  -3975055.20321         9.750           0.594
  21127682.151     1898559.808 6   1482332.85322        19.000           1.969
  22291195.026   -11431357.638 6  -8847233.84621        13.750           0.906
 91  5 15 19 57 29.9990000  0  6G18G 2G11G16G19G 6
  23209790.808    13307354.825 5  10357045.55621        10.250           0.438
  20905279.730   -16388414.889 7 -12689495.00123        24.000           2.750
  23027665.331    -6518609.717 6  -5019634.33221        13.250           0.688
  23293983.019    -5237907.889 5  -3967813.47421         9.500           0.625
  21130351.628     1912573.636 6   1493252.69022        17.750           1.938
  22284620.245   -11465910.011 6  -8874157.73521        13.750           0.906
 91  5 15 19 57 44.9990000  0  6G18G 2G11G16G19G 6
  23218725.925    13354290.748 5  10393618.81921        10.500           0.500
  20900142.089   -16415406.974 7 -12710527.77523        23.750           2.750
  23029776.292    -6507516.527 6  -5010990.31821        13.250           0.594
  23295774.534    -5228503.082 5  -3960485.14521         9.500           0.594
  21133026.659     1926637.989 6   1504211.89822        18.500           1.969
  22278048.284   -11500450.152 6  -8901072.10121        13.500           0.938
 91  5 15 19 57 59.9990000  0  6G18G 2G11G16G19G 6
  23227664.519    13401267.816 5  10430224.14021        10.250           0.469
  20895022.667   -16442318.067 7 -12731497.44323        23.750           2.750
  23031914.706    -6496279.286 6  -5002234.04421        13.500           0.563
  23297585.980    -5218984.595 5  -3953068.22521         9.500           0.594
  21135715.597     1940755.927 6   1515212.85722        17.750           1.875
  22271478.190   -11534974.829 6  -8927974.40921        13.750           0.969
 91  5 15 19 58 14.9990000  0  6G18G 2G11G16G19G 6
  23236610.995    13448283.016 5  10466859.18721        10.000           0.531
  20889915.862   -16469150.636 7 -12752405.92523        23.500           2.813
  23034078.987    -6484900.611 6  -4993367.56421        13.500           0.594
  23299418.425    -5209355.020 5  -3945564.74221         9.750           0.625
  21138409.370     1954924.845 6   1526253.54422        18.000           1.938
  22264911.050   -11569486.675 6  -8954866.72721        13.750           0.938
 91  5 15 19 58 29.9990000  0  6G18G 2G11G16G19G 6
  23245565.792    13495336.222 5  10503523.83221        10.000           0.406
  20884824.175   -16495904.770 7 -12773253.27823        23.750           2.688
  23036270.753    -6473380.716 6  -4984391.04721        13.250           0.719
  23301272.901    -5199614.477 5  -3937974.78021         9.250           0.625
  21141122.792     1969144.761 6   1537333.96822        16.250           2.000
  22258346.073   -11603985.612 6  -8981748.97821        14.000           0.969
 91  5 15 19 58 44.9990000  0  6G18G 2G11G16G19G 6
  23254526.980    13542427.000 5  10540217.76021        10.000           0.500
  20879747.987   -16522580.466 7 -12794039.51223        23.750           2.844
  23038490.362    -6461719.774 6  -4975304.61021        13.250           0.563
  23303147.948    -5189763.189 5  -3930298.52821         9.500           0.625
  21143829.995     1983415.659 6   1548454.12422        18.250           1.906
  22251783.433   -11638471.711 6  -9008621.23221        14.000           1.000
 91  5 15 19 58 59.9990000  0  6G18G 2G11G16G19G 6
  23263496.503    13589558.432 5  10576943.36021        10.250           0.469
  20874687.386   -16549174.638 7 -12814762.22823        23.750           2.875
  23040736.120    -6449914.694 6  -4966105.87421        13.250           0.625
  23305043.105    -5179798.071 5  -3922533.57421         9.500           0.656
  21146562.011     1997740.732 6   1559616.48722        17.000           1.938
  22245221.214   -11672941.564 6  -9035480.83021        14.000           0.969
 91  5 15 19 59 14.9990000  0  6G18G 2G11G16G19G 6
  23272470.987    13636728.099 5  10613698.75921        10.000           0.469
  20869641.815   -16575689.213 7 -12835422.91823        23.750           2.938
  23043010.183    -6437967.719 6  -4956796.56421        13.000           0.625
  23306959.284    -5169721.610 5  -3914681.86421        10.000           0.594
  21149292.120     2012117.998 6   1570819.52522        18.250           1.906
  22238667.105   -11707397.487 6  -9062329.56621        14.250           1.063
 91  5 15 19 59 29.9990000  0  6G18G 2G11G16G19G 6
  23281456.472    13683938.088 5  10650485.57721         9.750           0.438
  20864612.198   -16602121.594 7 -12856019.56323        23.750           2.844
  23045310.769    -6425876.199 6  -4947374.62121        13.500           0.531
  23308899.011    -5159531.486 5  -3906741.58121         9.500           0.594
  21152041.870     2026550.321 6   1582065.46122        17.500           1.906
  22232115.011   -11741836.551 6  -9089165.17821        14.000           0.969
 91  5 15 19 59 44.9990000  0  6G18G 2G11G16G19G 6
  23290448.823    13731186.166 5  10687302.07221        10.000           0.500
  20859597.440   -16628473.905 7 -12876553.81523        23.750           2.875
  23047636.753    -6413642.561 6  -4937841.94121        13.000           0.625
  23310861.230    -5149229.716 5  -3898714.30621         9.500           0.500
  21154794.519     2041035.523 6   1593352.59922        18.250           1.875
  22225563.487   -11776260.979 6  -9115989.38621        14.250           0.906
 91  5 15 19 59 59.9990000  0  6G18G 2G11G16G19G 6
  23299444.940    13778467.664 5  10724144.61321         9.750           0.531
  20854596.276   -16654750.814 7 -12897029.31023        23.250           2.875
  23049990.284    -6401271.675 6  -4928202.30621        13.250           0.656
  23312839.964    -5138821.575 5  -3890604.16221         9.500           0.594
  21157564.144     2055569.032 6   1604677.38822        17.500           1.938
  22219014.847   -11810675.279 6  -9142805.69021        14.500           1.063
 91  5 15 20  0 14.9990000  0  6G18G 2G11G16G19G 6
  23308448.722    13825786.956 5  10761016.59921         9.500           0.531
  20849611.573   -16680947.629 7 -12917442.39823        23.250           2.938
  23052376.800    -6388758.813 6  -4918452.04121        13.500           0.594
  23314840.620    -5128302.373 5  -3882407.46121         9.500           0.531
  21160340.745     2070155.673 6   1616043.57222        17.000           1.813
  22212468.644   -11845074.818 6  -9169610.49321        14.250           0.969
 91  5 15 20  0 29.9990000  0  6G18G 2G11G16G19G 6
  23317461.292    13873144.808 5  10797918.62521         9.500           0.469
  20844642.081   -16707063.356 7 -12937792.30423        23.750           2.938
  23054783.534    -6376103.250 6  -4908590.59221        13.500           0.563
  23316866.815    -5117671.370 5  -3874123.63721         9.500           0.563
  21163130.097     2084796.390 6   1627451.89122        16.750           1.938
  22205926.253   -11879458.471 6  -9196402.92721        14.000           1.031
 91  5 15 20  0 44.9990000  0  6G18G 2G11G16G19G 6
  23326478.917    13920534.922 5  10834845.78921         9.500           0.469
  20839686.769   -16733103.892 7 -12958083.61623        23.500           2.906
  23057215.456    -6363311.042 6  -4898622.64921        13.500           0.625
  23318907.550    -5106935.004 5  -3865757.72321         9.500           0.500
  21165923.550     2099485.292 6   1638897.76022        17.250           1.969
  22199382.511   -11913832.139 6  -9223187.57721        14.000           0.938
 91  5 15 20  0 59.9990000  0  6G18G 2G11G16G19G 6
  23335503.581    13967960.815 5  10871800.84221         9.500           0.469
  20834745.644   -16759065.343 7 -12978313.30723        23.250           2.938
  23059676.792    -6350378.459 6  -4888545.33921        13.250           0.625
  23320972.480    -5096089.544 5  -3857306.79221         9.500           0.594
  21168725.722     2114226.184 6   1650384.14022        18.250           1.844
  22192845.425   -11948192.017 6  -9249961.48021        14.000           0.938
 91  5 15 20  1 14.9990000  0  6G18G 2G11G16G19G 6
  23344538.355    14015423.591 5  10908784.62821         9.500           0.438
  20829822.081   -16784946.422 7 -12998480.36023        23.500           2.906
  23062166.315    -6337304.364 6  -4878357.75121        13.500           0.594
  23323057.292    -5085134.030 5  -3848770.12521         9.500           0.625
  21171544.019     2129020.532 6   1661912.17322        17.500           1.906
  22186308.503   -11982536.660 6  -9276723.51321        14.000           0.969
 91  5 15 20  1 29.9990000  0  6G18G 2G11G16G19G 6
  23353575.222    14062923.535 5  10945797.36921         9.250           0.406
  20824911.792   -16810746.814 7 -13018584.54823        23.250           2.906
  23064681.292    -6324088.500 6  -4868059.69521        13.250           0.625
  23325163.175    -5074067.899 5  -3840147.24921         9.500           0.531
  21174367.433     2143868.778 6   1673482.20622        18.250           1.875
  22179779.386   -12016865.763 6  -9303473.43321        14.250           0.969
 91  5 15 20  1 44.9990000  0  6G18G 2G11G16G19G 6
  23362620.230    14110462.917 5  10982840.84421         8.750           0.500
  20820018.526   -16836463.673 7 -13038623.65023        23.500           2.969
  23067221.995    -6310728.079 6  -4857648.99721        13.250           0.625
  23327290.097    -5062888.912 5  -3831436.45021         9.500           0.500
  21177206.073     2158773.763 6   1685096.44822        17.500           2.000
  22173246.597   -12051176.259 6  -9330208.86321        14.250           1.031
 91  5 15 20  1 59.9990000  0  6G18G 2G11G16G19G 6
  23371674.003    14158035.095 5  11019909.87121         9.000           0.469
  20815138.925   -16862103.691 7 -13058602.87223        23.500           2.875
  23069792.026    -6297229.960 6  -4847131.00021        13.250           0.594
  23329439.956    -5051603.986 5  -3822643.08821         9.750           0.469
  21180051.050     2173728.820 6   1696749.70522        17.000           1.969
  22166722.034   -12085474.878 6  -9356935.03121        14.250           1.031
 91  5 15 20  2 14.9990000  0  6G18G 2G11G16G19G 6
  23380732.948    14205638.569 5  11057003.29321         9.250           0.500
  20810274.339   -16887667.945 7 -13078523.05523        23.750           2.844
  23072387.105    -6283595.373 6  -4836506.67421        13.500           0.594
  23331605.636    -5040214.223 5  -3813768.03921         9.750           0.594
  21182906.237     2188732.896 6   1708441.15922        17.500           1.844
  22160195.487   -12119762.571 6  -9383652.68821        14.000           1.031
 91  5 15 20  2 29.9990000  0  6G18G 2G11G16G19G 6
  23389799.019    14253279.359 5  11094125.78121         9.000           0.531
  20805425.034   -16913150.232 7 -13098379.37223        23.500           2.969
  23075005.542    -6269818.468 6  -4825771.44221        13.250           0.594
  23333792.776    -5028713.672 5  -3804806.67221         9.750           0.500
  21185774.206     2203792.312 6   1720175.73722        17.000           1.938
  22153674.612   -12154033.262 6  -9410357.09521        14.000           1.000
 91  5 15 20  2 44.9990000  0  6G18G 2G11G16G19G 6
  23398870.331    14300951.720 5  11131272.88121         8.750           0.500
  20800589.683   -16938556.108 7 -13118176.15523        23.500           2.938
  23077655.925    -6255904.824 6  -4814929.66621        13.500           0.688
  23336001.120    -5017108.131 5  -3795763.47521         9.750           0.531
  21188647.753     2218901.622 6   1731949.19422        17.750           1.969
  22147156.144   -12188292.323 6  -9437052.44021        14.250           0.969
 91  5 15 20  2 59.9990000  0  6G18G 2G11G16G19G 6
  23407950.917    14348659.308 5  11168447.40321         9.000           0.531
  20795771.034   -16963881.597 7 -13137910.28123        23.500           2.875
  23080330.644    -6241850.621 6  -4803978.35421        13.250           0.594
  23338232.167    -5005394.191 5  -3786635.83421         9.750           0.500
  21191533.370     2234064.735 6   1743764.57422        17.000           1.938
  22140638.675   -12222535.836 6  -9463735.67121        14.000           1.000
 91  5 15 20  3 14.9990000  0  6G18G 2G11G16G19G 6
  23417035.144    14396405.193 5  11205651.80321         9.000           0.531
  20790966.753   -16989123.243 7 -13157579.07723        23.250           3.063
  23083032.362    -6227652.676 6  -4792915.05721        13.500           0.688
  23340483.315    -4993568.814 5  -3777421.33321         9.750           0.469
  21194428.081     2249285.103 6   1755624.57022        17.250           1.969
  22134127.651   -12256760.372 6  -9490404.11021        14.500           1.031
 91  5 15 20  3 29.9990000  0  6G18G 2G11G16G19G 6
  23426128.605    14444181.867 5  11242880.16321         9.250           0.469
  20786178.839   -17014288.475 7 -13177188.33523        23.250           2.906
  23085759.261    -6213318.515 6  -4781745.60521        13.250           0.656
  23342752.597    -4981639.324 5  -3768125.72021        10.000           0.500
  21197333.448     2264555.495 6   1767523.54122        17.500           1.906
  22127616.995   -12290973.106 6  -9517063.35321        14.500           1.000
 91  5 15 20  3 44.9990000  0  6G18G 2G11G16G19G 6
  23435227.237    14491997.748 5  11280139.10421         9.000           0.406
  20781406.394   -17039368.378 7 -13196731.10023        23.500           2.969
  23088514.245    -6198839.330 6  -4770463.14521        13.250           0.594
  23345043.378    -4969596.814 5  -3758742.04021         9.750           0.563
  21200253.284     2279884.809 6   1779468.42822        17.250           1.906
  22121109.722   -12325165.042 6  -9543706.39621        14.500           1.063
 91  5 15 20  3 59.9990000  0  6G18G 2G11G16G19G 6
  23444334.651    14539849.118 5  11317425.68021         9.000           0.500
  20776649.714   -17064366.462 7 -13216210.11423        23.000           3.031
  23091298.261    -6184218.805 6  -4759070.55921        13.250           0.594
  23347356.808    -4957445.352 5  -3749273.46021         9.750           0.594
  21203181.995     2295269.579 6   1791456.52822        16.750           1.906
  22114605.573   -12359339.779 6  -9570336.02621        14.500           1.063
 91  5 15 20  4 14.9990000  0  6G18G 2G11G16G19G 6
  23453445.081    14587732.152 5  11354736.92921         9.250           0.438
  20771907.237   -17089286.253 7 -13235628.11923        23.250           3.000
  23094106.128    -6169460.760 6  -4747570.81121        13.250           0.688
  23349689.698    -4945188.753 5  -3739722.94421        10.000           0.469
  21206118.167     2310706.184 6   1803485.02122        17.250           1.938
  22108104.870   -12393500.934 6  -9596955.07621        14.750           1.063
 91  5 15 20  4 29.9990000  0  6G18G 2G11G16G19G 6
  23462561.862    14635647.918 5  11392073.68221         8.750           0.438
  20767180.433   -17114126.438 7 -13254984.09323        23.000           2.938
  23096939.980    -6154563.917 6  -4735962.91421        13.000           0.594
  23352041.362    -4932825.876 5  -3730089.61221         9.750           0.531
  21209063.862     2326196.001 6   1815554.96822        17.250           1.969
  22101607.472   -12427646.970 6  -9623562.34821        14.750           1.031
 91  5 15 20  4 44.9990000  0  6G18G 2G11G16G19G 6
  23471688.487    14683609.213 5  11429445.91821         8.500           0.375
  20762471.386   -17138874.352 7 -13274268.16523        23.250           3.063
  23099802.456    -6139515.778 6  -4724237.11621        13.000           0.625
  23354415.245    -4920344.307 5  -3720363.79321         9.750           0.531
  21212025.222     2341751.858 6   1827676.38322        16.500           1.844
  22095115.683   -12461765.056 6  -9650147.84521        15.000           1.063
 91  5 15 20  4 59.9990000  0  6G18G 2G11G16G19G 6
  23480823.675    14731606.196 5  11466845.96121         8.750           0.375
  20757777.237   -17163539.279 7 -13293487.56923        23.000           3.031
  23102693.253    -6124325.841 6  -4712400.83321        13.000           0.625
  23356813.378    -4907753.831 5  -3710553.12721         9.500           0.563
  21214995.159     2357364.364 6   1839841.93522        16.250           1.906
  22088627.472   -12495864.689 6  -9676718.96021        15.000           1.094
 91  5 15 20  5 14.9990000  0  6G18G 2G11G16G19G 6
  23489962.628    14779627.164 5  11504264.68521         9.000           0.375
  20753097.167   -17188132.548 7 -13312651.13923        23.250           3.094
  23105610.628    -6109005.586 6  -4700463.00321        13.250           0.719
  23359227.597    -4895065.963 5  -3700666.55421         9.750           0.406
  21217974.323     2373022.430 6   1852042.99522        16.750           1.844
  22082139.425   -12529956.993 6  -9703284.35521        14.500           1.156
 91  5 15 20  5 29.9990000  0  6G18G 2G11G16G19G 6
  23499107.495    14827683.517 5  11541710.99221         9.000           0.469
  20748434.245   -17212642.843 7 -13331750.05223        23.250           3.188
  23108551.394    -6093543.837 6  -4688414.91221        13.000           0.625
  23361658.737    -4882269.192 5  -3690695.12421         9.500           0.469
  21220964.987     2388737.348 6   1864288.34922        16.750           1.844
  22075654.472   -12564030.495 6  -9729835.10921        14.250           1.031
 91  5 15 20  5 44.9990000  0  6G18G 2G11G16G19G 6
  23508258.198    14875770.196 5  11579180.91621         9.000           0.406
  20743784.394   -17237074.796 7 -13350787.92123        23.500           3.094
  23111519.776    -6077945.422 6  -4676260.33221        13.250           0.625
  23364116.620    -4869368.701 5  -3680642.88521         9.250           0.438
  21223966.065     2404504.697 6   1876574.56022        16.750           1.938
  22069173.050   -12598089.887 6  -9756374.86421        14.250           0.969
 91  5 15 20  5 59.9990000  0  6G18G 2G11G16G19G 6
  23517414.612    14923889.155 5  11616676.00521         8.750           0.375
  20739149.362   -17261426.121 7 -13369762.96323        23.250           3.063
  23114515.105    -6062208.239 6                        13.250
  23366592.480    -4856362.363 5  -3670508.17321         9.750           0.531
  21226977.183     2420326.720 6                        16.750
  22062697.089   -12632132.746 6  -9782901.72721        14.250           1.063
 91  5 15 20  6 14.9990000  0  6G18G 2G11G16G19G 6
  23526575.011    14972035.746 5  11654192.61321         9.000           0.344
  20734530.823   -17285701.204 7 -13388678.58923        23.750           3.219
  23117535.019    -6046336.719 6                        13.000
  23369086.698    -4843254.825 5  -3660294.59121         9.500           0.438
  21229997.753     2436199.056 6                        16.500
  22056220.425   -12666163.394 6  -9809419.08521        14.000           1.125
 91  5 15 20  6 29.9990000  0  6G18G 2G11G16G19G 6
  23535744.355    15020212.740 5  11691732.90721         9.000           0.281
  20729926.159   -17309897.250 7 -13407532.63823        23.250           3.125
  23120579.089    -6030328.267 6  -4639156.16021        13.000           0.688
  23371601.925    -4830043.526 5  -3650000.18021         9.750           0.469
  21233030.667     2452124.691 6   1913680.94422        16.250           1.781
  22049747.089   -12700178.898 6  -9835924.63121        14.250           1.063
 91  5 15 20  6 44.9990000  0  6G18G 2G11G16G19G 6
  23544920.769    15068421.145 5  11729297.70121         9.250           0.344
  20725336.448   -17334012.954 7 -13426324.08723        23.250           3.188
  23123654.339    -6014181.812 6  -4626574.53721        13.250           0.750
  23374132.526    -4816727.310 5  -3639623.99821        10.000           0.563
  21236068.456     2468104.915 6   1926133.03722        16.750           1.688
  22043276.815   -12734178.036 6  -9862417.43421        14.000           1.031
 91  5 15 20  6 59.9990000  0  6G18G 2G11G16G19G 6
  23554099.987    15116663.560 5  11766888.98121         9.250           0.406
  20720764.581   -17358045.430 7 -13445050.67723        23.750           3.094
  23126753.714    -5997894.639 6  -4613883.27221        13.000           0.688
  23376688.105    -4803303.673 5  -3629164.13021         9.750           0.438
  21239117.831     2484142.771 6   1938630.03022        16.750           1.844
  22036811.198   -12768157.892 6  -9888895.21621        14.000           1.031
 91  5 15 20  7 14.9990000  0  6G18G 2G11G16G19G 6
  23563286.519    15164937.694 5  11804504.97421         9.250           0.313
  20716206.792   -17381996.598 7 -13463713.90723        23.500           3.063
  23129877.987    -5981468.972 6  -4601084.09221        12.750           0.625
  23379263.347    -4789774.827 5  -3618622.27121         9.750           0.500
  21242184.011     2500236.197 6   1951170.32622        16.750           1.781
  22030348.417   -12802120.131 6  -9915359.25821        13.750           0.938
 91  5 15 20  7 29.9990000  0  6G18G 2G11G16G19G 6
  23572478.034    15213242.913 5  11842145.20121         9.250           0.344
  20711663.722   -17405867.064 7 -13482314.25123        23.250           3.156
  23133027.339    -5964905.490 6  -4588177.51621        12.750           0.625
  23381855.855    -4776141.386 5  -3607998.91921         9.750           0.531
  21245256.136     2516384.603 6   1963753.46122        16.750           1.750
  22023887.050   -12836065.517 6  -9941810.17921        14.000           1.000
 91  5 15 20  7 44.9990000  0  6G18G 2G11G16G19G 6
  23581675.433    15261573.051 5  11879804.83121         9.000           0.313
  20707135.605   -17429662.523 7 -13500856.14323        23.750           3.094
  23136206.839    -5948210.109 6  -4575168.16821        12.750           0.594
  23384473.167    -4762409.723 5  -3597299.01021         9.500           0.469
  21248339.815     2532582.419 6   1976375.09822        17.000           1.844
  22017431.245   -12869999.679 6  -9968252.35321        14.000           1.063
 91  5 15 20  7 59.9990000  0  6G18G 2G11G16G19G 6
  23590879.347    15309933.758 5  11917488.28421         9.000           0.375
  20702622.690   -17453377.004 7 -13519334.94423        23.750           3.031
  23139412.659    -5931377.001 6  -4562051.49621        12.750           0.688
  23387103.620    -4748573.992 5  -3586518.02421        10.000           0.375
  21251435.261     2548835.590 6   1989039.86622        16.250           1.688
  22010976.737   -12903916.397 6  -9994680.93221        14.250           1.063
 91  5 15 20  8 14.9990000  0  6G18G 2G11G16G19G 6
  23600086.714    15358328.028 5  11955197.88821         8.750           0.313
  20698126.394   -17477007.510 7 -13537748.31023        23.750           3.219
  23142640.011    -5914403.134 6  -4548825.14121        12.750           0.563
  23389758.925    -4734631.440 5  -3575653.79321        10.000           0.469
  21254536.847     2565147.292 6   2001750.24722        16.750           1.719
  22004525.581   -12937812.700 6 -10021093.60921        14.250           0.969
 91  5 15 20  8 29.9990000  0  6G18G 2G11G16G19G 6
  23609299.323    15406747.653 5  11992927.25621         8.500           0.281
  20693643.245   -17500561.993 7 -13556102.43623        24.000           3.031
  23145895.495    -5897296.596 6  -4535495.41621        12.750           0.594
  23392430.058    -4720590.250 5  -3564712.70421         9.750           0.438
  21257649.644     2581509.903 6   2014500.29422        16.750           1.625
  21998079.448   -12971696.179 6 -10047496.29321        14.250           1.094
 91  5 15 20  8 44.9990000  0  6G18G 2G11G16G19G 6
  23618521.722    15455201.398 5  12030683.22121         8.500           0.344
  20689177.808   -17524031.389 7 -13574390.25923        24.000           3.156
  23149177.823    -5880048.658 6  -4522055.49821        13.000           0.656
  23395123.737    -4706441.624 5  -3553687.88421         9.750           0.625
  21260774.753     2597932.328 6   2027296.94722        16.500           1.625
  21991635.378   -13005557.988 6 -10073882.08921        14.500           1.063
 91  5 15 20  8 59.9990000  0  6G18G 2G11G16G19G 6
  23627748.956    15503687.910 5  12068464.69321         8.500           0.313
  20684727.722   -17547416.894 7 -13592612.71423        24.000           3.063
  23152489.519    -5862660.576 6  -4508506.37321        13.000           0.500
  23397834.136    -4692186.997 5  -3542580.50021         9.750           0.438
  21263911.276     2614413.461 6   2040139.34822        16.750           1.688
  21985194.456   -13039399.201 6 -10100251.84121        14.500           0.938
 91  5 15 20  9 14.9990000  0  6G18G 2G11G16G19G 6
  23636978.292    15552200.781 5  12106266.71921         8.000           0.375
  20680292.831   -17570724.400 7 -13610774.38823        24.000           3.063
  23155824.417    -5845138.506 6  -4494852.86921        13.500           0.500
  23400567.667    -4677832.228 5  -3531395.08121         9.750           0.500
  21267056.456     2630947.456 6   2053022.94222        16.500           1.563
  21978757.612   -13073225.466 6 -10126609.94821        14.500           1.063
 91  5 15 20  9 29.9990000  0  6G18G 2G11G16G19G 6
  23646218.886    15600745.099 5  12144093.24021         8.000           0.281
  20675873.323   -17593948.738 7 -13628871.25523        24.000           3.031
  23159180.972    -5827477.435 6  -4481091.02821        13.000           0.531
  23403318.237    -4663372.611 5  -3520127.94721         9.750           0.406
  21270213.245     2647539.619 6   2065951.86022        16.500           1.500
  21972325.097   -13107031.705 6 -10152952.44421        14.500           1.000
 91  5 15 20  9 44.9990000  0  6G18G 2G11G16G19G 6
  23655457.948    15649315.522 5  12181940.07821         7.750           0.344
  20671469.011   -17617095.144 7 -13646907.40023        24.250           3.031
  23162568.503    -5809682.901 6  -4467225.19021        13.000           0.563
  23406086.683    -4648813.705 5  -3508783.45221        10.000           0.438
  21273382.222     2664184.377 6   2078921.75922        16.000           1.625
  21965896.011   -13140823.115 6 -10179283.38921        14.750           0.938
 91  5 15 20  9 59.9990000  0  6G18G 2G11G16G19G 6
  23664707.792    15697910.794 5  12219806.31321         7.500           0.344
  20667078.339   -17640164.607 7 -13664883.58923        24.000           2.969
  23165984.065    -5791755.957 6  -4453256.19521        13.250           0.531
  23408877.995    -4634156.797 5  -3497362.58921         9.250           0.469
  21276556.901     2680880.999 6   2091932.07122        16.250           1.531
  21959467.315   -13174600.658 6 -10205603.53221        14.500           1.063
 91  5 15 20 10 14.9990000  0  6G18G 2G11G16G19G 6
  23673958.925    15746521.264 5  12257684.37121         7.500           0.406
  20662701.456   -17663166.339 7 -13682806.99823        24.500           3.188
  23169418.058    -5773706.242 6  -4439191.51621        13.000           0.500
  23411683.901    -4619411.249 5  -3485872.65321         9.750           0.625
  21279744.651     2697620.295 6   2104975.63521        16.000           1.469
  21953040.558   -13208373.319 6 -10231919.86121        14.750           1.000
 91  5 15 20 10 29.9990000  0  6G18G 2G11G16G19G 6
  23683212.659    15795156.174 4  12295581.47821         7.250           0.313
  20658339.073   -17686090.905 7 -13700670.27523        24.500           2.938
  23172876.355    -5755524.436 6  -4425023.91521        13.000           0.563
  23414507.292    -4604567.994 5  -3474306.56821         9.500           0.500
  21282938.815     2714411.858 6   2118059.93022        16.500           1.531
  21946615.042   -13242131.723 6 -10258225.09221        14.500           1.000
 91  5 15 20 10 44.9990000  0  6G18G 2G11G16G19G 6
  23692475.292    15843819.001 5  12333500.34021         7.500           0.438
  20653991.948   -17708934.405 7 -13718470.39123        24.250           2.938
  23176360.198    -5737206.726 6  -4410750.40921        13.000           0.531
  23417354.253    -4589623.486 5  -3462661.59821         9.750           0.469
  21286146.097     2731259.695 6   2131188.07222        16.000           1.500
  21940196.433   -13275871.985 6 -10284516.18421        14.750           1.094
 91  5 15 20 10 59.9990000  0  6G18G 2G11G16G19G 6
  23701740.901    15892508.585 4  12371440.04821         7.250           0.406
  20649660.722   -17731697.851 7 -13736208.12323        24.750           3.031
  23179871.026    -5718754.285 6  -4396371.92121        12.500           0.500
  23420214.511    -4574578.954 5  -3450938.67621         9.500           0.469
  21289365.550     2748162.751 6   2144359.24622        15.250           1.531
  21933777.636   -13309594.755 6 -10310793.63821        14.500           1.000
 91  5 15 20 11 14.9990000  0  6G18G 2G11G16G19G 6
  23711010.784    15941223.189 4  12409399.23421         7.250           0.438
  20645343.956   -17754382.974 7 -13753884.82423        24.750           3.063
  23183409.933    -5700169.140 6  -4381890.03121        12.750           0.625
  23423096.425    -4559436.384 5  -3439139.36421         9.500           0.406
  21292588.940     2765119.546 6   2157572.28922        15.750           1.500
  21927364.355   -13343301.848 6 -10337058.87721        15.000           1.031
 91  5 15 20 11 29.9990000  0  6G18G 2G11G16G19G 6
  23720287.230    15989965.483 4  12447380.00121         7.250           0.406
  20641041.933   -17776986.660 7 -13771498.06923        24.500           3.063
  23186974.097    -5681448.272 6  -4367302.38221        12.750           0.469
  23425996.737    -4544192.818 5  -3427261.34421         9.250           0.469
  21295825.230     2782133.025 6   2170829.50422        15.750           1.563
  21920952.651   -13376989.916 6 -10363309.29921        14.750           1.094
 91  5 15 20 11 44.9990000  0  6G18G 2G11G16G19G 6
  23729567.300    16038737.364 4  12485383.84521         7.000           0.375
  20636756.628   -17799506.960 7 -13789046.34023        25.000           3.063
  23190561.706    -5662589.874 6  -4352607.56721        13.000           0.375
  23428916.081    -4528846.541 5  -3415303.31821         9.250           0.438
  21299076.823     2799205.460 6   2184132.65322        16.000           1.594
  21914547.769   -13410657.102 6 -10389543.45021        15.000           1.094
 91  5 15 20 11 59.9990000  0  6G18G 2G11G16G19G 6
  23738850.253    16087532.903 4  12523406.11621         7.000           0.375
  20632485.839   -17821949.384 7 -13806533.92823        24.750           3.094
  23194171.956    -5643599.810 6  -4337810.15721        12.250           0.594
  23431856.550    -4513403.390 5  -3403269.79421         9.250           0.438
  21302334.464     2816331.104 6   2197477.26622        16.250           1.531
  21908142.956   -13444308.763 6 -10415765.50221        15.000           1.125
 91  5 15 20 12 14.9990000  0  6G18G 2G11G16G19G 6
  23748140.940    16136351.360 4  12561446.21621         7.250           0.344
  20628230.222   -17844314.578 7 -13823961.33723        24.750           3.063
  23197813.206    -5624478.770 6  -4322910.68721        12.750           0.531
  23434812.269    -4497864.216 5  -3391161.47321         9.250           0.375
  21305604.745     2833509.495 6   2210862.98022        15.750           1.531
  21901740.886   -13477945.377 6 -10441975.83221        15.000           1.188
 91  5 15 20 12 29.9990000  0  6G18G 2G11G16G19G 6
  23757437.261    16185196.083 5  12599506.82721         7.750           0.438
  20623989.737   -17866598.874 7 -13841325.70323        25.000           3.094
  23201477.636    -5605223.318 6  -4307906.49321        12.500           0.563
  23437789.331    -4482225.909 5  -3378975.88421         9.000           0.375
  21308881.151     2850744.420 6   2224292.75422        16.500           1.500
  21895345.776   -13511563.360 6 -10468171.64421        15.500           1.219
 91  5 15 20 12 44.9990000  0  6G18G 2G11G16G19G 6
  23766739.245    16234070.783 5  12637590.76621         8.000           0.438
  20619764.987   -17888798.380 7 -13858624.00823        25.000           3.031
  23205169.050    -5585829.748 6  -4292794.66121        13.000           0.500
  23440784.558    -4466484.729 5  -3366710.13921         9.500           0.438
  21312175.456     2868039.837 6   2237769.65522        16.250           1.531
  21888952.159   -13545158.597 6 -10494349.72921        15.750           1.156
 91  5 15 20 12 59.9990000  0  6G18G 2G11G16G19G 6
  23776042.737    16282969.897 4  12675693.74521         7.250           0.375
  20615555.237   -17910918.136 7 -13875860.16423        25.500           3.094
  23208884.667    -5566303.242 6  -4277579.25321        12.250           0.594
  23443798.440    -4450645.810 5  -3354368.25521         9.250           0.313
  21315479.151     2885390.813 6   2251289.85422        15.500           1.531
  21882562.745   -13578735.876 6 -10520513.81821        15.500           1.188
 91  5 15 20 13 14.9990000  0  6G18G 2G11G16G19G 6
  23785355.526    16331895.665 5  12713817.49021         8.000           0.406
  20611361.440   -17932955.767 7 -13893032.33623        25.250           3.063
  23212625.511    -5546641.660 6  -4262258.58621        12.250           0.469
  23446831.886    -4434707.049 5  -3341948.56221         9.250           0.438
  21318790.011     2902799.616 6   2264855.11622        16.000           1.594
  21876177.058   -13612293.079 6 -10546662.26521        16.000           1.219
 91  5 15 20 13 29.9990000  0  6G18G 2G11G16G19G 6
  23794669.347    16380844.827 5  12751959.46421         8.000           0.375
  20607182.808   -17954914.496 7 -13910143.01323        25.250           3.000
  23216393.823    -5526848.390 6  -4246835.29721        12.500           0.531
  23449883.237    -4418671.990 5  -3329453.82121         9.000           0.375
  21322110.628     2920263.195 6   2278463.05622        16.750           1.594
  21869795.167   -13645833.034 6 -10572797.27821        15.750           1.281
 91  5 15 20 13 44.9990000  0  6G18G 2G11G16G19G 6
  23803988.737    16429815.930 5  12790118.52821         8.000           0.406
  20603019.706   -17976795.407 7 -13927193.05623        25.250           3.000
  23220185.073    -5506924.618 6  -4231310.32921        12.250           0.469
  23452953.526    -4402541.929 5  -3316885.06321         9.000           0.438
  21325447.644     2937780.618 6   2292112.95822        16.000           1.625
  21863414.394   -13679356.889 6 -10598919.73721        15.500           1.313
 91  5 15 20 13 59.9990000  0  6G18G 2G11G16G19G 6
  23813309.089    16478800.473 5  12828288.06521         8.000           0.313
  20598868.308   -17998606.806 7 -13944188.93623        25.000           2.969
  23223999.628    -5486878.892 6  -4215690.33221        12.000           0.469
  23456039.698    -4386325.371 5  -3304248.89921         8.750           0.406
  21328785.206     2955343.461 6   2305798.24822        16.250           1.500
  21857038.175   -13712872.712 6 -10625035.94521        15.500           1.188
 91  5 15 20 14 14.9990000  0  6G18G 2G11G16G19G 6
  23822635.761    16527803.804 5  12866472.24221         8.250           0.375
  20594732.323   -18020343.201 7 -13961126.37323        25.000           2.969
  23227836.519    -5466705.880 6  -4199971.13921        12.000           0.531
  23459143.886    -4370017.175 5  -3291541.37121         9.250           0.344
  21332140.034     2972957.415 6   2319523.36822        16.000           1.594
  21850662.222   -13746374.999 6 -10651141.59921        15.500           1.281
 91  5 15 20 14 29.9990000  0  6G18G 2G11G16G19G 6
  23831964.456    16576832.763 5  12904676.39121         8.000           0.281
  20590612.089   -18041997.222 7 -13977999.62123        25.250           2.969
  23231701.714    -5446398.669 6  -4184147.38321        12.000           0.375
  23462265.886    -4353610.630 5  -3278757.13921         8.750           0.375
  21335504.222     2990629.655 6   2333293.90322        15.500           1.594
  21844290.370   -13779856.509 6 -10677231.06021        15.500           1.219
 91  5 15 20 14 44.9990000  0  6G18G 2G11G16G19G 6
  23841299.745    16625884.724 5  12942898.46521         8.000           0.250
  20586506.409   -18063571.387 7 -13994810.64123        25.000           3.031
  23235592.433    -5425959.752 5  -4168221.00121        11.750           0.531
  23465405.698    -4337108.052 5  -3265898.09821         9.250           0.469
  21338875.933     3008358.004 6   2347108.15822        16.000           1.688
  21837922.144   -13813319.459 6 -10703306.06921        15.250           1.156
 91  5 15 20 14 59.9990000  0  6G18G 2G11G16G19G 6
  23850638.769    16674958.823 5  12981137.78021         8.000           0.281
  20582415.667   -18085066.194 7 -14011559.82423        24.750           2.875
  23239503.214    -5405389.924 5  -4152192.59921        11.000           0.469
  23468563.292    -4320510.461 5  -3252965.03821         9.250           0.375
  21342263.284     3026141.943 6   2360965.73122        15.750           1.531
  21831558.315   -13846764.333 6 -10729366.98721        15.500           1.250
 91  5 15 20 15 14.9990000  0  6G18G 2G11G16G19G 6
  23859981.784    16724053.279 5  13019392.96021         8.000           0.219
  20578341.144   -18106483.562 7 -14028248.66523        25.500           2.938
  23243441.487    -5384691.167 5  -4136063.75621        11.000           0.469
  23471741.542    -4303819.773 5  -3239959.43521         9.000           0.313
  21345655.730     3043979.789 6   2374865.31322        16.250           1.656
  21825196.589   -13880192.889 6 -10755415.19221        15.500           1.250
 91  5 15 20 15 29.9990000  0  6G18G 2G11G16G19G 6
  23869325.550    16773166.239 5  13057662.54521         7.500           0.219
  20574279.440   -18127825.101 7 -14044878.42423        25.000           2.906
  23247406.683    -5363865.254 5  -4119835.81921        11.000           0.438
  23474936.151    -4287037.832 5  -3226882.72321         9.250           0.313
  21349060.651     3061870.041 6   2388805.72622        16.000           1.594
  21818838.237   -13913606.423 6 -10781451.69521        15.750           1.219
 91  5 15 20 15 44.9990000  0  6G18G 2G11G16G19G 6
  23878668.222    16822265.300 5  13095921.31121         7.500           0.219
  20570226.230   -18149122.897 7 -14061474.08923        25.000           2.844
  23251384.722    -5342944.552 5  -4103534.01021        10.750           0.500
  23478137.230    -4270197.081 5  -3213760.18021         9.000           0.313
  21352468.339     3079780.416 6   2402761.82622        16.250           1.594
  21812476.644   -13947037.074 6 -10807501.52321        15.750           1.281
 91  5 15 20 15 59.9990000  0  6G18G 2G11G16G19G 6
  23888016.644    16871386.070 4  13134197.00021         7.250           0.344
  20566188.792   -18170340.743 7 -14078007.45923        25.000           2.906
  23255391.651    -5321893.232 5  -4087130.43121        10.750           0.438
  23481362.667    -4253261.749 5  -3200563.94121         9.250           0.375
  21355886.378     3097747.049 6   2416761.75722        16.250           1.594
  21806118.237   -13980448.847 6 -10833536.65721        15.250           1.188
 91  5 15 20 16 14.9990000  0  6G18G 2G11G16G19G 6
  23897365.464    16920526.332 4  13172487.89221         7.000           0.281
  20562166.331   -18191480.675 7 -14094480.11723        25.500           2.781
  23259420.792    -5300713.313 5  -4070626.63821        10.500           0.469
  23484601.722    -4236233.992 5  -3187295.66821         9.000           0.375
  21359316.526     3115768.340 6   2430804.28422        16.000           1.656
  21799764.339   -14013843.278 6 -10859558.27121        15.500           1.250
 91  5 15 20 16 29.9990000  0  6G18G 2G11G16G19G 6
  23906724.394    16969685.395 4  13210793.39521         6.750           0.156
  20558157.651   -18212543.524 7 -14110892.71623        25.500           2.813
  23263478.737    -5279405.905 5  -4054023.50921        11.000           0.344
  23487859.261    -4219114.927 5  -3173956.26321         9.250           0.406
  21362757.136     3133843.391 6   2444888.69122        16.000           1.531
  21793412.011   -14047221.212 6 -10885567.03721        15.500           1.344
 91  5 15 20 16 44.9990000  0  6G18G 2G11G16G19G 6
  23916083.378    17018866.374 4  13249116.00621         6.500           0.188
  20554164.722   -18233525.849 7 -14127242.56423        25.250           2.875
  23267560.862    -5257967.906 5  -4037318.61521        11.000           0.406
  23491135.253    -4201901.316 5  -3160543.18821         8.500           0.469
  21366206.487     3151975.594 6   2459017.64122        16.500           1.500
  21787064.245   -14080579.174 6 -10911560.23621        15.750           1.219
 91  5 15 20 16 59.9990000  0  6G18G 2G11G16G19G 6
  23925445.644    17068068.718 3  13287455.22621         6.000           0.125
  20550188.206   -18254427.861 7 -14143529.82823        25.000           2.813
  23271664.105    -5236399.520 5  -4020512.12521        11.000           0.375
  23494429.206    -4184593.930 5  -3147057.04421         9.250           0.344
  21369666.042     3170165.079 6   2473191.22422        16.750           1.594
  21780721.855   -14113917.176 6 -10937537.88521        15.750           1.344
 91  5 15 20 17 14.9990000  0  6G18G 2G11G16G19G 6
  23934813.315    17117293.656 3  13325812.06821         6.000           0.219
  20546226.276   -18275248.003 7 -14159753.30123        25.250           2.750
  23275794.417    -5214699.484 5  -4003603.05121        11.250           0.438
  23497740.940    -4167191.415 5  -3133496.73821         9.000           0.375
  21373140.940     3188413.309 6   2487410.58221        16.750           1.469
  21774381.230   -14147233.654 6 -10963498.75721        16.000           1.281
 91  5 15 20 17 29.9990000  0  6G18G 2G11G16G19G 6
  23944184.675    17166540.890 3  13364186.29221         6.000           0.250
  20542279.284   -18295986.564 7 -14175913.20323        24.750           3.000
  23279946.644    -5192868.340 5  -3986591.81921        10.750           0.375
  23501071.050    -4149694.152 5  -3119862.64221         9.000           0.438
  21376623.855     3206720.099 6   2501675.56821        17.000           1.469
  21768043.878   -14180528.632 6 -10989442.88221        16.000           1.281
 91  5 15 20 17 44.9990000  0  6G18G 2G11G16G19G 6
  23953561.659    17215805.140 3  13402573.78521         6.000           0.188
  20538347.683   -18316648.767 7 -14192013.60123        25.500           2.875
  23284125.464    -5170911.407 5  -3969482.55621        10.500           0.469
  23504415.159    -4132107.560 5  -3106158.95221         9.000           0.438
  21380118.073     3225080.207 6   2515982.10822        16.750           1.531
  21761711.698   -14213807.380 6 -11015374.35421        15.750           1.250
 91  5 15 20 17 59.9990000  0  6G18G 2G11G16G19G 6
  23962936.065    17265087.748 3  13440975.57321         6.000           0.125
  20534430.362   -18337232.698 7 -14208053.01323        25.000           2.781
  23288326.026    -5148826.827 5  -3952273.84121        10.750           0.469
  23507782.972    -4114429.874 5  -3092384.27421         9.000           0.469
  21383621.315     3243495.682 6   2530331.78222        17.250           1.531
  21755383.284   -14247067.578 6 -11041291.37021        16.000           1.281
 91  5 15 20 18 14.9990000  0  6G18G 2G11G16G19G 6
  23972320.636    17314392.387 3  13479394.52421         6.000           0.250
  20530528.448   -18357734.620 7 -14224028.52223        24.750           2.750
  23292557.339    -5126611.283 5  -3934963.06721        11.500           0.469
  23511163.011    -4096657.887 5  -3078536.12421         8.750           0.375
  21387138.175     3261970.387 6   2544727.61322        16.750           1.500
  21749059.128   -14280305.678 6 -11067191.17521        16.000           1.250
 91  5 15 20 18 29.9990000  0  6G18G 2G11G16G19G 6
  23981705.487    17363716.116 3  13517828.37821         6.000           0.219
  20526642.925   -18378156.843 7 -14239941.92723        24.750           2.781
  23296809.394    -5104267.420 5  -3917552.29121        11.250           0.469
  23514563.026    -4078794.410 5  -3064616.68021         8.750           0.406
  21390664.151     3280501.946 6   2559167.74322        17.000           1.531
  21742738.175   -14313523.754 6 -11093075.36921        16.250           1.281
 91  5 15 20 18 44.9990000  0  6G18G 2G11G16G19G 6
  23991097.894    17413058.805 3  13556276.95421         5.750           0.063
  20522771.745   -18398499.443 7 -14255793.29023        25.000           2.688
  23301082.659    -5081795.365 5  -3900041.64721        11.000           0.406
  23517980.339    -4060839.695 5  -3050626.13421         8.750           0.375
  21394202.605     3299090.435 6   2573652.23621        16.750           1.469
  21736418.269   -14346721.882 6 -11118944.02121        16.000           1.250
 91  5 15 20 18 59.9990000  0  6G18G 2G11G16G19G 6
  24000488.808    17462419.382 3  13594739.49821         5.750           0.219
  20518915.144   -18418763.488 7 -14271583.44123        24.750           2.750
  23305383.198    -5059196.411 5  -3882432.10921        11.750           0.406
  23521411.894    -4042795.037 5  -3036565.53121         8.500           0.438
  21397752.925     3317734.894 6   2588180.34321        16.500           1.469
  21730106.128   -14379901.016 6 -11144797.87821        16.250           1.250
 91  5 15 20 19 14.9990000  0  6G18G 2G11G16G19G 6
  24009886.183    17511800.602 3  13633218.13921         6.000           0.250
  20515075.214   -18438945.721 7 -14287309.84323        24.750           2.688
  23309711.550    -5036467.702 5  -3864721.47921        11.750           0.500
  23524864.097    -4024657.431 5  -3022432.48921         9.000           0.500
  21401309.276     3336438.677 6   2602754.67121        16.500           1.375
  21723795.058   -14413057.803 6 -11170634.32021        16.000           1.219
 91  5 15 20 19 29.9980000  0  6G18G 2G11G16G19G 6
  24019286.225    17561197.335 4  13671708.81621         6.250           0.250
  20511250.029   -18459046.607 7 -14302972.85623        24.750           2.625
  23314058.389    -5013612.583 5  -3846912.33321        11.500           0.375
  23528334.303    -4006430.163 5  -3008229.56021         8.500           0.406
  21404877.897     3355198.729 6   2617372.84721        16.750           1.344
  21717489.381   -14446191.726 6 -11196452.94221        16.250           1.188
 91  5 15 20 19 44.9980000  0  6G18G 2G11G16G19G 6
  24028689.897    17610611.500 4  13710213.11621         6.500           0.313
  20507439.701   -18479073.175 7 -14318577.96123        24.750           2.813
  23318429.576    -4990632.471 5  -3829005.77821        11.000           0.406
  23531818.311    -3988115.238 5  -2993958.33621         8.750           0.406
  21408461.092     3374013.257 6   2632033.47721        16.250           1.438
  21711186.654   -14479311.321 6 -11222260.40221        16.250           1.188
 91  5 15 20 19 59.9980000  0  6G18G 2G11G16G19G 6
  24038094.459    17660044.646 4  13748732.21521         6.750           0.281
  20503643.318   -18499019.132 7 -14334120.25223        24.750           2.688
  23322826.998    -4967524.276 5  -3810999.44221        11.000           0.531
  23535320.568    -3969709.092 5  -2979616.00621         8.500           0.406
  21412048.943     3392886.121 6   2646739.56321        16.500           1.438
  21704890.459   -14512409.240 6 -11248050.96621        16.500           1.281
 91  5 15 20 20 14.9980000  0  6G18G 2G11G16G19G 6
  24047507.178    17709495.171 4  13787264.83321         6.750           0.250
  20499862.850   -18518885.753 7 -14349600.72523        24.750           2.625
  23327249.365    -4944289.660 5  -3792894.58521        11.250           0.500
  23538841.686    -3951213.456 5  -2965203.96521         8.750           0.500
  21415652.904     3411815.871 6   2661489.97621        16.000           1.469
  21698594.662   -14545486.860 6 -11273825.71521        16.250           1.313
 91  5 15 20 20 29.9980000  0  5G 2G11G16G19G 6
  20496097.451   -18538671.662 7 -14365018.30323        24.000           2.719
  23331695.873    -4920927.329 5  -3774690.21521        11.250           0.469
  23542377.467    -3932627.532 5  -2950721.55221         8.750           0.313
  21419268.873     3430804.082 6   2676285.93821        15.500           1.438
  21692304.607   -14578542.548 6 -11299583.37921        16.250           1.281
 91  5 15 20 20 44.9980000  0  5G 2G11G16G19G 6
  20492347.397   -18558379.240 7 -14380374.84523        24.000           2.750
  23336164.811    -4897439.764 5  -3756388.24621        11.500           0.375
  23545932.139    -3913953.757 5  -2936170.69321         8.500           0.406
  21422891.131     3449848.478 6   2691125.67721        15.750           1.406
  21686018.498   -14611578.647 6 -11325325.77721        16.500           1.219
 91  5 15 20 20 59.9980000  0  5G 2G11G16G19G 6
  20488612.623   -18578009.281 7 -14395670.96723        24.250           2.719
  23340655.803    -4873827.864 5  -3737989.39221        10.750           0.406
  23549504.318    -3895193.061 5  -2921552.09421         8.750           0.531
  21426523.615     3468948.369 6   2706008.66721        15.750           1.469
  21679736.693   -14644595.582 6 -11351053.24421        16.750           1.250
 91  5 15 20 21 14.9980000  0  5G 2G11G16G19G 6
  20484892.014   -18597558.325 7 -14410903.97423        24.250           2.781
  23345174.381    -4850088.599 5  -3719491.31821        11.000           0.438
  23553087.826    -3876342.355 5  -2906863.37521         8.250           0.344
  21430172.022     3488107.317 6   2720937.67322        15.500           1.563
  21673456.357   -14677589.956 6 -11376763.12121        16.750           1.375
 91  5 15 20 21 29.9980000  0  5G 2G11G16G19G 6
  20481187.397   -18617026.453 7 -14426073.93323        24.250           2.719
  23349713.084    -4826222.188 5  -3700894.15321        10.250           0.469
  23556693.701    -3857402.235 5  -2892104.97021         8.500           0.469
  21433826.420     3507325.295 6   2735912.67822        15.500           1.531
  21667182.420   -14710561.769 6 -11402455.42621        16.750           1.250
 91  5 15 20 21 44.9980000  0  5G 2G11G16G19G 6
  20477497.576   -18636416.773 7 -14441183.25823        24.750           2.750
  23354279.490    -4802232.039 5  -3682200.57321        10.500           0.375
  23560314.436    -3838375.784 5  -2877279.30421         8.250           0.469
  21437496.678     3526599.096 6   2750931.18121        15.250           1.406
  21660911.857   -14743513.940 6 -11428132.42621        16.750           1.344
 91  5 15 20 21 59.9980000  0  5G 2G11G16G19G 6
  20473822.615   -18655728.670 7 -14456231.47723        24.500           2.781
  23358871.475    -4778117.740 5  -3663410.26621        10.750           0.469
  23563950.209    -3819262.819 5  -2862386.20921         8.500           0.375
  21441172.881     3545929.485 6   2765993.77422        15.250           1.500
  21654644.920   -14776445.861 6 -11453793.65121        16.750           1.281
 91  5 15 20 22 14.9980000  0  5G 2G11G16G19G 6
  20470162.264   -18674961.046 7 -14471217.73323        24.750           2.656
  23363480.522    -4753878.322 5  -3644522.44121        10.250           0.469
  23567605.967    -3800062.579 5  -2847425.13821         8.750           0.438
  21444863.998     3565317.697 6   2781101.42821        14.750           1.469
  21648382.279   -14809356.147 6 -11479438.01021        17.000           1.219
 91  5 15 20 22 29.9980000  0  5G 2G11G16G19G 6
  20466517.842   -18694114.981 7 -14486142.86523        24.750           2.719
  23368119.670    -4729515.105 5  -3625538.16721        10.750           0.406
  23571275.865    -3780776.570 5  -2832397.21021         8.750           0.375
  21448562.568     3584762.738 6   2796253.36521        15.000           1.469
  21642123.842   -14842245.742 6 -11505066.24921        17.000           1.281
 91  5 15 20 22 44.9980000  0  5G 2G11G16G19G 6
  20462888.490   -18713189.651 7 -14501006.22923        24.750           2.781
  23372778.568    -4705027.456 5  -3606456.93521        10.250           0.438
  23574964.287    -3761403.841 5  -2817301.72521         8.750           0.438
  21452275.272     3604265.597 6   2811450.34922        14.750           1.531
  21635869.076   -14875113.659 6 -11530677.59121        17.000           1.188
 91  5 15 20 22 59.9980000  0  5G 2G11G16G19G 6
  20459272.865   -18732187.439 7 -14515809.68923        24.750           2.656
  23377463.029    -4680418.088 5  -3587280.86521        10.500           0.469
  23578667.803    -3741946.870 5                         8.750
  21455994.990     3623823.833 6                        15.250
  21629617.693   -14907962.283 6 -11556273.90521        16.750           1.250
 91  5 15 20 23 14.9980000  0  5G 2G11G16G19G 6
  20455672.881   -18751105.485 7 -14530551.01323        24.250           2.813
  23382170.061    -4655684.455 5  -3568007.94021        10.750           0.531
  23582385.193    -3722403.508 5                         8.750
  21459729.654     3643440.330 6                        14.750
  21623371.506   -14940788.672 6 -11581852.89021        16.750           1.313
 91  5 15 20 23 29.9980000  0  5G 2G11G16G19G 6
  20452088.326   -18769941.290 7 -14545228.24923        24.250           2.719
  23386899.881    -4630824.027 5  -3548636.23821        10.500           0.500
  23586121.545    -3702771.402 5                         9.000
  21463476.865     3663117.767 6                        13.750
  21617129.529   -14973590.116 6 -11607412.43321        17.000           1.281
 91  5 15 20 23 44.9980000  0  5G 2G11G16G19G 6
  20448519.365   -18788700.041 7 -14559845.44523        24.250           2.719
  23391655.381    -4605842.239 5  -3529169.95921        10.750           0.469
  23589872.764    -3683055.886 5                         9.250
  21467229.897     3682850.982 6                        14.750
  21610891.568   -15006371.465 6 -11632956.31921        17.000           1.313
 91  5 15 20 23 59.9980000  0  5G 2G11G16G19G 6
  20444965.014   -18807378.744 7 -14574400.26623        24.250           2.781
  23396431.131    -4580736.431 5  -3509607.04221        10.250           0.406
  23593640.311    -3663254.508 5                         8.500
  21470995.654     3702643.081 6                        14.750
  21604657.982   -15039129.940 6 -11658482.38121        16.750           1.250
 91  5 15 20 24 14.9980000  0  5G 2G11G16G19G 6
  20441424.022   -18825980.344 7 -14588895.00923        24.500           2.719
  23401231.506    -4555509.757 5  -3489949.95321        10.750           0.594
  23597425.014    -3643370.523 5                         8.750
  21474772.412     3722491.266 6                        15.000
  21598427.959   -15071868.216 6 -11683992.70621        17.000           1.375
 91  5 15 20 24 29.9980000  0  5G 2G11G16G19G 6
  20437899.725   -18844500.715 7 -14603326.45223        24.500           2.750
  23406059.475    -4530158.298 5  -3470195.62621        11.250           0.469
  23601225.686    -3623400.013 5                         8.500
  21478559.615     3742399.760 6                        15.500
  21592202.787   -15104581.885 6 -11709483.85321        16.500           1.281
 91  5 15 20 24 44.9980000  0  5G 2G11G16G19G 6
  20434391.389   -18862938.815 7 -14617693.79023        24.750           2.781
  23410904.982    -4504681.208 5  -3450343.40821        11.000           0.438
  23605042.240    -3603341.936 5  -2694137.33121         8.500           0.344
  21482362.662     3762369.521 6   2934647.83921        15.500           1.438
  21585982.350   -15137269.890 6 -11734955.00521        16.500           1.219
 91  5 15 20 24 59.9980000  0  5G 2G11G16G19G 6
  20430898.467   -18881294.661 7 -14631997.03423        24.500           2.750
  23415775.772    -4479078.824 5  -3430393.55921        10.250           0.500
  23608876.264    -3583196.711 5  -2678439.89521         8.750           0.406
  21486171.951     3782400.506 6   2950256.35221        16.000           1.375
  21579765.811   -15169932.281 6 -11760406.19521        17.000           1.281
 91  5 15 20 25 14.9980000  0  5G 2G11G16G19G 6
  20427419.959   -18899573.673 7 -14646240.40723        24.500           2.813
  23420674.811    -4453356.723 5  -3410350.42721        11.250           0.531
  23612726.561    -3562970.117 5  -2662679.06221         9.000           0.344
  21489995.709     3802487.512 6   2965908.51921        15.500           1.375
  21573554.451   -15202574.113 6 -11785841.37021        16.750           1.313
 91  5 15 20 25 29.9980000  0  5G 2G11G16G19G 6
  20423956.787   -18917774.124 7 -14660422.56523        24.750           2.844
  23425590.084    -4427513.361 5  -3390212.80521        11.000           0.469
  23616588.748    -3542660.756 5  -2646853.73521         8.500           0.438
  21493832.397     3822632.455 6   2981605.82421        15.000           1.344
  21567348.568   -15235193.532 6 -11811259.07721        16.750           1.344
 91  5 15 20 25 44.9980000  0  5G 2G11G16G19G 6
  20420508.272   -18935897.554 7 -14674544.70423        24.500           2.906
  23430528.553    -4401550.581 5  -3369982.11721        11.000           0.438
  23620468.389    -3522270.589 5  -2630965.43421         8.250           0.344
  21497675.084     3842833.893 6   2997347.15921        15.750           1.344
  21561144.623   -15267791.952 6 -11836660.42521        17.000           1.250
 91  5 15 20 25 59.9980000  0  5G 2G11G16G19G 6
  20417073.506   -18953943.756 7 -14688606.67023        24.750           2.719
  23435495.381    -4375468.549 5  -3349658.52221        11.250           0.469
  23624363.670    -3501799.560 5  -2615014.13721         8.250           0.344
  21501526.232     3863091.883 6   3013132.55421        16.250           1.344
  21554945.678   -15300369.223 6 -11862045.28721        16.750           1.313
 91  5 15 20 26 14.9980000  0  5G 2G11G16G19G 6
  20413654.389   -18971912.282 7 -14702608.10623        25.000           2.719
  23440480.522    -4349266.841 5  -3329241.66421        10.750           0.469
  23628276.943    -3481247.583 5  -2598999.76121         8.750           0.344
  21505394.951     3883406.945 6   3028962.42721        15.750           1.375
  21548751.342   -15332924.498 6 -11887413.01321        17.000           1.313
 91  5 15 20 26 29.9980000  0  5G 2G11G16G19G 6
  20410249.514   -18989804.421 7 -14716550.01823        24.750           2.688
  23445487.365    -4322946.974 5  -3308732.74921        10.500           0.406
  23632205.857    -3460615.958 5  -2582923.32121         8.750           0.281
  21509268.850     3903777.982 6   3044835.91421        16.250           1.375
  21542559.256   -15365458.912 6 -11912764.49121        16.500           1.219
 91  5 15 20 26 44.9980000  0  5G 2G11G16G19G 6
  20406859.803   -19007617.599 7 -14730430.40523        25.000           2.719
  23450520.498    -4296506.785 5  -3288130.07121        10.750           0.438
  23636144.506    -3439902.551 5  -2566783.14121         8.250           0.313
  21513157.943     3924207.686 6   3060755.11421        15.750           1.313
  21536372.506   -15397969.988 6 -11938097.77121        17.000           1.250
 91  5 15 20 26 59.9980000  0  5G 2G11G16G19G 6
  20403484.576   -19025353.554 7 -14744250.61923        24.500           2.688
  23455571.998    -4269948.038 5  -3267435.00821        10.500           0.469
  23640098.811    -3419109.383 5  -2550580.82421         8.000           0.438
  21517059.357     3944694.465 6   3076718.78521        15.250           1.281
  21530190.803   -15430459.147 6 -11963413.98021        17.000           1.313
 91  5 15 20 27 14.9980000  0  5G 2G11G16G19G 6
  20400125.006   -19043009.580 7 -14758008.54823        24.500           2.813
  23460649.522    -4243268.346 5  -3246645.70321        10.250           0.438
  23644071.865    -3398234.246 5  -2534314.62121         7.750           0.281
  21520968.725     3965241.022 6   3092729.04421        15.750           1.188
  21524012.959   -15462923.675 6 -11988710.99621        17.000           1.344
 91  5 15 20 27 29.9980000  0  5G 2G11G16G19G 6
  20396781.029   -19060585.404 7 -14771703.98423        25.000           2.719
  23465750.787    -4216467.759 5  -3225762.18621        10.500           0.469
  23648060.272    -3377277.110 5  -2517984.55621         8.000           0.344
  21524890.045     3985847.645 6   3108786.10521        14.750           1.219
  21517838.686   -15495363.081 6 -12013988.43321        16.750           1.313
 91  5 15 20 27 44.9980000  0  5G 2G11G16G19G 6
  20393450.311   -19078086.501 7 -14785341.18923        24.750           2.750
  23470873.357    -4189551.824 5  -3204788.79621        10.500           0.375
  23652064.826    -3356243.152 5  -2501594.61721         8.000           0.406
  21528819.428     4006509.117 6   3124885.89921        15.250           1.219
  21511669.850   -15527782.626 6 -12039250.39421        17.000           1.313
 91  5 15 20 27 59.9980000  0  5G 2G11G16G19G 6
  20390134.264   -19095511.242 7 -14798918.90023        24.500           2.781
  23476015.178    -4162519.014 5  -3183724.33621         9.750           0.469
  23656081.147    -3335131.415 5  -2485144.07421         8.000           0.313
  21532765.342     4027227.031 6   3141029.67921        15.000           1.375
  21505506.068   -15560180.452 6 -12064495.43321        17.500           1.188
 91  5 15 20 28 14.9980000  0  5G 2G11G16G19G 6
  20386832.756   -19112859.626 7 -14812437.10923        25.000           2.813
  23481184.561    -4135369.868 5  -3162569.22821        10.250           0.500
  23660111.779    -3313942.483 5  -2468633.38221         7.500           0.344
  21536716.873     4048001.196 6   3157217.29421        15.250           1.313
  21499344.029   -15592556.661 6 -12089723.62621        17.000           1.219
 91  5 15 20 28 29.9980000  0  5G 2G11G16G19G 6
  20383546.178   -19130131.610 7 -14825895.78423        25.000           2.781
  23486374.936    -4108104.408 5  -3141323.47721        10.250           0.375
  23664159.795    -3292676.134 5  -2452062.37421         7.750           0.344
  21540677.975     4068832.009 6   3173449.04521        15.250           1.313
  21493186.045   -15624910.880 6 -12114934.68221        17.000           1.375
 91  5 15 20 28 44.9980000  0  5G 2G11G16G19G 6
  20380273.107   -19147329.562 7 -14839296.77623        25.000           2.750
  23491579.717    -4080725.288 5  -3119989.15121         9.500           0.406
  23668224.764    -3271335.199 5  -2435433.20421         7.750           0.313
  21544654.529     4089717.222 6   3189723.19321        15.250           1.250
  21487034.139   -15657245.437 6 -12140130.41721        17.250           1.313
 91  5 15 20 28 59.9980000  0  5G 2G11G16G19G 6
  20377016.607   -19164447.634 7 -14852635.52423        25.000           2.750
  23496812.975    -4053226.938 5  -3098561.92921         9.750           0.406
  23672296.248    -3249914.424 4  -2418741.85221         7.250           0.250
  21548640.568     4110662.468 6   3206044.11521        14.500           1.313
  21480885.943   -15689554.305 6 -12165306.14221        17.000           1.406
 91  5 15 20 29 14.9980000  0  5G 2G11G16G19G 6
  20373772.912   -19181488.496 7 -14865914.10023        25.250           2.781
  23502074.186    -4025612.272 5  -3077044.08921        10.250           0.344
  23676390.076    -3228416.509 5  -2401990.41221         7.750           0.313
  21552637.162     4131665.213 6   3222409.83921        14.500           1.281
  21474742.662   -15721840.033 6 -12190463.82921        17.250           1.344
 91  5 15 20 29 29.9980000  0  5G 2G11G16G19G 6
  20370544.443   -19198455.419 7 -14879135.08223        25.000           2.688
  23507346.303    -3997884.722 5  -3055438.25621         9.500           0.469
  23680497.615    -3206844.980 4  -2385181.57821         7.000           0.250
  21556642.076     4152722.340 6   3238817.94921        15.000           1.219
  21468602.850   -15754105.671 6 -12215605.86221        17.250           1.375
 91  5 15 20 29 44.9980000  0  5G 2G11G16G19G 6
  20367331.631   -19215342.498 7 -14892293.83323        25.750           2.813
  23512644.850    -3970038.632 5  -3033740.07021         9.500           0.344
  23684611.123    -3185194.146 4  -2368310.96721         7.250           0.250
  21560663.381     4173839.916 6   3255273.15121        14.500           1.219
  21462466.873   -15786345.130 6 -12240727.49821        17.250           1.250
 91  5 15 20 29 59.9980000  0  5G 2G11G16G19G 6
  20364132.709   -19232151.523 7 -14905391.76823        25.000           2.844
  23517967.967    -3942076.083 5  -3011951.12921        10.250           0.344
  23688748.279    -3163466.167 4  -2351380.25421         6.750           0.219
  21564692.115     4195016.207 6   3271774.11321        14.750           1.219
  21456337.678   -15818560.090 6 -12265830.04321        17.250           1.281
 91  5 15 20 30 14.9980000  0  5G 2G11G16G19G 6
  20360948.225   -19248882.665 7 -14918429.01523        25.000           2.813
  23523309.772    -3913997.380 5  -2990071.68021         9.750           0.344
  23692898.795    -3141661.581 4  -2334389.83621         7.250           0.313
  21568733.889     4216251.144 6   3288320.76721        14.750           1.313
  21450210.264   -15850750.552 6 -12290913.50221        17.250           1.344
 91  5 15 20 30 29.9980000  0  5G 2G11G16G19G 6
  20357779.787   -19265537.960 7 -14931407.15623        25.250           2.719
  23528673.514    -3885804.902 5  -2968103.58021         9.500           0.375
  23697064.068    -3119782.388 5  -2317341.25221         7.500           0.375
  21572782.193     4237542.747 6   3304911.58021        14.750           1.250
  21444089.959   -15882918.422 6 -12315979.35121        17.250           1.313
 91  5 15 20 30 44.9980000  0  5G 2G11G16G19G 6
  20354624.459   -19282115.908 7 -14944325.03123        25.500           2.781
  23534062.443    -3857497.384 5  -2946045.83621        10.500           0.313
  23701239.139    -3097827.709 4  -2300233.86821         7.000           0.344
  21576848.654     4258892.446 6   3321547.65621        14.750           1.281
  21437973.537   -15915062.119 6 -12341026.36621        17.000           1.250
 91  5 15 20 30 59.9980000  0  5G 2G11G16G19G 6
  20351483.756   -19298616.260 7 -14957182.44923        25.000           2.719
  23539468.076    -3829074.767 5  -2923898.41521         9.750           0.375
  23705431.381    -3075797.597 4  -2283067.72321         6.750           0.281
  21580923.162     4280300.734 6   3338229.39121        15.250           1.250
  21431862.084   -15947181.039 6 -12366054.08121        17.250           1.281
 91  5 15 20 31 14.9980000  0  5G 2G11G16G19G 6
  20348359.897   -19315039.246 7 -14969979.56723        25.250           2.750
  23544896.811    -3800537.636 5  -2901661.74221         9.250           0.313
  23709638.436    -3053692.127 4  -2265842.81221         6.750           0.313
  21585006.842     4301767.269 6   3354956.51921        14.750           1.188
  21425753.787   -15979275.545 6 -12391062.76121        17.250           1.344
 91  5 15 20 31 29.9980000  0  5G 2G11G16G19G 6
  20345249.295   -19331385.979 7 -14982717.27623        25.000           2.750
  23550355.350    -3771887.306 5  -2879336.88121        10.000           0.375
  23713859.459    -3031512.995 4  -2248560.54621         7.000           0.313
  21589104.654     4323291.209 6   3371728.37121        14.750           1.281
  21419650.248   -16011346.363 6 -12416052.98621        17.250           1.375
 91  5 15 20 31 44.9980000  0  5G 2G11G16G19G 6
  20342152.850   -19347653.932 7 -14995393.60023        25.250           2.813
  23555829.037    -3743121.581 5  -2856922.08921        10.250           0.375
  23718093.131    -3009258.017 4  -2231219.15621         6.750           0.313
  21593210.912     4344875.206 6   3388547.01921        14.750           1.219
  21413552.279   -16043390.839 6 -12441022.68721        17.000           1.438
 91  5 15 20 31 59.9980000  0  5G 2G11G16G19G 6
  20339070.748   -19363849.788 7 -15008013.74323        25.250           2.906
  23561320.615    -3714247.251 5  -2834422.67321         9.750           0.344
  23722344.701    -2986934.146 4  -2213824.09721         7.000           0.281
  21597328.139     4366512.353 6   3405407.07821        15.500           1.281
  21407460.373   -16075415.615 6 -12465977.03821        17.000           1.344
 91  5 15 20 32 14.9980000  0  5G 2G11G16G19G 6
  20336004.084   -19379969.306 7 -15020574.39723        25.500           2.750
  23566839.381    -3685260.113 5  -2811835.35921        10.500           0.250
  23726606.201    -2964537.401 4  -2196372.26321         6.750           0.313
  21601457.186     4388207.325 6   3422312.20521        15.500           1.219
  21401368.272   -16107415.939 6 -12490912.33821        16.750           1.344
 91  5 15 20 32 29.9980000  0  5G 2G11G16G19G 6
  20332951.537   -19396010.109 7 -15033073.71323        25.250           2.906
  23572376.857    -3656158.309 5  -2789158.70021        10.000           0.375
  23730879.873    -2942065.682 4  -2178862.01921         6.500           0.219
  21605593.709     4409962.369 6   3439264.13721        15.500           1.313
  21395284.889   -16139389.553 6 -12515826.81621        17.000           1.313
 91  5 15 20 32 44.9980000  0  5G 2G11G16G19G 6
  20329912.428   -19411975.088 7 -15045513.95623        25.500           2.875
  23577934.514    -3626944.799 5  -2766394.98921        10.000           0.344
  23735169.295    -2919522.378 4  -2161295.97221         6.250           0.344
  21609746.186     4431774.665 6   3456260.67721        15.250           1.125
  21389205.170   -16171339.178 6 -12540722.60521        17.000           1.406
 91  5 15 20 32 59.9980000  0  5G 2G11G16G19G 6
  20326890.990   -19427859.782 7 -15057891.63723        25.000           2.813
  23583515.889    -3597615.313 5  -2743540.93521        10.500           0.344
  23739476.756    -2896903.275 4  -2143670.86121         6.500           0.281
  21613912.342     4453648.895 6   3473305.48221        14.750           1.219
  21383130.670   -16203260.011 6 -12565595.96221        17.000           1.438
 91  5 15 20 33 14.9980000  0  5G 2G11G16G19G 6
  20323882.193   -19443668.334 7 -15070209.98323        25.250           2.844
  23589120.068    -3568174.409 5  -2720600.04921        10.750           0.344
  23743793.287    -2874212.402 4  -2125989.84421         6.500           0.375
  21618082.967     4475580.756 6   3490395.19821        15.250           1.188
  21377060.170   -16235156.153 6 -12590450.07521        16.750           1.406
 91  5 15 20 33 29.9980000  0  5G 2G11G16G19G 6
  20320888.506   -19459401.802 7 -15082469.82223        25.500           2.781
  23594741.506    -3538623.305 5  -2697573.26121        10.000           0.375
  23748124.779    -2851451.203 4  -2108254.01621         6.750           0.281
  21622265.678     4497569.513 6   3507529.24121        15.250           1.156
  21370995.725   -16267028.465 6 -12615285.61821        17.250           1.281
 91  5 15 20 33 44.9980000  0  5G 2G11G16G19G 6
  20317908.326   -19475058.033 7 -15094669.47723        25.250           2.813
  23600386.990    -3508960.206 5  -2674459.22421        10.250           0.344
  23752466.404    -2828618.147 4  -2090462.18321         6.500           0.281
  21626463.787     4519617.246 6   3524709.24321        15.250           1.313
  21364935.248   -16298874.686 6 -12640100.83421        17.000           1.281
 91  5 15 20 33 59.9980000  0  5G 2G11G16G19G 6
  20314944.232   -19490639.948 7 -15106811.22623        25.000           2.875
  23606053.787    -3479188.436 5  -2651260.52221        10.750           0.375
  23756830.615    -2805716.395 4  -2072616.85121         6.500           0.313
  21630668.201     4541721.151 6   3541933.01321        15.000           1.344
  21358881.147   -16330697.568 6 -12664897.86121        17.500           1.344
 91  5 15 20 34 14.9980000  0  5G 2G11G16G19G 6
  20311993.123   -19506143.817 7 -15118892.15823        25.500           2.875
  23611740.147    -3449304.314 5  -2627974.23921        10.250           0.313
  23761200.412    -2782742.441 4  -2054715.21121         6.750           0.250
  21634887.600     4563885.067 6   3559203.54721        15.000           1.219
  21352829.084   -16362493.239 6 -12689673.68521        17.250           1.406
 91  5 15 20 34 29.9980000  0  5G 2G11G16G19G 6
  20309058.732   -19521566.064 7 -15130909.49023        25.250           2.875
  23617445.303    -3419304.521 5  -2604597.86021        10.000           0.281
  23765587.186    -2759692.855 4  -2036754.68021         6.250           0.281
  21639115.459     4586112.684 6   3576523.71721        15.250           1.219
  21346785.850   -16394257.928 6 -12714425.37121        17.250           1.406
 91  5 15 20 34 44.9980000  0  5G 2G11G16G19G 6
  20306137.748   -19536912.254 7 -15142867.55923        24.750           2.844
  23623181.123    -3389194.863 5  -2581135.86721        10.750           0.406
  23769986.459    -2736573.588 4  -2018739.86321         6.750           0.344
  21643357.318     4608398.473 6   3593889.22021        14.750           1.219
  21340745.092   -16425996.960 6 -12739157.06421        17.250           1.313
 91  5 15 20 34 59.9980000  0  4G 2G11G19G 6
  20303232.365   -19552183.941 7 -15154767.57023        25.250           2.750
  23628928.631    -3358977.136 5  -2557589.64321        10.250           0.281
  21647607.537     4630740.911 6   3611298.85921        14.750           1.188
  21334710.365   -16457711.806 6 -12763869.90321        17.250           1.469
 91  5 15 20 35 14.9980000  0  4G 2G11G19G 6
  20300340.357   -19567382.126 7 -15166610.31123        25.000           2.906
  23634696.412    -3328652.485 5  -2533960.11321         9.000           0.375
  21651871.686     4653139.037 6   3628751.89621        15.000           1.219
  21328679.334   -16489403.147 6 -12788564.43421        17.500           1.406
 91  5 15 20 35 29.9980000  0  4G 2G11G19G 6
  20297462.287   -19582503.439 7 -15178393.15323        24.500           2.844
  23640488.029    -3298217.875 5  -2510244.89421         9.250           0.281
  21656143.561     4675596.337 6   3646251.03921        15.500           1.250
  21322652.842   -16521067.468 6 -12813237.90821        17.250           1.469
 91  5 15 20 35 44.9980000  0  4G 2G11G19G 6
  20294599.412   -19597547.249 7 -15190115.59923        24.750           2.938
  23646304.412    -3267673.010 5  -2486443.77121        10.000           0.313
  21660428.834     4698113.521 6   3663796.85221        14.500           1.156
  21316633.311   -16552704.106 6 -12837889.80721        17.500           1.438
 91  5 15 20 35 59.9980000  0  4G 2G11G19G 6
  20291751.725   -19612514.899 7 -15201778.69723        25.000           3.000
  23652138.037    -3237019.316 5  -2462557.86321         9.500           0.375
  21664728.607     4720689.664 6   3681388.60021        13.750           1.219
  21310618.389   -16584314.008 6 -12862520.88021        17.500           1.375
 91  5 15 20 36 14.9980000  0  4G 2G11G19G 6
  20288919.662   -19627397.582 7 -15213375.59423        24.750           2.906
  23657990.857    -3206248.343 5  -2438580.52921         8.500           0.250
  21669035.568     4743333.338 6   3699032.97021        14.500           1.156
  21304610.092   -16615888.428 6 -12887124.30022        17.750           1.563
 91  5 15 20 36 29.9980000  0  4G 2G11G19G 6
  20286101.912   -19642201.252 7 -15224910.91623        24.750           2.938
  23663867.287    -3175366.229 5  -2414516.60021         9.000           0.344
  21673354.068     4766038.780 6   3716725.47721        13.750           1.281
  21298606.506   -16647432.977 6 -12911704.44322        17.500           1.563
 91  5 15 20 36 44.9980000  0  4G 2G11G19G 6
  20283300.217   -19656927.929 7 -15236386.24423        24.750           2.844
  23669765.092    -3144375.366 5  -2390367.97421         9.250           0.375
  21677687.881     4788803.833 6   3734464.42221        14.000           1.188
  21292609.818   -16678949.531 6 -12936262.77522        18.000           1.500
 91  5 15 20 36 59.9980000  0  4G 2G11G19G 6
  20280512.717   -19671581.557 7 -15247804.65423        24.500           2.906
  23675681.053    -3113279.856 5  -2366137.76921         8.250           0.281
  21682029.514     4811624.601 6   3752246.79021        14.500           1.219
  21286615.522   -16710441.904 6 -12960802.26421        17.750           1.438
 91  5 15 20 37 14.9980000  0  4G 2G11G19G 6
  20277737.732   -19686157.508 7 -15259162.53323        24.750           2.938
  23681621.475    -3082075.270 5  -2341822.56121         8.750           0.313
  21686384.068     4834505.907 6   3770076.33421        13.750           1.375
  21280629.068   -16741905.235 6 -12985319.12422        18.000           1.563
 91  5 15 20 37 29.9980000  0  4G 2G11G19G 6
  20274979.022   -19700654.601 7 -15270458.97123        24.500           2.875
  23687580.826    -3050760.894 5  -2317421.82821         9.000           0.250
  21690748.272     4857448.935 6   3787953.96621        14.500           1.313
  21274647.693   -16773338.260 6 -13009812.36722        17.750           1.594
 91  5 15 20 37 44.9980000  0  4G 2G11G19G 6
  20272235.459   -19715073.423 7 -15281694.40823        24.750           2.875
  23693558.365    -3019337.396 5  -2292936.05521         8.500           0.281
  21695128.334     4880453.367 6   3805879.45221        14.250           1.219
  21268672.201   -16804741.317 6 -13034282.25822        18.250           1.594
 91  5 15 20 37 59.9980000  0  4G 2G11G19G 6
  20269506.334   -19729417.103 7 -15292871.29623        25.250           2.844
  23699554.647    -2987808.252 5  -2268367.96721         8.000           0.438
  21699519.217     4903515.942 6   3823850.24121        14.000           1.281
  21262701.334   -16836117.292 6 -13058731.04822        18.250           1.594
 91  5 15 20 38 14.9980000  0  4G 2G11G19G 6
  20266790.107   -19743686.911 7 -15303990.62623        24.750           2.969
  23705576.615    -2956174.874 5  -2243718.64621         8.500           0.313
  21703915.975     4926635.614 6   3841865.52321        14.250           1.250
  21256734.482   -16867467.373 6 -13083159.66122        18.000           1.563
 91  5 15 20 38 29.9980000  0  4G 2G11G19G 6
  20264088.232   -19757887.939 7 -15315056.35823        24.750           2.906
  23711619.006    -2924442.721 5  -2218992.36521         9.000           0.375
  21708323.537     4949807.363 6   3859921.38321        14.750           1.313
  21250774.936   -16898796.438 6 -13107571.89322        18.250           1.531
 91  5 15 20 38 44.9980000  0  4G 2G11G19G 6
  20261399.584   -19772014.617 7 -15326064.15123        25.000           2.938
  23717677.084    -2892606.470 5  -2194184.96321         8.750           0.438
  21712746.147     4973036.751 6   3878022.16021        14.250           1.219
  21244817.482   -16930098.777 6 -13131963.30322        17.750           1.656
 91  5 15 20 38 59.9980000  0  4G 2G11G19G 6
  20258725.654   -19786066.346 7 -15337013.54423        25.000           2.844
  23723755.334    -2860665.631 5  -2169296.05321         8.000           0.469
  21717176.232     4996324.530 6   3896168.43021        15.000           1.250
  21238866.061   -16961373.609 6 -13156333.27722        18.250           1.688
 91  5 15 20 39 14.9980000  0  4G 2G11G19G 6
  20256066.389   -19800040.077 7 -15347902.16023        25.000           2.781
  23729853.318    -2828617.538 5  -2144323.59021         8.000           0.344
  21721622.256     5019673.653 6   3914362.50721        14.750           1.188
  21232919.631   -16992617.598 6 -13180679.21922        18.000           1.625
 91  5 15 20 39 29.9980000  0  4G 2G11G19G 6
  20253422.061   -19813939.259 7 -15358732.68623        25.000           2.844
  23735973.795    -2796465.818 5  -2119270.37821         8.500           0.250
  21726077.076     5043081.013 6   3932601.96121        14.500           1.344
  21226980.873   -17023834.046 6 -13205003.70122        18.000           1.594
 91  5 15 20 39 44.9980000  0  4G 2G11G19G 6
  20250790.334   -19827764.748 7 -15369505.79023        25.000           2.875
  23742108.912    -2764211.706 5  -2094137.35521         8.000           0.406
  21730541.357     5066545.612 6   3950886.01521        15.000           1.156
  21221045.193   -17055023.704 6 -13229307.31422        18.000           1.688
 91  5 15 20 39 59.9980000  0  4G 2G11G19G 6
  20248174.639   -19841512.555 7 -15380218.36223        25.000           2.813
  23748265.186    -2731851.406 5  -2068921.60921         7.500           0.344
  21735019.045     5090071.617 6   3969217.92321        14.500           1.250
  21215116.170   -17086182.265 6 -13253586.69322        18.250           1.656
 91  5 15 20 40 14.9980000  0  4G 2G11G19G 6
  20245573.264   -19855187.170 7 -15390873.89823        25.250           2.906
  23754441.287    -2699389.663 5  -2043626.81321         8.000           0.344
  21739505.522     5113654.597 6   3987594.21821        14.750           1.188
  21209191.287   -17117314.107 6 -13277845.25222        17.750           1.594
 91  5 15 20 40 29.9980000  0  4G 2G11G19G 6
  20242984.631   -19868784.956 7 -15401469.56723        25.250           2.813
  23760644.936    -2666823.059 5  -2018250.31221         9.000           0.500
  21744006.404     5137298.170 6   4006017.73421        14.750           1.156
  21203272.951   -17148415.345 6 -13302079.95822        18.000           1.719
 91  5 15 20 40 44.9980000  0  4G 2G11G19G 6
  20240410.920   -19882310.353 7 -15412008.83423        25.000           2.844
  23766861.100    -2634156.299 5  -1992795.77821         9.000           0.406
  21748514.318     5160998.142 6   4024485.20721        14.750           1.156
  21197359.092   -17179490.242 6 -13326294.14522        18.000           1.594
 91  5 15 20 40 59.9980000  0  4G 2G11G19G 6
  20237851.420   -19895764.215 7 -15422492.35223        25.000           2.906
  23773095.311    -2601390.449 5  -1967264.01321         8.500           0.438
  21753033.928     5184753.790 6   4042996.04121        15.250           1.094
  21191451.412   -17210539.386 6 -13350488.27222        18.000           1.625
 91  5 15 20 41 14.9980000  0  4G 2G11G19G 6
  20235305.131   -19909142.879 7 -15432917.27823        25.500           2.875
  23779347.748    -2568522.093 5  -1941652.37321         8.000           0.375
  21757567.850     5208568.673 6   4061553.04521        15.000           1.188
  21185549.162   -17241558.945 6 -13374659.33422        18.500           1.625
 91  5 15 20 41 29.9980000  0  4G 2G11G19G 6
  20232773.506   -19922445.432 7 -15443282.89823        24.750           2.750
  23785622.326    -2535550.763 5  -1915960.48621         8.750           0.219
  21762112.006     5232443.702 6   4080156.91621        14.500           1.063
  21179651.865   -17272547.905 6 -13398806.55622        18.500           1.688
 91  5 15 20 41 44.9980000  0  4G 2G11G19G 6
  20230257.123   -19935670.986 7 -15453588.51523        25.000           2.875
  23791917.389    -2502475.854 5  -1890187.91021         9.250           0.281
  21766665.107     5256379.996 6   4098808.52821        14.500           1.094
  21173760.014   -17303505.150 6 -13422929.07022        18.250           1.625
 91  5 15 20 41 59.9980000  0  4G 2G11G19G 6
  20227753.897   -19948824.724 7 -15463838.17223        25.000           2.750
  23798230.147    -2469302.577 5  -1864338.68221         9.000           0.281
  21771230.201     5280372.429 6   4117503.87921        14.500           1.063
  21167875.107   -17334435.673 6 -13447030.75722        18.750           1.781
 91  5 15 20 42 14.9980000  0  4G 2G11G19G 6
  20225264.186   -19961904.694 7 -15474030.35023        25.000           2.844
  23804559.084    -2436029.389 5  -1838411.56921         8.500           0.313
  21775808.592     5304423.093 6   4136244.60421        14.000           0.969
  21161993.522   -17365337.244 6 -13471109.89122        18.750           1.750
 91  5 15 20 42 29.9980000  0  4G 2G11G19G 6
  20222790.467   -19974907.433 7 -15484162.34623        25.250           2.813
  23810909.811    -2402652.920 5  -1812404.00621         8.500           0.344
  21780393.811     5328535.572 6   4155033.49921        13.750           1.094
  21156121.053   -17396206.201 6 -13495163.60622        19.250           1.781
 91  5 15 20 42 44.9980000  0  4G 2G11G19G 6
  20220330.592   -19987835.851 7 -15494236.43223        25.750           2.813
  23817279.725    -2369176.449 5  -1786318.51221         8.750           0.250
  21784997.084     5352706.974 6   4173868.30521        13.750           1.063
  21150250.357   -17427045.290 6 -13519194.05022        18.750           1.813
 91  5 15 20 42 59.9980000  0  4G 2G11G19G 6
  20217884.717   -20000688.215 7 -15504251.25323        25.000           2.781
  23823671.764    -2335598.621 5  -1760154.04521         9.750           0.250
  21789605.350     5376938.783 6   4192750.18821        13.750           1.063
  21144389.561   -17457852.665 6 -13543199.77822        18.500           1.750
 91  5 15 20 43 14.9980000  0  4G 2G11G19G 6
  20215452.975   -20013465.345 7 -15514207.45123        25.750           2.781
  23830081.592    -2301920.544 5  -1733911.45721         9.500           0.281
  21794229.975     5401230.514 6   4211678.75721        13.500           1.063
  21138532.397   -17488628.945 6 -13567181.28722        19.000           1.750
 91  5 15 20 43 29.9980000  0  4G 2G11G19G 6
  20213036.318   -20026167.785 7 -15524105.45323        24.750           2.719
  23836509.529    -2268142.901 5  -1707591.28421         9.250           0.313
  21798863.787     5425581.762 6   4230653.70721        13.500           0.969
  21132680.568   -17519374.465 6 -13591138.81922        19.000           1.750
 91  5 15 20 43 44.9980000  0  4G 2G11G19G 6
  20210632.131   -20038797.781 7 -15533947.00723        25.000           2.750
  23842955.873    -2234268.247 5  -1681195.52321         9.000           0.313
  21803508.607     5449990.100 6   4249673.13721        13.250           1.031
  21126837.037   -17550091.282 6 -13615073.98622        19.000           1.719
 91  5 15 20 43 59.9980000  0  4G 2G11G19G 6
  20208243.584   -20051349.735 7 -15543727.73923        25.750           2.781
  23849419.725    -2200291.276 5  -1654720.02821         8.750           0.250
  21808165.654     5474461.462 6   4268741.67821        12.750           1.031
  21120998.772   -17580773.511 6 -13638982.19922        19.000           1.594
 91  5 15 20 44 14.9980000  0  4G 2G11G19G 6
  20205869.053   -20063832.391 7 -15553454.48223        25.250           2.719
  23855904.373    -2166220.794 5  -1628171.68221         9.500           0.219
  21812832.623     5498987.148 6   4287852.54321        13.000           0.938
  21115164.397   -17611429.718 6 -13662870.14022        18.750           1.781
 91  5 15 20 44 29.9980000  0  4G 2G11G19G 6
  20203506.772   -20076243.757 7 -15563125.67423        24.750           2.813
  23862406.217    -2132055.248 5  -1601549.24521         9.500           0.219
  21817508.779     5523569.070 6   4307007.23421        13.000           0.938
  21109335.482   -17642057.738 6 -13686736.11422        18.750           1.750
 91  5 15 20 44 44.9980000  0  4G 2G11G19G 6
  20201159.272   -20088582.279 7 -15572740.10623        25.250           2.813
  23868926.678    -2097793.224 5  -1574851.62921         9.250           0.281
  21822199.686     5548209.193 6   4326207.28721        12.500           0.938
  21103512.654   -17672655.718 6 -13710578.68122        19.000           1.719
 91  5 15 20 44 59.9980000  0  4G 2G11G19G 6
  20198825.693   -20100845.484 7 -15582295.84123        25.250           2.719
  23875463.232    -2063432.529 5  -1548077.14721         8.750           0.250
  21826896.357     5572909.941 6   4345454.55821        12.750           0.938
  21097696.686   -17703221.015 6 -13734395.77522        19.250           1.750
 91  5 15 20 45 14.9980000  0  4G 2G11G19G 6
  20196505.256   -20113036.824 7 -15591795.58423        25.250           2.844
  23882018.436    -2028977.166 5  -1521228.89021         8.250           0.344
  21831611.115     5597667.628 6   4364746.20821        12.500           1.063
  21091883.936   -17733757.113 6 -13758190.11822        19.000           1.750
 91  5 15 20 45 29.9980000  0  4G 2G11G19G 6
  20194199.428   -20125153.518 7 -15601237.16023        25.500           2.750
  23888594.420    -1994424.424 5  -1494304.75821         8.250           0.219
  21836335.803     5622485.369 6   4384084.65321        12.250           0.906
  21086079.998   -17764260.765 6 -13781959.18522        18.750           1.719
 91  5 15 20 45 44.9980000  0  4G 2G11G19G 6
  20191908.139   -20137196.170 7 -15610621.04123        25.750           2.688
  23895188.475    -1959775.086 5  -1467305.35621         8.500           0.250
  21841066.522     5647362.705 6   4403469.53721        12.500           0.969
  21080281.436   -17794732.383 6 -13805703.28822        18.750           1.750
 91  5 15 20 45 59.9980000  0  4G 2G11G19G 6
  20189629.584   -20149165.335 7 -15619947.65823        25.000           2.719
  23901801.475    -1925029.958 5  -1440231.30121         8.750           0.219
  21845812.209     5672299.158 6   4422900.47821        12.750           0.875
  21074490.811   -17825172.242 6 -13829422.64122        19.000           1.844
 91  5 15 20 46 14.9980000  0  4G 2G11G19G 6
  20187366.303   -20161060.785 7 -15629216.83623        25.250           2.750
  23908433.357    -1890189.260 5  -1413082.79121         8.250           0.281
  21850569.115     5697294.814 6   4442377.55021        12.750           0.938
  21068703.522   -17855580.113 6 -13853117.07122        18.750           1.813
 91  5 15 20 46 29.9980000  0  4G 2G11G19G 6
  20185116.748   -20172884.556 7 -15638430.16023        25.750           2.750
  23915080.443    -1855255.231 5  -1385861.53921         8.000           0.250
  21855334.553     5722347.695 6   4461899.21921        12.750           0.875
  21062922.178   -17885957.860 6 -13876788.02322        18.750           1.781
 91  5 15 20 46 44.9980000  0  4G 2G11G19G 6
  20182880.889   -20184634.863 7 -15647586.24223        25.750           2.875
  23921741.045    -1820226.222 5  -1358566.28521         7.500           0.281
  21860115.748     5747459.792 6   4481467.02721        13.000           0.938
  21057147.701   -17916303.295 6 -13900433.80222        19.000           1.813
 91  5 15 20 46 59.9980000  0  4G 2G11G19G 6
  20180658.318   -20196315.286 7 -15656687.86523        25.750           2.781
  23928425.842    -1785106.062 4  -1331200.00521         7.250           0.219
  21864904.154     5772627.565 6   4501078.21221        13.500           0.875
  21051378.967   -17946619.827 6 -13924057.05122        18.750           1.750
 91  5 15 20 47 14.9980000  0  4G 2G11G19G 6
  20178449.436   -20207922.726 7 -15665732.62123        26.000           2.813
  23935126.936    -1749891.969 5  -1303760.54521         7.500           0.313
  21869706.178     5797854.083 6   4520735.18521        13.250           0.969
  21045615.740   -17976904.098 6 -13947655.17122        18.750           1.750
 91  5 15 20 47 29.9980000  0  4G 2G11G19G 6
  20176254.498   -20219456.078 7 -15674719.64123        25.500           2.875
  23941847.014    -1714583.089 5  -1276247.20121         7.500           0.250
  21874516.365     5823140.594 6   4540438.90421        13.500           0.938
  21039860.607   -18007154.798 6 -13971227.12422        18.750           1.719
 91  5 15 20 47 44.9980000  0  4G 2G11G19G 6
  20174073.873   -20230914.427 7 -15683648.22023        25.750           2.844
  23948582.912    -1679178.812 5  -1248659.54521         7.750           0.313
  21879341.725     5848488.059 6   4560190.11421        13.500           0.969
  21034110.029   -18037370.866 6 -13994772.09122        18.250           1.750
 91  5 15 20 47 59.9980000  0  4G 2G11G19G 6
  20171907.029   -20242300.332 7 -15692520.34923        25.500           2.656
  23955340.889    -1643682.029 5  -1220999.79221         7.750           0.219
  21884173.514     5873894.150 6   4579987.00621        14.000           0.875
  21028367.006   -18067554.643 6 -14018291.89722        18.250           1.875
 91  5 15 20 48 14.9980000  0  4G 2G11G19G 6
  20169754.475   -20253615.978 7 -15701337.73123        26.000           2.781
  23962112.404    -1608095.073 5  -1193269.79821         8.000           0.125
  21889020.998     5899356.835 6   4599827.99821        12.500           1.000
  21022626.006   -18097707.972 6 -14041787.98622        18.250           1.781
 91  5 15 20 48 29.9980000  0  4G 2G11G19G 6
  20167614.561   -20264859.356 7 -15710098.79923        25.750           2.844
  23968900.584    -1572416.372 4  -1165468.26321         7.250           0.250
  21893880.287     5924877.793 6   4619714.39821        12.250           0.906
  21016896.264   -18127828.834 6 -14065258.76022        18.750           1.719
 91  5 15 20 48 44.9980000  0  4G 2G11G19G 6
  20165488.131   -20276029.587 7 -15718802.87823        25.750           2.844
  23975708.490    -1536645.159 4  -1137594.66321         7.000           0.219
  21898745.420     5950458.244 6   4639647.16421        13.250           1.000
  21011171.639   -18157915.956 6 -14088703.26222        18.250           1.625
 91  5 15 20 48 59.9980000  0  4G 2G11G19G 6
  20163377.404   -20287126.256 7 -15727449.62723        26.000           2.781
  23982533.420    -1500781.271 4  -1109648.88421         7.000           0.219
  21903626.701     5976098.790 6   4659626.74421        13.250           0.969
  21005452.154   -18187968.711 6 -14112120.96622        18.000           1.719
 91  5 15 20 49 14.9980000  0  4G 2G11G19G 6
  20161279.811   -20298150.775 7 -15736040.15823        26.250           2.906
  23989372.342    -1464826.537 4  -1081632.29821         6.750           0.250
  21908514.928     6001797.805 6   4679651.88921        13.250           0.906
  20999737.904   -18217988.471 6 -14135512.97022        18.000           1.813
 91  5 15 20 49 29.9980000  0  4G 2G11G19G 6
  20159193.951   -20309105.331 7 -15744576.17523        25.250           2.781
  23996234.834    -1428783.298 4  -1053546.74421         7.000           0.219
  21913415.217     6027553.296 6   4699721.02921        13.500           0.938
  20994033.006   -18247977.105 6 -14158880.73022        18.250           1.719
 91  5 15 20 49 44.9980000  0  4G 2G11G19G 6
  20157123.647   -20319988.821 7 -15753056.81723        25.500           2.844
  24003110.889    -1392650.906 4  -1025391.74221         7.250           0.156
  21918328.490     6053366.321 6   4719835.01921        13.500           0.813
  20988332.334   -18277933.366 6 -14182223.25322        18.500           1.813
 91  5 15 20 49 59.9980000  0  3G 2G19G 6
  20155066.842   -20330797.167 7 -15761478.90023        25.750           2.719
  21923249.732     6079241.016 6   4739997.05521        13.500           0.875
  20982638.514   -18307853.036 6 -14205537.25922        18.000           1.750
 91  5 15 20 50 14.9980000  0  3G 2G19G 6
  20153023.123   -20341534.645 7 -15769845.76723        25.500           2.875
  21928187.131     6105173.287 6   4760203.96021        13.250           0.969
  20976951.326   -18337740.082 6 -14228825.85122        18.500           1.688
 91  5 15 20 50 29.9980000  0  3G 2G19G 6
  20150994.326   -20352196.786 7 -15778153.92823        26.250           2.844
  21933135.693     6131167.781 6   4780459.34021        13.000           0.969
  20971270.561   -18367589.618 6 -14252085.21822        18.500           1.719
 91  5 15 20 50 44.9980000  0  3G 2G19G 6
  20148979.404   -20362786.999 7 -15786406.03823        26.250           2.813
  21938090.647     6157221.087 6   4800760.55521        13.250           0.906
  20965598.272   -18397405.006 6 -14275317.96922        18.750           1.781
 91  5 15 20 50 59.9980000  0  3G 2G19G 6
  20146978.373   -20373305.603 7 -15794602.34923        25.750           2.875
  21943057.318     6183332.812 6   4821107.29521        13.750           1.000
  20959929.514   -18427186.404 6 -14298524.23822        18.750           1.719
 91  5 15 20 51 14.9980000  0  3G 2G19G 6
  20144989.623   -20383752.649 7 -15802742.90123        25.500           2.750
  21948039.787     6209502.944 6   4841499.54121        13.250           0.906
  20954270.201   -18456933.565 6 -14321703.82822        19.000           1.750
 91  5 15 20 51 29.9980000  0  3G 2G19G 6
  20143015.467   -20394128.220 7 -15810827.75823        25.750           2.844
  21953030.522     6235731.582 6   4861937.37721        13.250           0.938
  20948616.232   -18486646.281 6 -14344856.57822        19.250           1.750
 91  5 15 20 51 44.9980000  0  3G 2G19G 6
  20141055.607   -20404428.469 7 -15818853.92423        25.500           2.813
  21958034.029     6262022.835 6   4882424.00521        13.000           0.906
  20942968.178   -18516320.453 6 -14367979.28922        19.250           1.813
